Darstellungsparameter: Aktuell verwendete Einstellungen:
Skalierung der Graphiken ... ?
xyx+y,   Skalierungsfaktor:      Skalierung: Modus: x, Faktor: 1
Darstellungszeitraum ... ?
Vom - - bis: - -   Zeitraum: 10.05.2016 - 09.08.2016
Min/Max/Avg-Anzeige ... ?
Zeige MMA aktuell
Zeige MMA Monat
Zeige MMA alles
Zeige --A aktuell
Zeige --A Monat
Zeige --A alles
Keine MMA-Anzeige
MMA:
Keine MMA-Graphiken
MMA-Basis: 10.05.2016 - 09.08.2016
Quicknavigation für Darstellung... ?
Tage:      1T, 2T, 3T, 5T -1T -2T -3T -5T +1T +2T +3T +5T
Wochen: 1W, 2W, 3W -1W -2W -3W +1W +2W +3W
Monate: 1M, 3M, 6M -1M -3M -6M +1M +3M +6M
Jahre:    1J, 3J, 5J, 10J -1J -3J -5J -10J +1J +3J +5J +10J
Nutze für die Darstellung ... ?
Originaldaten oder Mittelwerte auf ...
Stundenbasis Tagesbasis Wochenbasis
Monatsbasis Jahresbasis      Datenbasis: Original-Daten
Darstellen als:
Statistik (Auto) Statistik J:M      Darstellung:
Zur Graphik,    zurück zur Übersicht aller Sensoren.
 
Tabellarische Datenbersicht: ?
 
Sensor: Nr:Datum:Temp:Feuchte:Taupunkt:
Aussen-T/F 1 10-05-2016 00:00:00 16.8 C 68 % 10.87 C
2 10-05-2016 00:05:00 16.7 C 67 % 10.55 C
3 10-05-2016 00:10:00 16.7 C 67 % 10.55 C
4 10-05-2016 00:15:00 16.7 C 67 % 10.55 C
5 10-05-2016 00:20:00 16.7 C 68 % 10.77 C
6 10-05-2016 00:25:00 16.6 C 68 % 10.67 C
7 10-05-2016 00:30:00 16.6 C 68 % 10.67 C
8 10-05-2016 00:35:00 16.5 C 68 % 10.58 C
9 10-05-2016 00:40:00 16.4 C 68 % 10.48 C
10 10-05-2016 00:45:00 16.4 C 70 % 10.92 C
11 10-05-2016 00:50:00 16.4 C 69 % 10.7 C
12 10-05-2016 00:55:00 16.3 C 69 % 10.61 C
13 10-05-2016 01:00:00 16.3 C 70 % 10.82 C
14 10-05-2016 01:05:00 16.3 C 69 % 10.61 C
15 10-05-2016 01:10:00 16.3 C 69 % 10.61 C
16 10-05-2016 01:15:00 16.3 C 70 % 10.82 C
17 10-05-2016 01:20:00 16.3 C 70 % 10.82 C
18 10-05-2016 01:25:00 16.3 C 70 % 10.82 C
19 10-05-2016 01:30:00 16.3 C 69 % 10.61 C
20 10-05-2016 01:35:00 16.3 C 71 % 11.04 C
21 10-05-2016 01:40:00 16.3 C 70 % 10.82 C
22 10-05-2016 01:45:00 16.3 C 70 % 10.82 C
23 10-05-2016 01:50:00 16.3 C 69 % 10.61 C
24 10-05-2016 01:55:00 16.4 C 70 % 10.92 C
25 10-05-2016 02:00:00 16.4 C 69 % 10.7 C
Sensor: Nr:Datum:Temp:Feuchte:Taupunkt:
Aussen-T/F 26 10-05-2016 02:05:00 16.4 C 70 % 10.92 C
27 10-05-2016 02:10:00 16.4 C 68 % 10.48 C
28 10-05-2016 02:15:00 16.6 C 68 % 10.67 C
29 10-05-2016 02:20:00 16.7 C 68 % 10.77 C
30 10-05-2016 02:25:00 16.8 C 67 % 10.64 C
31 10-05-2016 02:30:00 16.7 C 68 % 10.77 C
32 10-05-2016 02:35:00 16.7 C 67 % 10.55 C
33 10-05-2016 02:40:00 16.7 C 67 % 10.55 C
34 10-05-2016 02:45:00 16.7 C 68 % 10.77 C
35 10-05-2016 02:50:00 16.6 C 69 % 10.89 C
36 10-05-2016 02:55:00 16.4 C 69 % 10.7 C
37 10-05-2016 03:00:00 16.3 C 68 % 10.39 C
38 10-05-2016 03:05:00 16.3 C 70 % 10.82 C
39 10-05-2016 03:10:00 16.3 C 68 % 10.39 C
40 10-05-2016 03:15:00 16.3 C 69 % 10.61 C
41 10-05-2016 03:20:00 16.2 C 71 % 10.94 C
42 10-05-2016 03:25:00 16.1 C 71 % 10.84 C
43 10-05-2016 03:30:00 16 C 71 % 10.75 C
44 10-05-2016 03:35:00 15.9 C 71 % 10.65 C
45 10-05-2016 03:40:00 15.8 C 73 % 10.97 C
46 10-05-2016 03:45:00 15.7 C 73 % 10.88 C
47 10-05-2016 03:50:00 15.7 C 73 % 10.88 C
48 10-05-2016 03:55:00 15.6 C 74 % 10.99 C
49 10-05-2016 04:00:00 15.5 C 72 % 10.48 C
50 10-05-2016 04:05:00 15.4 C 73 % 10.59 C
Sensor: Nr:Datum:Temp:Feuchte:Taupunkt:
Aussen-T/F 51 10-05-2016 04:10:00 15.4 C 74 % 10.79 C
52 10-05-2016 04:15:00 15.3 C 73 % 10.49 C
53 10-05-2016 04:20:00 15.3 C 74 % 10.7 C
54 10-05-2016 04:25:00 15.3 C 74 % 10.7 C
55 10-05-2016 04:30:00 15.2 C 74 % 10.6 C
56 10-05-2016 04:35:00 15.2 C 74 % 10.6 C
57 10-05-2016 04:40:00 15.1 C 75 % 10.71 C
58 10-05-2016 04:45:00 15.1 C 75 % 10.71 C
59 10-05-2016 04:50:00 15.1 C 75 % 10.71 C
60 10-05-2016 04:55:00 15.1 C 76 % 10.9 C
61 10-05-2016 05:00:00 15.1 C 75 % 10.71 C
62 10-05-2016 05:05:00 15.1 C 75 % 10.71 C
63 10-05-2016 05:10:00 15.1 C 75 % 10.71 C
64 10-05-2016 05:15:00 15.1 C 74 % 10.5 C
65 10-05-2016 05:20:00 15.1 C 75 % 10.71 C
66 10-05-2016 05:25:00 15.1 C 75 % 10.71 C
67 10-05-2016 05:30:00 15.1 C 74 % 10.5 C
68 10-05-2016 05:35:00 15.1 C 75 % 10.71 C
69 10-05-2016 05:40:00 15.1 C 75 % 10.71 C
70 10-05-2016 05:45:00 15 C 75 % 10.61 C
71 10-05-2016 05:50:00 15 C 74 % 10.41 C
72 10-05-2016 05:55:00 15 C 75 % 10.61 C
73 10-05-2016 06:00:00 15 C 75 % 10.61 C
74 10-05-2016 06:05:00 15 C 74 % 10.41 C
75 10-05-2016 06:10:00 15 C 75 % 10.61 C
Sensor: Nr:Datum:Temp:Feuchte:Taupunkt:
Aussen-T/F 76 10-05-2016 06:15:00 14.9 C 76 % 10.71 C
77 10-05-2016 06:20:00 14.9 C 76 % 10.71 C
78 10-05-2016 06:25:00 14.9 C 76 % 10.71 C
79 10-05-2016 06:30:00 14.8 C 76 % 10.61 C
80 10-05-2016 06:35:00 14.8 C 77 % 10.81 C
81 10-05-2016 06:40:00 14.8 C 77 % 10.81 C
82 10-05-2016 06:45:00 14.8 C 77 % 10.81 C
83 10-05-2016 06:50:00 14.8 C 77 % 10.81 C
84 10-05-2016 06:55:00 14.8 C 76 % 10.61 C
85 10-05-2016 07:00:00 14.9 C 76 % 10.71 C
86 10-05-2016 07:05:00 14.9 C 77 % 10.91 C
87 10-05-2016 07:10:00 14.9 C 77 % 10.91 C
88 10-05-2016 07:15:00 14.9 C 77 % 10.91 C
89 10-05-2016 07:20:00 15 C 78 % 11.2 C
90 10-05-2016 07:25:00 15 C 78 % 11.2 C
91 10-05-2016 07:30:00 15.1 C 78 % 11.3 C
92 10-05-2016 07:35:00 15.2 C 79 % 11.59 C
93 10-05-2016 07:40:00 15.2 C 78 % 11.39 C
94 10-05-2016 07:45:00 15.3 C 79 % 11.68 C
95 10-05-2016 07:50:00 15.4 C 80 % 11.97 C
96 10-05-2016 07:55:00 15.6 C 80 % 12.16 C
97 10-05-2016 08:00:00 15.7 C 81 % 12.45 C
98 10-05-2016 08:05:00 15.8 C 81 % 12.55 C
99 10-05-2016 08:10:00 15.9 C 80 % 12.46 C
100 10-05-2016 08:15:00 16.1 C 80 % 12.65 C
Sensor: Nr:Datum:Temp:Feuchte:Taupunkt:
Aussen-T/F 101 10-05-2016 08:20:00 16.2 C 80 % 12.75 C
102 10-05-2016 08:25:00 16.3 C 76 % 12.07 C
103 10-05-2016 08:30:00 16.4 C 73 % 11.55 C
104 10-05-2016 08:35:00 16.6 C 70 % 11.11 C
105 10-05-2016 08:40:00 16.8 C 72 % 11.73 C
106 10-05-2016 08:45:00 17.1 C 74 % 12.43 C
107 10-05-2016 08:50:00 17.2 C 72 % 12.11 C
108 10-05-2016 08:55:00 17.3 C 70 % 11.78 C
109 10-05-2016 09:00:00 17.4 C 67 % 11.21 C
110 10-05-2016 09:05:00 17.4 C 69 % 11.66 C
111 10-05-2016 09:10:00 17.6 C 68 % 11.63 C
112 10-05-2016 09:15:00 17.7 C 66 % 11.27 C
113 10-05-2016 09:20:00 17.8 C 66 % 11.37 C
114 10-05-2016 09:25:00 17.9 C 66 % 11.46 C
115 10-05-2016 09:30:00 18 C 65 % 11.33 C
116 10-05-2016 09:35:00 18.1 C 64 % 11.19 C
117 10-05-2016 09:40:00 18.1 C 64 % 11.19 C
118 10-05-2016 09:45:00 18.2 C 64 % 11.28 C
119 10-05-2016 09:50:00 18.3 C 64 % 11.38 C
120 10-05-2016 09:55:00 18.4 C 64 % 11.47 C
121 10-05-2016 10:00:00 18.6 C 65 % 11.9 C
122 10-05-2016 10:05:00 18.8 C 63 % 11.61 C
123 10-05-2016 10:10:00 18.8 C 63 % 11.61 C
124 10-05-2016 10:15:00 18.9 C 62 % 11.47 C
125 10-05-2016 10:20:00 19 C 62 % 11.56 C
Sensor: Nr:Datum:Temp:Feuchte:Taupunkt:
Aussen-T/F 126 10-05-2016 10:25:00 19.1 C 61 % 11.41 C
127 10-05-2016 10:30:00 19.1 C 62 % 11.65 C
128 10-05-2016 10:35:00 19.2 C 62 % 11.75 C
129 10-05-2016 10:40:00 19.4 C 62 % 11.94 C
130 10-05-2016 10:45:00 19.6 C 60 % 11.63 C
131 10-05-2016 10:50:00 19.7 C 61 % 11.97 C
132 10-05-2016 10:55:00 19.8 C 60 % 11.82 C
133 10-05-2016 11:00:00 19.8 C 60 % 11.82 C
134 10-05-2016 11:05:00 19.9 C 60 % 11.91 C
135 10-05-2016 11:10:00 19.9 C 59 % 11.66 C
136 10-05-2016 11:15:00 20 C 59 % 11.75 C
137 10-05-2016 11:20:00 20.1 C 59 % 11.84 C
138 10-05-2016 11:25:00 20.2 C 63 % 12.94 C
139 10-05-2016 11:30:00 20.3 C 63 % 13.03 C
140 10-05-2016 11:35:00 20.3 C 61 % 12.54 C
141 10-05-2016 11:40:00 20.4 C 63 % 13.12 C
142 10-05-2016 11:45:00 20.5 C 61 % 12.73 C
143 10-05-2016 11:50:00 20.5 C 62 % 12.97 C
144 10-05-2016 11:55:00 20.5 C 62 % 12.97 C
145 10-05-2016 12:00:00 20.5 C 63 % 13.22 C
146 10-05-2016 12:05:00 20.6 C 65 % 13.79 C
147 10-05-2016 12:10:00 20.6 C 66 % 14.03 C
148 10-05-2016 12:15:00 20.4 C 68 % 14.3 C
149 10-05-2016 12:20:00 20.3 C 68 % 14.2 C
150 10-05-2016 12:25:00 20.1 C 70 % 14.46 C
Sensor: Nr:Datum:Temp:Feuchte:Taupunkt:
Aussen-T/F 151 10-05-2016 12:30:00 19.9 C 73 % 14.92 C
152 10-05-2016 12:35:00 19.8 C 74 % 15.03 C
153 10-05-2016 12:40:00 19.5 C 75 % 14.95 C
154 10-05-2016 12:45:00 19.2 C 77 % 15.07 C
155 10-05-2016 12:50:00 19.1 C 80 % 15.57 C
156 10-05-2016 12:55:00 18.9 C 81 % 15.57 C
157 10-05-2016 13:00:00 18.8 C 83 % 15.85 C
158 10-05-2016 13:05:00 18.8 C 82 % 15.66 C
159 10-05-2016 13:10:00 18.7 C 82 % 15.57 C
160 10-05-2016 13:15:00 18.8 C 82 % 15.66 C
161 10-05-2016 13:20:00 18.8 C 81 % 15.47 C
162 10-05-2016 13:25:00 18.9 C 82 % 15.76 C
163 10-05-2016 13:30:00 19.1 C 81 % 15.76 C
164 10-05-2016 13:35:00 19.1 C 79 % 15.37 C
165 10-05-2016 13:40:00 19.1 C 77 % 14.97 C
166 10-05-2016 13:45:00 19 C 78 % 15.08 C
167 10-05-2016 13:50:00 19 C 79 % 15.28 C
168 10-05-2016 13:55:00 18.9 C 78 % 14.98 C
169 10-05-2016 14:00:00 18.9 C 80 % 15.38 C
170 10-05-2016 14:05:00 18.8 C 80 % 15.28 C
171 10-05-2016 14:10:00 18.8 C 80 % 15.28 C
172 10-05-2016 14:15:00 18.8 C 80 % 15.28 C
173 10-05-2016 14:20:00 18.9 C 80 % 15.38 C
174 10-05-2016 14:25:00 18.9 C 81 % 15.57 C
175 10-05-2016 14:30:00 18.9 C 82 % 15.76 C
Sensor: Nr:Datum:Temp:Feuchte:Taupunkt:
Aussen-T/F 176 10-05-2016 14:35:00 18.9 C 82 % 15.76 C
177 10-05-2016 14:40:00 18.9 C 81 % 15.57 C
178 10-05-2016 14:45:00 19 C 82 % 15.86 C
179 10-05-2016 14:50:00 19.1 C 83 % 16.15 C
180 10-05-2016 14:55:00 18.9 C 82 % 15.76 C
181 10-05-2016 15:00:00 18.8 C 82 % 15.66 C
182 10-05-2016 15:05:00 18.8 C 83 % 15.85 C
183 10-05-2016 15:10:00 18.7 C 83 % 15.75 C
184 10-05-2016 15:15:00 18.6 C 83 % 15.66 C
185 10-05-2016 15:20:00 18.6 C 84 % 15.84 C
186 10-05-2016 15:25:00 18.6 C 84 % 15.84 C
187 10-05-2016 15:30:00 18.7 C 85 % 16.13 C
188 10-05-2016 15:35:00 18.7 C 84 % 15.94 C
189 10-05-2016 15:40:00 18.7 C 85 % 16.13 C
190 10-05-2016 15:45:00 18.7 C 85 % 16.13 C
191 10-05-2016 15:50:00 18.7 C 84 % 15.94 C
192 10-05-2016 15:55:00 18.7 C 85 % 16.13 C
193 10-05-2016 16:00:00 18.7 C 85 % 16.13 C
194 10-05-2016 16:05:00 18.7 C 85 % 16.13 C
195 10-05-2016 16:10:00 18.7 C 84 % 15.94 C
196 10-05-2016 16:15:00 18.8 C 84 % 16.04 C
197 10-05-2016 16:20:00 18.7 C 83 % 15.75 C
198 10-05-2016 16:25:00 18.8 C 84 % 16.04 C
199 10-05-2016 16:30:00 18.8 C 83 % 15.85 C
200 10-05-2016 16:35:00 18.9 C 83 % 15.95 C
Sensor: Nr:Datum:Temp:Feuchte:Taupunkt:
Aussen-T/F 201 10-05-2016 16:40:00 19.1 C 82 % 15.96 C
202 10-05-2016 16:45:00 19.2 C 81 % 15.86 C
203 10-05-2016 16:50:00 19.3 C 80 % 15.76 C
204 10-05-2016 16:55:00 19.3 C 79 % 15.57 C
205 10-05-2016 17:00:00 19.2 C 79 % 15.47 C
206 10-05-2016 17:05:00 19.2 C 79 % 15.47 C
207 10-05-2016 17:10:00 19.1 C 79 % 15.37 C
208 10-05-2016 17:15:00 19.1 C 79 % 15.37 C
209 10-05-2016 17:20:00 18.9 C 80 % 15.38 C
210 10-05-2016 17:25:00 18.9 C 83 % 15.95 C
211 10-05-2016 17:30:00 18.8 C 83 % 15.85 C
212 10-05-2016 17:35:00 18.7 C 82 % 15.57 C
213 10-05-2016 17:40:00 18.7 C 86 % 16.31 C
214 10-05-2016 17:45:00 18.7 C 86 % 16.31 C
215 10-05-2016 17:50:00 18.6 C 87 % 16.39 C
216 10-05-2016 17:55:00 18.4 C 87 % 16.2 C
217 10-05-2016 18:00:00 18.3 C 87 % 16.1 C
218 10-05-2016 18:05:00 18.1 C 88 % 16.08 C
219 10-05-2016 18:10:00 17.9 C 88 % 15.88 C
220 10-05-2016 18:15:00 17.8 C 88 % 15.79 C
221 10-05-2016 18:20:00 17.8 C 89 % 15.96 C
222 10-05-2016 18:25:00 17.7 C 88 % 15.69 C
223 10-05-2016 18:30:00 17.7 C 88 % 15.69 C
224 10-05-2016 18:35:00 17.6 C 85 % 15.05 C
225 10-05-2016 18:40:00 17.6 C 86 % 15.23 C
Sensor: Nr:Datum:Temp:Feuchte:Taupunkt:
Aussen-T/F 226 10-05-2016 18:45:00 17.6 C 86 % 15.23 C
227 10-05-2016 18:50:00 17.8 C 85 % 15.25 C
228 10-05-2016 18:55:00 18 C 83 % 15.07 C
229 10-05-2016 19:00:00 18.2 C 82 % 15.08 C
230 10-05-2016 19:05:00 18.3 C 84 % 15.55 C
231 10-05-2016 19:10:00 18.3 C 83 % 15.36 C
232 10-05-2016 19:15:00 18.4 C 82 % 15.27 C
233 10-05-2016 19:20:00 18.4 C 82 % 15.27 C
234 10-05-2016 19:25:00 18.5 C 83 % 15.56 C
235 10-05-2016 19:30:00 18.5 C 83 % 15.56 C
236 10-05-2016 19:35:00 18.4 C 85 % 15.83 C
237 10-05-2016 19:40:00 18.4 C 86 % 16.02 C
238 10-05-2016 19:45:00 18.2 C 87 % 16 C
239 10-05-2016 19:50:00 18.1 C 86 % 15.72 C
240 10-05-2016 19:55:00 17.9 C 86 % 15.53 C
241 10-05-2016 20:00:00 17.7 C 86 % 15.33 C
242 10-05-2016 20:05:00 17.6 C 87 % 15.41 C
243 10-05-2016 20:10:00 17.3 C 87 % 15.12 C
244 10-05-2016 20:15:00 17.2 C 88 % 15.2 C
245 10-05-2016 20:20:00 17 C 88 % 15 C
246 10-05-2016 20:25:00 16.8 C 88 % 14.8 C
247 10-05-2016 20:30:00 16.7 C 88 % 14.7 C
248 10-05-2016 20:35:00 16.6 C 89 % 14.78 C
249 10-05-2016 20:40:00 16.4 C 89 % 14.58 C
250 10-05-2016 20:45:00 16.3 C 89 % 14.48 C
Sensor: Nr:Datum:Temp:Feuchte:Taupunkt:
Aussen-T/F 251 10-05-2016 20:50:00 16.2 C 90 % 14.56 C
252 10-05-2016 20:55:00 16 C 90 % 14.36 C
253 10-05-2016 21:00:00 15.9 C 90 % 14.26 C
254 10-05-2016 21:05:00 15.8 C 90 % 14.16 C
255 10-05-2016 21:10:00 15.7 C 90 % 14.06 C
256 10-05-2016 21:15:00 15.6 C 90 % 13.97 C
257 10-05-2016 21:20:00 15.5 C 91 % 14.04 C
258 10-05-2016 21:25:00 15.4 C 91 % 13.94 C
259 10-05-2016 21:30:00 15.3 C 91 % 13.84 C
260 10-05-2016 21:35:00 15.2 C 91 % 13.74 C
261 10-05-2016 21:40:00 15.1 C 91 % 13.64 C
262 10-05-2016 21:45:00 15 C 92 % 13.71 C
263 10-05-2016 21:50:00 14.9 C 92 % 13.61 C
264 10-05-2016 21:55:00 14.8 C 92 % 13.51 C
265 10-05-2016 22:00:00 14.8 C 92 % 13.51 C
266 10-05-2016 22:05:00 14.7 C 92 % 13.41 C
267 10-05-2016 22:10:00 14.6 C 92 % 13.32 C
268 10-05-2016 22:15:00 14.6 C 92 % 13.32 C
269 10-05-2016 22:20:00 14.4 C 92 % 13.12 C
270 10-05-2016 22:25:00 14.3 C 92 % 13.02 C
271 10-05-2016 22:30:00 14.2 C 92 % 12.92 C
272 10-05-2016 22:35:00 14.1 C 92 % 12.82 C
273 10-05-2016 22:40:00 14.1 C 93 % 12.99 C
274 10-05-2016 22:45:00 14.1 C 93 % 12.99 C
275 10-05-2016 22:50:00 14 C 93 % 12.89 C
Sensor: Nr:Datum:Temp:Feuchte:Taupunkt:
Aussen-T/F 276 10-05-2016 22:55:00 13.9 C 93 % 12.79 C
277 10-05-2016 23:00:00 13.9 C 93 % 12.79 C
278 10-05-2016 23:05:00 13.8 C 93 % 12.69 C
279 10-05-2016 23:10:00 13.8 C 94 % 12.85 C
280 10-05-2016 23:15:00 13.8 C 94 % 12.85 C
281 10-05-2016 23:20:00 13.8 C 94 % 12.85 C
282 10-05-2016 23:25:00 13.8 C 94 % 12.85 C
283 10-05-2016 23:30:00 13.8 C 94 % 12.85 C
284 10-05-2016 23:35:00 13.7 C 94 % 12.75 C
285 10-05-2016 23:40:00 13.7 C 94 % 12.75 C
286 10-05-2016 23:45:00 13.6 C 94 % 12.65 C
287 10-05-2016 23:50:00 13.6 C 94 % 12.65 C
288 10-05-2016 23:55:00 13.7 C 94 % 12.75 C
289 11-05-2016 00:00:00 13.7 C 94 % 12.75 C
290 11-05-2016 00:05:00 13.6 C 94 % 12.65 C
291 11-05-2016 00:10:00 13.6 C 94 % 12.65 C
292 11-05-2016 00:15:00 13.5 C 94 % 12.55 C
293 11-05-2016 00:20:00 13.4 C 94 % 12.45 C
294 11-05-2016 00:25:00 13.4 C 94 % 12.45 C
295 11-05-2016 00:30:00 13.4 C 94 % 12.45 C
296 11-05-2016 00:35:00 13.4 C 94 % 12.45 C
297 11-05-2016 00:40:00 13.3 C 94 % 12.36 C
298 11-05-2016 00:45:00 13.2 C 94 % 12.26 C
299 11-05-2016 00:50:00 13.2 C 95 % 12.42 C
300 11-05-2016 00:55:00 13.2 C 95 % 12.42 C
Sensor: Nr:Datum:Temp:Feuchte:Taupunkt:
Aussen-T/F 301 11-05-2016 01:00:00 13.2 C 95 % 12.42 C
302 11-05-2016 01:05:00 13.2 C 95 % 12.42 C
303 11-05-2016 01:10:00 13.2 C 95 % 12.42 C
304 11-05-2016 01:15:00 13.1 C 94 % 12.16 C
305 11-05-2016 01:20:00 12.9 C 95 % 12.12 C
306 11-05-2016 01:25:00 12.9 C 95 % 12.12 C
307 11-05-2016 01:30:00 12.8 C 95 % 12.02 C
308 11-05-2016 01:35:00 12.7 C 95 % 11.92 C
309 11-05-2016 01:40:00 12.7 C 94 % 11.76 C
310 11-05-2016 01:45:00 12.6 C 95 % 11.82 C
311 11-05-2016 01:50:00 12.5 C 95 % 11.72 C
312 11-05-2016 01:55:00 12.4 C 95 % 11.62 C
313 11-05-2016 02:00:00 12.3 C 95 % 11.52 C
314 11-05-2016 02:05:00 12.3 C 95 % 11.52 C
315 11-05-2016 02:10:00 12.3 C 95 % 11.52 C
316 11-05-2016 02:15:00 12.3 C 95 % 11.52 C
317 11-05-2016 02:20:00 12.2 C 95 % 11.42 C
318 11-05-2016 02:25:00 12.2 C 95 % 11.42 C
319 11-05-2016 02:30:00 12.3 C 96 % 11.68 C
320 11-05-2016 02:35:00 12.4 C 95 % 11.62 C
321 11-05-2016 02:40:00 12.3 C 95 % 11.52 C
322 11-05-2016 02:45:00 12.2 C 95 % 11.42 C
323 11-05-2016 02:50:00 12.1 C 95 % 11.32 C
324 11-05-2016 02:55:00 12 C 95 % 11.22 C
325 11-05-2016 03:00:00 12 C 95 % 11.22 C
Sensor: Nr:Datum:Temp:Feuchte:Taupunkt:
Aussen-T/F 326 11-05-2016 03:05:00 11.9 C 95 % 11.13 C
327 11-05-2016 03:10:00 11.7 C 95 % 10.93 C
328 11-05-2016 03:15:00 11.6 C 95 % 10.83 C
329 11-05-2016 03:20:00 11.6 C 95 % 10.83 C
330 11-05-2016 03:25:00 11.5 C 95 % 10.73 C
331 11-05-2016 03:30:00 11.4 C 95 % 10.63 C
332 11-05-2016 03:35:00 11.5 C 96 % 10.88 C
333 11-05-2016 03:40:00 11.5 C 96 % 10.88 C
334 11-05-2016 03:45:00 11.5 C 96 % 10.88 C
335 11-05-2016 03:50:00 11.5 C 96 % 10.88 C
336 11-05-2016 03:55:00 11.5 C 96 % 10.88 C
337 11-05-2016 04:00:00 11.6 C 96 % 10.98 C
338 11-05-2016 04:05:00 11.7 C 96 % 11.08 C
339 11-05-2016 04:10:00 11.8 C 96 % 11.18 C
340 11-05-2016 04:15:00 11.8 C 96 % 11.18 C
341 11-05-2016 04:20:00 11.8 C 96 % 11.18 C
342 11-05-2016 04:25:00 11.8 C 96 % 11.18 C
343 11-05-2016 04:30:00 11.9 C 96 % 11.28 C
344 11-05-2016 04:35:00 11.8 C 96 % 11.18 C
345 11-05-2016 04:40:00 11.8 C 96 % 11.18 C
346 11-05-2016 04:45:00 11.6 C 96 % 10.98 C
347 11-05-2016 04:50:00 11.4 C 95 % 10.63 C
348 11-05-2016 04:55:00 11.4 C 96 % 10.79 C
349 11-05-2016 05:00:00 11.3 C 96 % 10.69 C
350 11-05-2016 05:05:00 11.3 C 96 % 10.69 C
Sensor: Nr:Datum:Temp:Feuchte:Taupunkt:
Aussen-T/F 351 11-05-2016 05:10:00 11.3 C 96 % 10.69 C
352 11-05-2016 05:15:00 11.3 C 96 % 10.69 C
353 11-05-2016 05:20:00 11.3 C 96 % 10.69 C
354 11-05-2016 05:25:00 11.3 C 96 % 10.69 C
355 11-05-2016 05:30:00 11.2 C 96 % 10.59 C
356 11-05-2016 05:35:00 11.1 C 96 % 10.49 C
357 11-05-2016 05:40:00 11.1 C 96 % 10.49 C
358 11-05-2016 05:45:00 11.1 C 96 % 10.49 C
359 11-05-2016 05:50:00 11.1 C 96 % 10.49 C
360 11-05-2016 05:55:00 11.2 C 96 % 10.59 C
361 11-05-2016 06:00:00 11.3 C 96 % 10.69 C
362 11-05-2016 06:05:00 11.3 C 97 % 10.84 C
363 11-05-2016 06:10:00 11.4 C 97 % 10.94 C
364 11-05-2016 06:15:00 11.4 C 97 % 10.94 C
365 11-05-2016 06:20:00 11.4 C 97 % 10.94 C
366 11-05-2016 06:25:00 11.5 C 97 % 11.04 C
367 11-05-2016 06:30:00 11.6 C 96 % 10.98 C
368 11-05-2016 06:35:00 11.6 C 96 % 10.98 C
369 11-05-2016 06:40:00 11.7 C 97 % 11.24 C
370 11-05-2016 06:45:00 11.7 C 97 % 11.24 C
371 11-05-2016 06:50:00 11.7 C 97 % 11.24 C
372 11-05-2016 06:55:00 11.8 C 97 % 11.34 C
373 11-05-2016 07:00:00 11.8 C 97 % 11.34 C
374 11-05-2016 07:05:00 11.9 C 97 % 11.44 C
375 11-05-2016 07:10:00 11.9 C 97 % 11.44 C
Sensor: Nr:Datum:Temp:Feuchte:Taupunkt:
Aussen-T/F 376 11-05-2016 07:15:00 12.1 C 97 % 11.64 C
377 11-05-2016 07:20:00 12.1 C 97 % 11.64 C
378 11-05-2016 07:25:00 12.2 C 97 % 11.74 C
379 11-05-2016 07:30:00 12.2 C 97 % 11.74 C
380 11-05-2016 07:35:00 12.3 C 97 % 11.84 C
381 11-05-2016 07:40:00 12.4 C 97 % 11.94 C
382 11-05-2016 07:45:00 12.5 C 97 % 12.04 C
383 11-05-2016 07:50:00 12.5 C 97 % 12.04 C
384 11-05-2016 07:55:00 12.5 C 97 % 12.04 C
385 11-05-2016 08:00:00 12.5 C 97 % 12.04 C
386 11-05-2016 08:05:00 12.5 C 97 % 12.04 C
387 11-05-2016 08:10:00 12.6 C 97 % 12.14 C
388 11-05-2016 08:15:00 12.6 C 97 % 12.14 C
389 11-05-2016 08:20:00 12.7 C 97 % 12.24 C
390 11-05-2016 08:25:00 12.6 C 97 % 12.14 C
391 11-05-2016 08:30:00 12.6 C 97 % 12.14 C
392 11-05-2016 08:35:00 12.6 C 97 % 12.14 C
393 11-05-2016 08:40:00 12.6 C 97 % 12.14 C
394 11-05-2016 08:45:00 12.7 C 97 % 12.24 C
395 11-05-2016 08:50:00 12.7 C 97 % 12.24 C
396 11-05-2016 08:55:00 12.7 C 97 % 12.24 C
397 11-05-2016 09:00:00 12.8 C 97 % 12.34 C
398 11-05-2016 09:05:00 12.8 C 97 % 12.34 C
399 11-05-2016 09:10:00 12.9 C 97 % 12.44 C
400 11-05-2016 09:15:00 13.1 C 97 % 12.63 C
Sensor: Nr:Datum:Temp:Feuchte:Taupunkt:
Aussen-T/F 401 11-05-2016 09:20:00 13.2 C 97 % 12.73 C
402 11-05-2016 09:25:00 13.3 C 97 % 12.83 C
403 11-05-2016 09:30:00 13.4 C 97 % 12.93 C
404 11-05-2016 09:35:00 13.7 C 97 % 13.23 C
405 11-05-2016 09:40:00 13.8 C 97 % 13.33 C
406 11-05-2016 09:45:00 14 C 97 % 13.53 C
407 11-05-2016 09:50:00 14.2 C 97 % 13.73 C
408 11-05-2016 09:55:00 14.4 C 97 % 13.93 C
409 11-05-2016 10:00:00 14.6 C 97 % 14.13 C
410 11-05-2016 10:05:00 14.7 C 97 % 14.23 C
411 11-05-2016 10:10:00 14.8 C 97 % 14.33 C
412 11-05-2016 10:15:00 15 C 97 % 14.53 C
413 11-05-2016 10:20:00 15.1 C 97 % 14.63 C
414 11-05-2016 10:25:00 15.3 C 97 % 14.83 C
415 11-05-2016 10:30:00 15.5 C 96 % 14.86 C
416 11-05-2016 10:35:00 15.8 C 95 % 15 C
417 11-05-2016 10:40:00 16.2 C 93 % 15.07 C
418 11-05-2016 10:45:00 16.6 C 92 % 15.3 C
419 11-05-2016 10:50:00 16.8 C 92 % 15.49 C
420 11-05-2016 10:55:00 16.9 C 91 % 15.42 C
421 11-05-2016 11:00:00 17.1 C 91 % 15.62 C
422 11-05-2016 11:05:00 17.1 C 91 % 15.62 C
423 11-05-2016 11:10:00 17.2 C 89 % 15.37 C
424 11-05-2016 11:15:00 17.3 C 90 % 15.64 C
425 11-05-2016 11:20:00 17.4 C 90 % 15.74 C
Sensor: Nr:Datum:Temp:Feuchte:Taupunkt:
Aussen-T/F 426 11-05-2016 11:25:00 17.6 C 89 % 15.77 C
427 11-05-2016 11:30:00 17.7 C 85 % 15.15 C
428 11-05-2016 11:35:00 18.2 C 81 % 14.89 C
429 11-05-2016 11:40:00 18.9 C 78 % 14.98 C
430 11-05-2016 11:45:00 19.4 C 74 % 14.65 C
431 11-05-2016 11:50:00 19.6 C 74 % 14.84 C
432 11-05-2016 11:55:00 19.7 C 73 % 14.73 C
433 11-05-2016 12:00:00 19.9 C 73 % 14.92 C
434 11-05-2016 12:05:00 20.1 C 71 % 14.68 C
435 11-05-2016 12:10:00 20.2 C 70 % 14.56 C
436 11-05-2016 12:15:00 20.3 C 72 % 15.09 C
437 11-05-2016 12:20:00 20.3 C 71 % 14.87 C
438 11-05-2016 12:25:00 20.5 C 70 % 14.84 C
439 11-05-2016 12:30:00 20.7 C 69 % 14.81 C
440 11-05-2016 12:35:00 20.9 C 68 % 14.77 C
441 11-05-2016 12:40:00 21 C 69 % 15.1 C
442 11-05-2016 12:45:00 21.1 C 69 % 15.19 C
443 11-05-2016 12:50:00 21.2 C 69 % 15.29 C
444 11-05-2016 12:55:00 21.4 C 67 % 15.02 C
445 11-05-2016 13:00:00 21.6 C 66 % 14.98 C
446 11-05-2016 13:05:00 21.7 C 66 % 15.07 C
447 11-05-2016 13:10:00 21.8 C 64 % 14.69 C
448 11-05-2016 13:15:00 21.9 C 65 % 15.02 C
449 11-05-2016 13:20:00 21.9 C 64 % 14.78 C
450 11-05-2016 13:25:00 22 C 65 % 15.12 C
Sensor: Nr:Datum:Temp:Feuchte:Taupunkt:
Aussen-T/F 451 11-05-2016 13:30:00 22.1 C 64 % 14.97 C
452 11-05-2016 13:35:00 22.2 C 64 % 15.07 C
453 11-05-2016 13:40:00 22.3 C 62 % 14.67 C
454 11-05-2016 13:45:00 22.4 C 64 % 15.26 C
455 11-05-2016 13:50:00 22.4 C 62 % 14.76 C
456 11-05-2016 13:55:00 22.6 C 59 % 14.18 C
457 11-05-2016 14:00:00 22.7 C 59 % 14.28 C
458 11-05-2016 14:05:00 22.8 C 57 % 13.84 C
459 11-05-2016 14:10:00 22.9 C 58 % 14.2 C
460 11-05-2016 14:15:00 23.1 C 57 % 14.12 C
461 11-05-2016 14:20:00 23.3 C 55 % 13.76 C
462 11-05-2016 14:25:00 23.5 C 54 % 13.66 C
463 11-05-2016 14:30:00 23.7 C 52 % 13.26 C
464 11-05-2016 14:35:00 23.8 C 50 % 12.76 C
465 11-05-2016 14:40:00 23.8 C 50 % 12.76 C
466 11-05-2016 14:45:00 23.8 C 50 % 12.76 C
467 11-05-2016 14:50:00 24 C 51 % 13.24 C
468 11-05-2016 14:55:00 24.1 C 49 % 12.72 C
469 11-05-2016 15:00:00 23.9 C 49 % 12.54 C
470 11-05-2016 15:05:00 23.9 C 50 % 12.85 C
471 11-05-2016 15:10:00 24.1 C 51 % 13.34 C
472 11-05-2016 15:15:00 24.3 C 51 % 13.52 C
473 11-05-2016 15:20:00 24.2 C 49 % 12.81 C
474 11-05-2016 15:25:00 24.1 C 51 % 13.34 C
475 11-05-2016 15:30:00 24.2 C 51 % 13.43 C
Sensor: Nr:Datum:Temp:Feuchte:Taupunkt:
Aussen-T/F 476 11-05-2016 15:35:00 24.3 C 53 % 14.11 C
477 11-05-2016 15:40:00 24.5 C 51 % 13.7 C
478 11-05-2016 15:45:00 24.6 C 53 % 14.39 C
479 11-05-2016 15:50:00 24.9 C 49 % 13.46 C
480 11-05-2016 15:55:00 25.1 C 50 % 13.95 C
481 11-05-2016 16:00:00 25.2 C 48 % 13.41 C
482 11-05-2016 16:05:00 25.4 C 48 % 13.6 C
483 11-05-2016 16:10:00 25.6 C 50 % 14.41 C
484 11-05-2016 16:15:00 25.8 C 48 % 13.96 C
485 11-05-2016 16:20:00 25.6 C 49 % 14.1 C
486 11-05-2016 16:25:00 25.5 C 47 % 13.36 C
487 11-05-2016 16:30:00 25.2 C 46 % 12.76 C
488 11-05-2016 16:35:00 25.3 C 47 % 13.18 C
489 11-05-2016 16:40:00 25.3 C 47 % 13.18 C
490 11-05-2016 16:45:00 25.3 C 46 % 12.85 C
491 11-05-2016 16:50:00 25.1 C 50 % 13.95 C
492 11-05-2016 16:55:00 25.2 C 48 % 13.41 C
493 11-05-2016 17:00:00 25.2 C 47 % 13.09 C
494 11-05-2016 17:05:00 25.3 C 46 % 12.85 C
495 11-05-2016 17:10:00 25.2 C 45 % 12.43 C
496 11-05-2016 17:15:00 24.8 C 47 % 12.73 C
497 11-05-2016 17:20:00 25 C 48 % 13.23 C
498 11-05-2016 17:25:00 25.3 C 47 % 13.18 C
499 11-05-2016 17:30:00 25.6 C 45 % 12.79 C
500 11-05-2016 17:35:00 25.4 C 44 % 12.27 C
Sensor: Nr:Datum:Temp:Feuchte:Taupunkt:
Aussen-T/F 501 11-05-2016 17:40:00 25.3 C 44 % 12.18 C
502 11-05-2016 17:45:00 25.3 C 43 % 11.83 C
503 11-05-2016 17:50:00 25.3 C 44 % 12.18 C
504 11-05-2016 17:55:00 25.4 C 44 % 12.27 C
505 11-05-2016 18:00:00 25.1 C 43 % 11.65 C
506 11-05-2016 18:05:00 24.8 C 44 % 11.72 C
507 11-05-2016 18:10:00 24.7 C 45 % 11.97 C
508 11-05-2016 18:15:00 24.8 C 45 % 12.06 C
509 11-05-2016 18:20:00 24.7 C 44 % 11.63 C
510 11-05-2016 18:25:00 24.9 C 44 % 11.81 C
511 11-05-2016 18:30:00 25.1 C 44 % 12 C
512 11-05-2016 18:35:00 25.2 C 43 % 11.74 C
513 11-05-2016 18:40:00 25.2 C 42 % 11.38 C
514 11-05-2016 18:45:00 25.2 C 42 % 11.38 C
515 11-05-2016 18:50:00 25.2 C 46 % 12.76 C
516 11-05-2016 18:55:00 24.9 C 42 % 11.11 C
517 11-05-2016 19:00:00 24.6 C 44 % 11.54 C
518 11-05-2016 19:05:00 24.3 C 44 % 11.27 C
519 11-05-2016 19:10:00 24.2 C 47 % 12.18 C
520 11-05-2016 19:15:00 24.3 C 45 % 11.61 C
521 11-05-2016 19:20:00 24.3 C 45 % 11.61 C
522 11-05-2016 19:25:00 24.3 C 44 % 11.27 C
523 11-05-2016 19:30:00 24.2 C 45 % 11.52 C
524 11-05-2016 19:35:00 24.1 C 48 % 12.41 C
525 11-05-2016 19:40:00 23.9 C 48 % 12.23 C
Sensor: Nr:Datum:Temp:Feuchte:Taupunkt:
Aussen-T/F 526 11-05-2016 19:45:00 23.8 C 43 % 10.48 C
527 11-05-2016 19:50:00 23.7 C 48 % 12.04 C
528 11-05-2016 19:55:00 23.6 C 46 % 11.31 C
529 11-05-2016 20:00:00 23.4 C 51 % 12.69 C
530 11-05-2016 20:05:00 23.1 C 56 % 13.85 C
531 11-05-2016 20:10:00 22.7 C 55 % 13.2 C
532 11-05-2016 20:15:00 22.2 C 54 % 12.45 C
533 11-05-2016 20:20:00 21.8 C 57 % 12.91 C
534 11-05-2016 20:25:00 21.3 C 58 % 12.71 C
535 11-05-2016 20:30:00 20.8 C 58 % 12.24 C
536 11-05-2016 20:35:00 20.4 C 60 % 12.38 C
537 11-05-2016 20:40:00 19.9 C 61 % 12.16 C
538 11-05-2016 20:45:00 19.6 C 61 % 11.88 C
539 11-05-2016 20:50:00 19.2 C 62 % 11.75 C
540 11-05-2016 20:55:00 18.9 C 63 % 11.71 C
541 11-05-2016 21:00:00 18.6 C 62 % 11.18 C
542 11-05-2016 21:05:00 18.3 C 62 % 10.9 C
543 11-05-2016 21:10:00 18.1 C 62 % 10.71 C
544 11-05-2016 21:15:00 17.9 C 63 % 10.76 C
545 11-05-2016 21:20:00 17.7 C 64 % 10.81 C
546 11-05-2016 21:25:00 17.6 C 66 % 11.18 C
547 11-05-2016 21:30:00 17.4 C 66 % 10.99 C
548 11-05-2016 21:35:00 17.3 C 67 % 11.12 C
549 11-05-2016 21:40:00 17.2 C 66 % 10.8 C
550 11-05-2016 21:45:00 17.1 C 67 % 10.93 C
Sensor: Nr:Datum:Temp:Feuchte:Taupunkt:
Aussen-T/F 551 11-05-2016 21:50:00 17.1 C 68 % 11.15 C
552 11-05-2016 21:55:00 16.9 C 69 % 11.18 C
553 11-05-2016 22:00:00 16.9 C 68 % 10.96 C
554 11-05-2016 22:05:00 16.8 C 69 % 11.09 C
555 11-05-2016 22:10:00 16.8 C 69 % 11.09 C
556 11-05-2016 22:15:00 16.7 C 69 % 10.99 C
557 11-05-2016 22:20:00 16.7 C 69 % 10.99 C
558 11-05-2016 22:25:00 16.7 C 69 % 10.99 C
559 11-05-2016 22:30:00 16.7 C 69 % 10.99 C
560 11-05-2016 22:35:00 16.7 C 69 % 10.99 C
561 11-05-2016 22:40:00 16.6 C 69 % 10.89 C
562 11-05-2016 22:45:00 16.6 C 70 % 11.11 C
563 11-05-2016 22:50:00 16.5 C 70 % 11.01 C
564 11-05-2016 22:55:00 16.5 C 70 % 11.01 C
565 11-05-2016 23:00:00 16.4 C 70 % 10.92 C
566 11-05-2016 23:05:00 16.4 C 71 % 11.13 C
567 11-05-2016 23:10:00 16.3 C 71 % 11.04 C
568 11-05-2016 23:15:00 16.3 C 71 % 11.04 C
569 11-05-2016 23:20:00 16.3 C 71 % 11.04 C
570 11-05-2016 23:25:00 16.3 C 71 % 11.04 C
571 11-05-2016 23:30:00 16.3 C 72 % 11.25 C
572 11-05-2016 23:35:00 16.2 C 72 % 11.15 C
573 11-05-2016 23:40:00 16.2 C 72 % 11.15 C
574 11-05-2016 23:45:00 16.2 C 73 % 11.36 C
575 11-05-2016 23:50:00 16.1 C 74 % 11.47 C
Sensor: Nr:Datum:Temp:Feuchte:Taupunkt:
Aussen-T/F 576 11-05-2016 23:55:00 16.1 C 75 % 11.67 C
577 12-05-2016 00:00:00 16 C 76 % 11.77 C
578 12-05-2016 00:05:00 15.9 C 76 % 11.68 C
579 12-05-2016 00:10:00 15.9 C 77 % 11.88 C
580 12-05-2016 00:15:00 15.8 C 77 % 11.78 C
581 12-05-2016 00:20:00 15.8 C 76 % 11.58 C
582 12-05-2016 00:25:00 15.8 C 77 % 11.78 C
583 12-05-2016 00:30:00 15.8 C 76 % 11.58 C
584 12-05-2016 00:35:00 15.8 C 76 % 11.58 C
585 12-05-2016 00:40:00 15.8 C 75 % 11.38 C
586 12-05-2016 00:45:00 15.7 C 76 % 11.48 C
587 12-05-2016 00:50:00 15.7 C 77 % 11.68 C
588 12-05-2016 00:55:00 15.6 C 77 % 11.59 C
589 12-05-2016 01:00:00 15.6 C 78 % 11.78 C
590 12-05-2016 01:05:00 15.6 C 77 % 11.59 C
591 12-05-2016 01:10:00 15.6 C 77 % 11.59 C
592 12-05-2016 01:15:00 15.7 C 77 % 11.68 C
593 12-05-2016 01:20:00 15.7 C 76 % 11.48 C
594 12-05-2016 01:25:00 15.7 C 76 % 11.48 C
595 12-05-2016 01:30:00 15.8 C 75 % 11.38 C
596 12-05-2016 01:35:00 15.8 C 76 % 11.58 C
597 12-05-2016 01:40:00 15.8 C 76 % 11.58 C
598 12-05-2016 01:45:00 15.7 C 76 % 11.48 C
599 12-05-2016 01:50:00 15.7 C 77 % 11.68 C
600 12-05-2016 01:55:00 15.6 C 77 % 11.59 C
Sensor: Nr:Datum:Temp:Feuchte:Taupunkt:
Aussen-T/F 601 12-05-2016 02:00:00 15.6 C 75 % 11.19 C
602 12-05-2016 02:05:00 15.6 C 76 % 11.39 C
603 12-05-2016 02:10:00 15.5 C 77 % 11.49 C
604 12-05-2016 02:15:00 15.4 C 77 % 11.39 C
605 12-05-2016 02:20:00 15.4 C 77 % 11.39 C
606 12-05-2016 02:25:00 15.3 C 77 % 11.3 C
607 12-05-2016 02:30:00 15.3 C 77 % 11.3 C
608 12-05-2016 02:35:00 15.3 C 78 % 11.49 C
609 12-05-2016 02:40:00 15.3 C 78 % 11.49 C
610 12-05-2016 02:45:00 15.2 C 78 % 11.39 C
611 12-05-2016 02:50:00 15.1 C 79 % 11.49 C
612 12-05-2016 02:55:00 15.1 C 78 % 11.3 C
613 12-05-2016 03:00:00 15.1 C 78 % 11.3 C
614 12-05-2016 03:05:00 15.1 C 78 % 11.3 C
615 12-05-2016 03:10:00 15.1 C 76 % 10.9 C
616 12-05-2016 03:15:00 15.2 C 78 % 11.39 C
617 12-05-2016 03:20:00 15.2 C 78 % 11.39 C
618 12-05-2016 03:25:00 15.1 C 77 % 11.1 C
619 12-05-2016 03:30:00 15 C 78 % 11.2 C
620 12-05-2016 03:35:00 14.9 C 78 % 11.1 C
621 12-05-2016 03:40:00 14.8 C 78 % 11 C
622 12-05-2016 03:45:00 14.8 C 78 % 11 C
623 12-05-2016 03:50:00 14.7 C 79 % 11.1 C
624 12-05-2016 03:55:00 14.7 C 78 % 10.91 C
625 12-05-2016 04:00:00 14.6 C 79 % 11 C
Sensor: Nr:Datum:Temp:Feuchte:Taupunkt:
Aussen-T/F 626 12-05-2016 04:05:00 14.6 C 79 % 11 C
627 12-05-2016 04:10:00 14.6 C 79 % 11 C
628 12-05-2016 04:15:00 14.6 C 79 % 11 C
629 12-05-2016 04:20:00 14.6 C 79 % 11 C
630 12-05-2016 04:25:00 14.6 C 79 % 11 C
631 12-05-2016 04:30:00 14.6 C 79 % 11 C
632 12-05-2016 04:35:00 14.6 C 79 % 11 C
633 12-05-2016 04:40:00 14.6 C 79 % 11 C
634 12-05-2016 04:45:00 14.6 C 79 % 11 C
635 12-05-2016 04:50:00 14.5 C 79 % 10.91 C
636 12-05-2016 04:55:00 14.5 C 79 % 10.91 C
637 12-05-2016 05:00:00 14.4 C 80 % 11 C
638 12-05-2016 05:05:00 14.4 C 80 % 11 C
639 12-05-2016 05:10:00 14.3 C 79 % 10.71 C
640 12-05-2016 05:15:00 14.3 C 79 % 10.71 C
641 12-05-2016 05:20:00 14.3 C 80 % 10.9 C
642 12-05-2016 05:25:00 14.2 C 79 % 10.61 C
643 12-05-2016 05:30:00 14.2 C 80 % 10.8 C
644 12-05-2016 05:35:00 14.1 C 80 % 10.71 C
645 12-05-2016 05:40:00 14.1 C 80 % 10.71 C
646 12-05-2016 05:45:00 14 C 80 % 10.61 C
647 12-05-2016 05:50:00 13.9 C 80 % 10.51 C
648 12-05-2016 05:55:00 13.8 C 80 % 10.41 C
649 12-05-2016 06:00:00 13.8 C 81 % 10.6 C
650 12-05-2016 06:05:00 13.8 C 81 % 10.6 C
Sensor: Nr:Datum:Temp:Feuchte:Taupunkt:
Aussen-T/F 651 12-05-2016 06:10:00 13.8 C 81 % 10.6 C
652 12-05-2016 06:15:00 13.8 C 81 % 10.6 C
653 12-05-2016 06:20:00 13.8 C 82 % 10.78 C
654 12-05-2016 06:25:00 13.8 C 82 % 10.78 C
655 12-05-2016 06:30:00 13.8 C 81 % 10.6 C
656 12-05-2016 06:35:00 13.8 C 82 % 10.78 C
657 12-05-2016 06:40:00 13.8 C 82 % 10.78 C
658 12-05-2016 06:45:00 13.9 C 82 % 10.88 C
659 12-05-2016 06:50:00 14 C 81 % 10.79 C
660 12-05-2016 06:55:00 14.2 C 81 % 10.99 C
661 12-05-2016 07:00:00 14.4 C 79 % 10.81 C
662 12-05-2016 07:05:00 14.6 C 76 % 10.42 C
663 12-05-2016 07:10:00 15.1 C 74 % 10.5 C
664 12-05-2016 07:15:00 15.4 C 75 % 11 C
665 12-05-2016 07:20:00 15.6 C 73 % 10.78 C
666 12-05-2016 07:25:00 15.7 C 72 % 10.67 C
667 12-05-2016 07:30:00 15.8 C 74 % 11.18 C
668 12-05-2016 07:35:00 15.8 C 71 % 10.56 C
669 12-05-2016 07:40:00 15.9 C 71 % 10.65 C
670 12-05-2016 07:45:00 15.9 C 71 % 10.65 C
671 12-05-2016 07:50:00 16 C 70 % 10.54 C
672 12-05-2016 07:55:00 16.1 C 69 % 10.42 C
673 12-05-2016 08:00:00 16.1 C 69 % 10.42 C
674 12-05-2016 08:05:00 16.2 C 69 % 10.51 C
675 12-05-2016 08:10:00 16.2 C 69 % 10.51 C
Sensor: Nr:Datum:Temp:Feuchte:Taupunkt:
Aussen-T/F 676 12-05-2016 08:15:00 16.2 C 68 % 10.29 C
677 12-05-2016 08:20:00 16.2 C 71 % 10.94 C
678 12-05-2016 08:25:00 16.2 C 69 % 10.51 C
679 12-05-2016 08:30:00 16.2 C 69 % 10.51 C
680 12-05-2016 08:35:00 16.1 C 70 % 10.63 C
681 12-05-2016 08:40:00 16.1 C 69 % 10.42 C
682 12-05-2016 08:45:00 16.2 C 68 % 10.29 C
683 12-05-2016 08:50:00 16.2 C 69 % 10.51 C
684 12-05-2016 08:55:00 16.2 C 69 % 10.51 C
685 12-05-2016 09:00:00 16.3 C 70 % 10.82 C
686 12-05-2016 09:05:00 16.3 C 69 % 10.61 C
687 12-05-2016 09:10:00 16.4 C 70 % 10.92 C
688 12-05-2016 09:15:00 16.6 C 71 % 11.32 C
689 12-05-2016 09:20:00 16.7 C 68 % 10.77 C
690 12-05-2016 09:25:00 16.8 C 70 % 11.3 C
691 12-05-2016 09:30:00 16.9 C 70 % 11.4 C
692 12-05-2016 09:35:00 17.1 C 68 % 11.15 C
693 12-05-2016 09:40:00 17.1 C 67 % 10.93 C
694 12-05-2016 09:45:00 17.2 C 68 % 11.25 C
695 12-05-2016 09:50:00 17.2 C 67 % 11.02 C
696 12-05-2016 09:55:00 17.2 C 68 % 11.25 C
697 12-05-2016 10:00:00 17.2 C 68 % 11.25 C
698 12-05-2016 10:05:00 17.3 C 68 % 11.34 C
699 12-05-2016 10:10:00 17.3 C 68 % 11.34 C
700 12-05-2016 10:15:00 17.3 C 67 % 11.12 C
Sensor: Nr:Datum:Temp:Feuchte:Taupunkt:
Aussen-T/F 701 12-05-2016 10:20:00 17.5 C 69 % 11.75 C
702 12-05-2016 10:25:00 17.6 C 67 % 11.4 C
703 12-05-2016 10:30:00 17.7 C 66 % 11.27 C
704 12-05-2016 10:35:00 17.8 C 65 % 11.14 C
705 12-05-2016 10:40:00 17.9 C 65 % 11.23 C
706 12-05-2016 10:45:00 18.1 C 65 % 11.42 C
707 12-05-2016 10:50:00 18.1 C 64 % 11.19 C
708 12-05-2016 10:55:00 18.1 C 66 % 11.65 C
709 12-05-2016 11:00:00 18.1 C 65 % 11.42 C
710 12-05-2016 11:05:00 18.2 C 65 % 11.52 C
711 12-05-2016 11:10:00 18.2 C 65 % 11.52 C
712 12-05-2016 11:15:00 18.2 C 64 % 11.28 C
713 12-05-2016 11:20:00 18.3 C 65 % 11.61 C
714 12-05-2016 11:25:00 18.3 C 65 % 11.61 C
715 12-05-2016 11:30:00 18.3 C 65 % 11.61 C
716 12-05-2016 11:35:00 18.3 C 65 % 11.61 C
717 12-05-2016 11:40:00 18.2 C 65 % 11.52 C
718 12-05-2016 11:45:00 18.2 C 65 % 11.52 C
719 12-05-2016 11:50:00 18.2 C 67 % 11.98 C
720 12-05-2016 11:55:00 18.2 C 67 % 11.98 C
721 12-05-2016 12:00:00 18.2 C 66 % 11.75 C
722 12-05-2016 12:05:00 18.2 C 66 % 11.75 C
723 12-05-2016 12:10:00 18.4 C 66 % 11.94 C
724 12-05-2016 12:15:00 18.6 C 66 % 12.13 C
725 12-05-2016 12:20:00 18.9 C 65 % 12.18 C
Sensor: Nr:Datum:Temp:Feuchte:Taupunkt:
Aussen-T/F 726 12-05-2016 12:25:00 19.1 C 65 % 12.37 C
727 12-05-2016 12:30:00 19.1 C 64 % 12.14 C
728 12-05-2016 12:35:00 19.2 C 66 % 12.7 C
729 12-05-2016 12:40:00 19.5 C 64 % 12.51 C
730 12-05-2016 12:45:00 19.6 C 63 % 12.37 C
731 12-05-2016 12:50:00 19.6 C 63 % 12.37 C
732 12-05-2016 12:55:00 19.4 C 64 % 12.42 C
733 12-05-2016 13:00:00 19.6 C 64 % 12.61 C
734 12-05-2016 13:05:00 19.7 C 64 % 12.7 C
735 12-05-2016 13:10:00 19.9 C 64 % 12.89 C
736 12-05-2016 13:15:00 20.2 C 64 % 13.18 C
737 12-05-2016 13:20:00 20.3 C 62 % 12.79 C
738 12-05-2016 13:25:00 20.3 C 63 % 13.03 C
739 12-05-2016 13:30:00 20.2 C 62 % 12.69 C
740 12-05-2016 13:35:00 20.3 C 62 % 12.79 C
741 12-05-2016 13:40:00 20.4 C 64 % 13.37 C
742 12-05-2016 13:45:00 20.6 C 63 % 13.31 C
743 12-05-2016 13:50:00 20.6 C 63 % 13.31 C
744 12-05-2016 13:55:00 20.6 C 62 % 13.07 C
745 12-05-2016 14:00:00 20.6 C 63 % 13.31 C
746 12-05-2016 14:05:00 20.7 C 64 % 13.65 C
747 12-05-2016 14:10:00 20.8 C 62 % 13.26 C
748 12-05-2016 14:15:00 20.9 C 60 % 12.85 C
749 12-05-2016 14:20:00 20.8 C 60 % 12.76 C
750 12-05-2016 14:25:00 20.9 C 61 % 13.1 C
Sensor: Nr:Datum:Temp:Feuchte:Taupunkt:
Aussen-T/F 751 12-05-2016 14:30:00 20.9 C 60 % 12.85 C
752 12-05-2016 14:35:00 20.8 C 61 % 13.01 C
753 12-05-2016 14:40:00 20.7 C 61 % 12.91 C
754 12-05-2016 14:45:00 20.8 C 61 % 13.01 C
755 12-05-2016 14:50:00 20.9 C 60 % 12.85 C
756 12-05-2016 14:55:00 20.9 C 61 % 13.1 C
757 12-05-2016 15:00:00 21.1 C 60 % 13.04 C
758 12-05-2016 15:05:00 21.3 C 60 % 13.22 C
759 12-05-2016 15:10:00 21.6 C 59 % 13.25 C
760 12-05-2016 15:15:00 21.7 C 58 % 13.08 C
761 12-05-2016 15:20:00 21.7 C 58 % 13.08 C
762 12-05-2016 15:25:00 21.7 C 59 % 13.34 C
763 12-05-2016 15:30:00 21.8 C 59 % 13.44 C
764 12-05-2016 15:35:00 21.9 C 56 % 12.73 C
765 12-05-2016 15:40:00 21.9 C 57 % 13 C
766 12-05-2016 15:45:00 21.8 C 58 % 13.17 C
767 12-05-2016 15:50:00 21.7 C 58 % 13.08 C
768 12-05-2016 15:55:00 21.6 C 58 % 12.99 C
769 12-05-2016 16:00:00 21.6 C 59 % 13.25 C
770 12-05-2016 16:05:00 21.5 C 59 % 13.15 C
771 12-05-2016 16:10:00 21.6 C 60 % 13.51 C
772 12-05-2016 16:15:00 21.7 C 60 % 13.6 C
773 12-05-2016 16:20:00 21.7 C 58 % 13.08 C
774 12-05-2016 16:25:00 21.7 C 58 % 13.08 C
775 12-05-2016 16:30:00 21.6 C 58 % 12.99 C
Sensor: Nr:Datum:Temp:Feuchte:Taupunkt:
Aussen-T/F 776 12-05-2016 16:35:00 21.6 C 59 % 13.25 C
777 12-05-2016 16:40:00 21.6 C 58 % 12.99 C
778 12-05-2016 16:45:00 21.8 C 57 % 12.91 C
779 12-05-2016 16:50:00 22.2 C 57 % 13.28 C
780 12-05-2016 16:55:00 22.4 C 55 % 12.92 C
781 12-05-2016 17:00:00 22.8 C 54 % 13.01 C
782 12-05-2016 17:05:00 22.8 C 54 % 13.01 C
783 12-05-2016 17:10:00 22.7 C 54 % 12.92 C
784 12-05-2016 17:15:00 22.9 C 53 % 12.82 C
785 12-05-2016 17:20:00 22.9 C 54 % 13.1 C
786 12-05-2016 17:25:00 22.9 C 54 % 13.1 C
787 12-05-2016 17:30:00 22.8 C 53 % 12.73 C
788 12-05-2016 17:35:00 22.8 C 54 % 13.01 C
789 12-05-2016 17:40:00 22.8 C 56 % 13.57 C
790 12-05-2016 17:45:00 22.8 C 55 % 13.29 C
791 12-05-2016 17:50:00 22.7 C 55 % 13.2 C
792 12-05-2016 17:55:00 22.7 C 57 % 13.75 C
793 12-05-2016 18:00:00 22.7 C 54 % 12.92 C
794 12-05-2016 18:05:00 22.7 C 55 % 13.2 C
795 12-05-2016 18:10:00 22.7 C 54 % 12.92 C
796 12-05-2016 18:15:00 22.7 C 57 % 13.75 C
797 12-05-2016 18:20:00 22.6 C 54 % 12.83 C
798 12-05-2016 18:25:00 22.3 C 56 % 13.1 C
799 12-05-2016 18:30:00 22.1 C 57 % 13.19 C
800 12-05-2016 18:35:00 21.9 C 59 % 13.53 C
Sensor: Nr:Datum:Temp:Feuchte:Taupunkt:
Aussen-T/F 801 12-05-2016 18:40:00 21.9 C 58 % 13.27 C
802 12-05-2016 18:45:00 21.9 C 58 % 13.27 C
803 12-05-2016 18:50:00 21.9 C 58 % 13.27 C
804 12-05-2016 18:55:00 21.9 C 57 % 13 C
805 12-05-2016 19:00:00 22.2 C 57 % 13.28 C
806 12-05-2016 19:05:00 22.3 C 56 % 13.1 C
807 12-05-2016 19:10:00 22.5 C 56 % 13.29 C
808 12-05-2016 19:15:00 22.6 C 55 % 13.11 C
809 12-05-2016 19:20:00 22.4 C 55 % 12.92 C
810 12-05-2016 19:25:00 22.4 C 56 % 13.2 C
811 12-05-2016 19:30:00 22.4 C 62 % 14.76 C
812 12-05-2016 19:35:00 22.3 C 63 % 14.92 C
813 12-05-2016 19:40:00 22.2 C 61 % 14.32 C
814 12-05-2016 19:45:00 21.9 C 65 % 15.02 C
815 12-05-2016 19:50:00 21.6 C 64 % 14.5 C
816 12-05-2016 19:55:00 21.3 C 66 % 14.69 C
817 12-05-2016 20:00:00 20.9 C 67 % 14.55 C
818 12-05-2016 20:05:00 20.5 C 67 % 14.16 C
819 12-05-2016 20:10:00 20.1 C 67 % 13.78 C
820 12-05-2016 20:15:00 19.8 C 68 % 13.73 C
821 12-05-2016 20:20:00 19.6 C 70 % 13.98 C
822 12-05-2016 20:25:00 19.5 C 68 % 13.44 C
823 12-05-2016 20:30:00 19.4 C 69 % 13.57 C
824 12-05-2016 20:35:00 19.3 C 70 % 13.69 C
825 12-05-2016 20:40:00 19.3 C 72 % 14.13 C
Sensor: Nr:Datum:Temp:Feuchte:Taupunkt:
Aussen-T/F 826 12-05-2016 20:45:00 19.2 C 72 % 14.03 C
827 12-05-2016 20:50:00 18.9 C 73 % 13.96 C
828 12-05-2016 20:55:00 18.7 C 73 % 13.76 C
829 12-05-2016 21:00:00 18.4 C 74 % 13.68 C
830 12-05-2016 21:05:00 18.2 C 74 % 13.49 C
831 12-05-2016 21:10:00 18.1 C 75 % 13.6 C
832 12-05-2016 21:15:00 17.8 C 74 % 13.11 C
833 12-05-2016 21:20:00 17.7 C 75 % 13.22 C
834 12-05-2016 21:25:00 17.7 C 75 % 13.22 C
835 12-05-2016 21:30:00 17.6 C 75 % 13.12 C
836 12-05-2016 21:35:00 17.4 C 76 % 13.13 C
837 12-05-2016 21:40:00 17.4 C 76 % 13.13 C
838 12-05-2016 21:45:00 17.3 C 77 % 13.23 C
839 12-05-2016 21:50:00 17.2 C 77 % 13.14 C
840 12-05-2016 21:55:00 17.1 C 78 % 13.24 C
841 12-05-2016 22:00:00 16.9 C 78 % 13.04 C
842 12-05-2016 22:05:00 16.8 C 79 % 13.14 C
843 12-05-2016 22:10:00 16.7 C 79 % 13.04 C
844 12-05-2016 22:15:00 16.5 C 80 % 13.04 C
845 12-05-2016 22:20:00 16.4 C 80 % 12.94 C
846 12-05-2016 22:25:00 16.3 C 80 % 12.85 C
847 12-05-2016 22:30:00 16.2 C 81 % 12.94 C
848 12-05-2016 22:35:00 16.1 C 82 % 13.03 C
849 12-05-2016 22:40:00 16.1 C 81 % 12.84 C
850 12-05-2016 22:45:00 16.1 C 81 % 12.84 C
Sensor: Nr:Datum:Temp:Feuchte:Taupunkt:
Aussen-T/F 851 12-05-2016 22:50:00 16.1 C 81 % 12.84 C
852 12-05-2016 22:55:00 15.9 C 82 % 12.83 C
853 12-05-2016 23:00:00 15.8 C 82 % 12.74 C
854 12-05-2016 23:05:00 15.7 C 83 % 12.82 C
855 12-05-2016 23:10:00 15.6 C 83 % 12.72 C
856 12-05-2016 23:15:00 15.5 C 83 % 12.63 C
857 12-05-2016 23:20:00 15.3 C 83 % 12.43 C
858 12-05-2016 23:25:00 15.2 C 83 % 12.33 C
859 12-05-2016 23:30:00 15 C 84 % 12.32 C
860 12-05-2016 23:35:00 14.9 C 85 % 12.4 C
861 12-05-2016 23:40:00 14.8 C 85 % 12.3 C
862 12-05-2016 23:45:00 14.7 C 85 % 12.21 C
863 12-05-2016 23:50:00 14.6 C 86 % 12.29 C
864 12-05-2016 23:55:00 14.6 C 87 % 12.46 C
865 13-05-2016 00:00:00 14.6 C 87 % 12.46 C
866 13-05-2016 00:05:00 14.6 C 88 % 12.64 C
867 13-05-2016 00:10:00 14.6 C 87 % 12.46 C
868 13-05-2016 00:15:00 14.4 C 87 % 12.27 C
869 13-05-2016 00:20:00 14.3 C 87 % 12.17 C
870 13-05-2016 00:25:00 14.2 C 87 % 12.07 C
871 13-05-2016 00:30:00 14.1 C 87 % 11.97 C
872 13-05-2016 00:35:00 13.9 C 88 % 11.95 C
873 13-05-2016 00:40:00 13.8 C 88 % 11.85 C
874 13-05-2016 00:45:00 13.7 C 89 % 11.92 C
875 13-05-2016 00:50:00 13.7 C 89 % 11.92 C
Sensor: Nr:Datum:Temp:Feuchte:Taupunkt:
Aussen-T/F 876 13-05-2016 00:55:00 13.6 C 89 % 11.82 C
877 13-05-2016 01:00:00 13.5 C 90 % 11.89 C
878 13-05-2016 01:05:00 13.4 C 89 % 11.63 C
879 13-05-2016 01:10:00 13.3 C 89 % 11.53 C
880 13-05-2016 01:15:00 13.2 C 90 % 11.6 C
881 13-05-2016 01:20:00 13.2 C 90 % 11.6 C
882 13-05-2016 01:25:00 13.1 C 90 % 11.5 C
883 13-05-2016 01:30:00 12.9 C 90 % 11.3 C
884 13-05-2016 01:35:00 12.8 C 90 % 11.2 C
885 13-05-2016 01:40:00 12.8 C 90 % 11.2 C
886 13-05-2016 01:45:00 12.8 C 90 % 11.2 C
887 13-05-2016 01:50:00 12.7 C 90 % 11.1 C
888 13-05-2016 01:55:00 12.6 C 90 % 11 C
889 13-05-2016 02:00:00 12.5 C 91 % 11.07 C
890 13-05-2016 02:05:00 12.5 C 91 % 11.07 C
891 13-05-2016 02:10:00 12.4 C 91 % 10.97 C
892 13-05-2016 02:15:00 12.4 C 91 % 10.97 C
893 13-05-2016 02:20:00 12.4 C 91 % 10.97 C
894 13-05-2016 02:25:00 12.3 C 91 % 10.87 C
895 13-05-2016 02:30:00 12.2 C 91 % 10.78 C
896 13-05-2016 02:35:00 12.2 C 91 % 10.78 C
897 13-05-2016 02:40:00 12.1 C 91 % 10.68 C
898 13-05-2016 02:45:00 12.1 C 92 % 10.84 C
899 13-05-2016 02:50:00 12.1 C 92 % 10.84 C
900 13-05-2016 02:55:00 12.1 C 92 % 10.84 C
Sensor: Nr:Datum:Temp:Feuchte:Taupunkt:
Aussen-T/F 901 13-05-2016 03:00:00 12 C 92 % 10.74 C
902 13-05-2016 03:05:00 11.9 C 92 % 10.64 C
903 13-05-2016 03:10:00 11.8 C 92 % 10.54 C
904 13-05-2016 03:15:00 11.8 C 92 % 10.54 C
905 13-05-2016 03:20:00 11.8 C 92 % 10.54 C
906 13-05-2016 03:25:00 11.9 C 92 % 10.64 C
907 13-05-2016 03:30:00 11.9 C 93 % 10.81 C
908 13-05-2016 03:35:00 11.9 C 93 % 10.81 C
909 13-05-2016 03:40:00 11.9 C 93 % 10.81 C
910 13-05-2016 03:45:00 11.9 C 93 % 10.81 C
911 13-05-2016 03:50:00 12 C 93 % 10.9 C
912 13-05-2016 03:55:00 12 C 93 % 10.9 C
913 13-05-2016 04:00:00 12 C 93 % 10.9 C
914 13-05-2016 04:05:00 12.1 C 93 % 11 C
915 13-05-2016 04:10:00 12.1 C 93 % 11 C
916 13-05-2016 04:15:00 12.1 C 93 % 11 C
917 13-05-2016 04:20:00 12.1 C 93 % 11 C
918 13-05-2016 04:25:00 12.1 C 93 % 11 C
919 13-05-2016 04:30:00 12 C 93 % 10.9 C
920 13-05-2016 04:35:00 11.9 C 93 % 10.81 C
921 13-05-2016 04:40:00 11.9 C 93 % 10.81 C
922 13-05-2016 04:45:00 11.8 C 93 % 10.71 C
923 13-05-2016 04:50:00 11.7 C 93 % 10.61 C
924 13-05-2016 04:55:00 11.6 C 93 % 10.51 C
925 13-05-2016 05:00:00 11.6 C 93 % 10.51 C
Sensor: Nr:Datum:Temp:Feuchte:Taupunkt:
Aussen-T/F 926 13-05-2016 05:05:00 11.6 C 93 % 10.51 C
927 13-05-2016 05:10:00 11.6 C 93 % 10.51 C
928 13-05-2016 05:15:00 11.6 C 93 % 10.51 C
929 13-05-2016 05:20:00 11.6 C 93 % 10.51 C
930 13-05-2016 05:25:00 11.4 C 93 % 10.31 C
931 13-05-2016 05:30:00 11.3 C 93 % 10.21 C
932 13-05-2016 05:35:00 11.2 C 93 % 10.11 C
933 13-05-2016 05:40:00 11.1 C 93 % 10.01 C
934 13-05-2016 05:45:00 11.1 C 93 % 10.01 C
935 13-05-2016 05:50:00 10.9 C 93 % 9.81 C
936 13-05-2016 05:55:00 11 C 94 % 10.07 C
937 13-05-2016 06:00:00 11 C 94 % 10.07 C
938 13-05-2016 06:05:00 11.1 C 94 % 10.17 C
939 13-05-2016 06:10:00 11.1 C 94 % 10.17 C
940 13-05-2016 06:15:00 11.2 C 94 % 10.27 C
941 13-05-2016 06:20:00 11.3 C 94 % 10.37 C
942 13-05-2016 06:25:00 11.3 C 95 % 10.53 C
943 13-05-2016 06:30:00 11.4 C 95 % 10.63 C
944 13-05-2016 06:35:00 11.4 C 95 % 10.63 C
945 13-05-2016 06:40:00 11.5 C 95 % 10.73 C
946 13-05-2016 06:45:00 11.6 C 95 % 10.83 C
947 13-05-2016 06:50:00 11.7 C 95 % 10.93 C
948 13-05-2016 06:55:00 11.8 C 95 % 11.03 C
949 13-05-2016 07:00:00 11.9 C 95 % 11.13 C
950 13-05-2016 07:05:00 12 C 95 % 11.22 C
Sensor: Nr:Datum:Temp:Feuchte:Taupunkt:
Aussen-T/F 951 13-05-2016 07:10:00 12.1 C 95 % 11.32 C
952 13-05-2016 07:15:00 12.1 C 95 % 11.32 C
953 13-05-2016 07:20:00 12.2 C 95 % 11.42 C
954 13-05-2016 07:25:00 12.2 C 95 % 11.42 C
955 13-05-2016 07:30:00 12.3 C 95 % 11.52 C
956 13-05-2016 07:35:00 12.3 C 95 % 11.52 C
957 13-05-2016 07:40:00 12.4 C 95 % 11.62 C
958 13-05-2016 07:45:00 12.4 C 95 % 11.62 C
959 13-05-2016 07:50:00 12.6 C 95 % 11.82 C
960 13-05-2016 07:55:00 12.7 C 95 % 11.92 C
961 13-05-2016 08:00:00 12.8 C 95 % 12.02 C
962 13-05-2016 08:05:00 12.8 C 95 % 12.02 C
963 13-05-2016 08:10:00 12.9 C 95 % 12.12 C
964 13-05-2016 08:15:00 12.8 C 95 % 12.02 C
965 13-05-2016 08:20:00 12.9 C 95 % 12.12 C
966 13-05-2016 08:25:00 12.9 C 95 % 12.12 C
967 13-05-2016 08:30:00 13.1 C 95 % 12.32 C
968 13-05-2016 08:35:00 13.1 C 95 % 12.32 C
969 13-05-2016 08:40:00 13.2 C 95 % 12.42 C
970 13-05-2016 08:45:00 13.2 C 95 % 12.42 C
971 13-05-2016 08:50:00 13.3 C 94 % 12.36 C
972 13-05-2016 08:55:00 13.3 C 94 % 12.36 C
973 13-05-2016 09:00:00 13.4 C 94 % 12.45 C
974 13-05-2016 09:05:00 13.4 C 94 % 12.45 C
975 13-05-2016 09:10:00 13.6 C 94 % 12.65 C
Sensor: Nr:Datum:Temp:Feuchte:Taupunkt:
Aussen-T/F 976 13-05-2016 09:15:00 13.7 C 94 % 12.75 C
977 13-05-2016 09:20:00 13.7 C 94 % 12.75 C
978 13-05-2016 09:25:00 13.9 C 94 % 12.95 C
979 13-05-2016 09:30:00 14 C 94 % 13.05 C
980 13-05-2016 09:35:00 14.1 C 93 % 12.99 C
981 13-05-2016 09:40:00 14.2 C 93 % 13.08 C
982 13-05-2016 09:45:00 14.3 C 92 % 13.02 C
983 13-05-2016 09:50:00 14.5 C 91 % 13.05 C
984 13-05-2016 09:55:00 14.7 C 91 % 13.25 C
985 13-05-2016 10:00:00 14.9 C 88 % 12.93 C
986 13-05-2016 10:05:00 15.2 C 87 % 13.05 C
987 13-05-2016 10:10:00 15.4 C 88 % 13.42 C
988 13-05-2016 10:15:00 15.6 C 83 % 12.72 C
989 13-05-2016 10:20:00 15.8 C 85 % 13.28 C
990 13-05-2016 10:25:00 16.1 C 83 % 13.21 C
991 13-05-2016 10:30:00 16.5 C 82 % 13.42 C
992 13-05-2016 10:35:00 16.8 C 79 % 13.14 C
993 13-05-2016 10:40:00 17.1 C 77 % 13.04 C
994 13-05-2016 10:45:00 17.4 C 77 % 13.33 C
995 13-05-2016 10:50:00 17.7 C 74 % 13.01 C
996 13-05-2016 10:55:00 18 C 72 % 12.88 C
997 13-05-2016 11:00:00 18.2 C 73 % 13.28 C
998 13-05-2016 11:05:00 18.3 C 75 % 13.79 C
999 13-05-2016 11:10:00 18.4 C 73 % 13.48 C
1000 13-05-2016 11:15:00 18.6 C 71 % 13.24 C
Sensor: Nr:Datum:Temp:Feuchte:Taupunkt:
Aussen-T/F 1001 13-05-2016 11:20:00 18.8 C 69 % 13 C
1002 13-05-2016 11:25:00 19 C 69 % 13.19 C
1003 13-05-2016 11:30:00 19.2 C 69 % 13.38 C
1004 13-05-2016 11:35:00 19.3 C 69 % 13.47 C
1005 13-05-2016 11:40:00 19.5 C 69 % 13.66 C
1006 13-05-2016 11:45:00 19.7 C 70 % 14.08 C
1007 13-05-2016 11:50:00 19.8 C 68 % 13.73 C
1008 13-05-2016 11:55:00 20.1 C 66 % 13.55 C
1009 13-05-2016 12:00:00 20.4 C 63 % 13.12 C
1010 13-05-2016 12:05:00 20.6 C 63 % 13.31 C
1011 13-05-2016 12:10:00 20.8 C 64 % 13.74 C
1012 13-05-2016 12:15:00 20.9 C 62 % 13.35 C
1013 13-05-2016 12:20:00 21.1 C 60 % 13.04 C
1014 13-05-2016 12:25:00 21.1 C 62 % 13.54 C
1015 13-05-2016 12:30:00 21 C 64 % 13.93 C
1016 13-05-2016 12:35:00 20.9 C 63 % 13.6 C
1017 13-05-2016 12:40:00 20.9 C 66 % 14.31 C
1018 13-05-2016 12:45:00 20.8 C 70 % 15.13 C
1019 13-05-2016 12:50:00 20.5 C 75 % 15.92 C
1020 13-05-2016 12:55:00 20.2 C 74 % 15.42 C
1021 13-05-2016 13:00:00 19.9 C 73 % 14.92 C
1022 13-05-2016 13:05:00 19.8 C 70 % 14.17 C
1023 13-05-2016 13:10:00 19.6 C 74 % 14.84 C
1024 13-05-2016 13:15:00 19.2 C 72 % 14.03 C
1025 13-05-2016 13:20:00 18 C 75 % 13.51 C
Sensor: Nr:Datum:Temp:Feuchte:Taupunkt:
Aussen-T/F 1026 13-05-2016 13:25:00 17.1 C 82 % 14 C
1027 13-05-2016 13:30:00 16.2 C 84 % 13.5 C
1028 13-05-2016 13:35:00 15.7 C 87 % 13.54 C
1029 13-05-2016 13:40:00 15.3 C 89 % 13.5 C
1030 13-05-2016 13:45:00 14.9 C 90 % 13.28 C
1031 13-05-2016 13:50:00 14.7 C 91 % 13.25 C
1032 13-05-2016 13:55:00 14.6 C 91 % 13.15 C
1033 13-05-2016 14:00:00 14.5 C 92 % 13.22 C
1034 13-05-2016 14:05:00 14.4 C 92 % 13.12 C
1035 13-05-2016 14:10:00 14.3 C 92 % 13.02 C
1036 13-05-2016 14:15:00 14.2 C 92 % 12.92 C
1037 13-05-2016 14:20:00 14.1 C 92 % 12.82 C
1038 13-05-2016 14:25:00 13.9 C 93 % 12.79 C
1039 13-05-2016 14:30:00 13.8 C 93 % 12.69 C
1040 13-05-2016 14:35:00 13.7 C 93 % 12.59 C
1041 13-05-2016 14:40:00 13.6 C 93 % 12.49 C
1042 13-05-2016 14:45:00 13.6 C 93 % 12.49 C
1043 13-05-2016 14:50:00 13.5 C 94 % 12.55 C
1044 13-05-2016 14:55:00 13.4 C 94 % 12.45 C
1045 13-05-2016 15:00:00 13.3 C 94 % 12.36 C
1046 13-05-2016 15:05:00 13.3 C 94 % 12.36 C
1047 13-05-2016 15:10:00 13.3 C 94 % 12.36 C
1048 13-05-2016 15:15:00 13.2 C 94 % 12.26 C
1049 13-05-2016 15:20:00 13.2 C 94 % 12.26 C
1050 13-05-2016 15:25:00 13.2 C 95 % 12.42 C
Sensor: Nr:Datum:Temp:Feuchte:Taupunkt:
Aussen-T/F 1051 13-05-2016 15:30:00 13.2 C 95 % 12.42 C
1052 13-05-2016 15:35:00 13.3 C 95 % 12.52 C
1053 13-05-2016 15:40:00 13.3 C 95 % 12.52 C
1054 13-05-2016 15:45:00 13.3 C 95 % 12.52 C
1055 13-05-2016 15:50:00 13.3 C 95 % 12.52 C
1056 13-05-2016 15:55:00 13.3 C 95 % 12.52 C
1057 13-05-2016 16:00:00 13.3 C 95 % 12.52 C
1058 13-05-2016 16:05:00 13.4 C 95 % 12.62 C
1059 13-05-2016 16:10:00 13.6 C 95 % 12.81 C
1060 13-05-2016 16:15:00 13.7 C 96 % 13.07 C
1061 13-05-2016 16:20:00 13.8 C 96 % 13.17 C
1062 13-05-2016 16:25:00 13.9 C 96 % 13.27 C
1063 13-05-2016 16:30:00 14 C 96 % 13.37 C
1064 13-05-2016 16:35:00 14.2 C 96 % 13.57 C
1065 13-05-2016 16:40:00 14.4 C 96 % 13.77 C
1066 13-05-2016 16:45:00 14.7 C 96 % 14.07 C
1067 13-05-2016 16:50:00 14.8 C 96 % 14.17 C
1068 13-05-2016 16:55:00 14.7 C 96 % 14.07 C
1069 13-05-2016 17:00:00 14.6 C 95 % 13.81 C
1070 13-05-2016 17:05:00 14.7 C 96 % 14.07 C
1071 13-05-2016 17:10:00 14.9 C 96 % 14.27 C
1072 13-05-2016 17:15:00 15.1 C 96 % 14.47 C
1073 13-05-2016 17:20:00 15.3 C 96 % 14.67 C
1074 13-05-2016 17:25:00 15.3 C 96 % 14.67 C
1075 13-05-2016 17:30:00 15.2 C 95 % 14.4 C
Sensor: Nr:Datum:Temp:Feuchte:Taupunkt:
Aussen-T/F 1076 13-05-2016 17:35:00 15.2 C 95 % 14.4 C
1077 13-05-2016 17:40:00 15.3 C 95 % 14.5 C
1078 13-05-2016 17:45:00 15.4 C 95 % 14.6 C
1079 13-05-2016 17:50:00 15.6 C 95 % 14.8 C
1080 13-05-2016 17:55:00 15.7 C 95 % 14.9 C
1081 13-05-2016 18:00:00 15.7 C 95 % 14.9 C
1082 13-05-2016 18:05:00 15.9 C 95 % 15.1 C
1083 13-05-2016 18:10:00 15.9 C 94 % 14.94 C
1084 13-05-2016 18:15:00 15.9 C 92 % 14.6 C
1085 13-05-2016 18:20:00 16.2 C 92 % 14.9 C
1086 13-05-2016 18:25:00 16.5 C 90 % 14.85 C
1087 13-05-2016 18:30:00 16.7 C 87 % 14.53 C
1088 13-05-2016 18:35:00 16.8 C 87 % 14.62 C
1089 13-05-2016 18:40:00 17 C 86 % 14.64 C
1090 13-05-2016 18:45:00 17.3 C 85 % 14.76 C
1091 13-05-2016 18:50:00 17.4 C 83 % 14.48 C
1092 13-05-2016 18:55:00 17.7 C 81 % 14.4 C
1093 13-05-2016 19:00:00 18.1 C 84 % 15.35 C
1094 13-05-2016 19:05:00 18.4 C 89 % 16.55 C
1095 13-05-2016 19:10:00 18.7 C 88 % 16.67 C
1096 13-05-2016 19:15:00 18.6 C 87 % 16.39 C
1097 13-05-2016 19:20:00 18.5 C 86 % 16.11 C
1098 13-05-2016 19:25:00 18.3 C 87 % 16.1 C
1099 13-05-2016 19:30:00 18.3 C 87 % 16.1 C
1100 13-05-2016 19:35:00 18.1 C 87 % 15.9 C
Sensor: Nr:Datum:Temp:Feuchte:Taupunkt:
Aussen-T/F 1101 13-05-2016 19:40:00 17.8 C 87 % 15.61 C
1102 13-05-2016 19:45:00 17.6 C 88 % 15.59 C
1103 13-05-2016 19:50:00 17.4 C 88 % 15.39 C
1104 13-05-2016 19:55:00 17.1 C 88 % 15.1 C
1105 13-05-2016 20:00:00 16.9 C 89 % 15.08 C
1106 13-05-2016 20:05:00 16.8 C 89 % 14.98 C
1107 13-05-2016 20:10:00 16.6 C 89 % 14.78 C
1108 13-05-2016 20:15:00 16.4 C 89 % 14.58 C
1109 13-05-2016 20:20:00 16.2 C 90 % 14.56 C
1110 13-05-2016 20:25:00 16 C 90 % 14.36 C
1111 13-05-2016 20:30:00 15.8 C 90 % 14.16 C
1112 13-05-2016 20:35:00 15.4 C 90 % 13.77 C
1113 13-05-2016 20:40:00 15.2 C 90 % 13.57 C
1114 13-05-2016 20:45:00 15 C 91 % 13.54 C
1115 13-05-2016 20:50:00 14.8 C 91 % 13.35 C
1116 13-05-2016 20:55:00 14.6 C 91 % 13.15 C
1117 13-05-2016 21:00:00 14.3 C 91 % 12.85 C
1118 13-05-2016 21:05:00 14.1 C 92 % 12.82 C
1119 13-05-2016 21:10:00 13.9 C 92 % 12.62 C
1120 13-05-2016 21:15:00 13.8 C 92 % 12.52 C
1121 13-05-2016 21:20:00 13.6 C 93 % 12.49 C
1122 13-05-2016 21:25:00 13.5 C 93 % 12.39 C
1123 13-05-2016 21:30:00 13.4 C 93 % 12.29 C
1124 13-05-2016 21:35:00 13.3 C 93 % 12.19 C
1125 13-05-2016 21:40:00 13.2 C 93 % 12.09 C
Sensor: Nr:Datum:Temp:Feuchte:Taupunkt:
Aussen-T/F 1126 13-05-2016 21:45:00 13.2 C 94 % 12.26 C
1127 13-05-2016 21:50:00 13.2 C 94 % 12.26 C
1128 13-05-2016 21:55:00 13.1 C 94 % 12.16 C
1129 13-05-2016 22:00:00 13.1 C 94 % 12.16 C
1130 13-05-2016 22:05:00 13.1 C 94 % 12.16 C
1131 13-05-2016 22:10:00 13.1 C 94 % 12.16 C
1132 13-05-2016 22:15:00 12.9 C 94 % 11.96 C
1133 13-05-2016 22:20:00 12.9 C 94 % 11.96 C
1134 13-05-2016 22:25:00 12.8 C 94 % 11.86 C
1135 13-05-2016 22:30:00 12.7 C 95 % 11.92 C
1136 13-05-2016 22:35:00 12.7 C 95 % 11.92 C
1137 13-05-2016 22:40:00 12.7 C 95 % 11.92 C
1138 13-05-2016 22:45:00 12.6 C 95 % 11.82 C
1139 13-05-2016 22:50:00 12.6 C 95 % 11.82 C
1140 13-05-2016 22:55:00 12.4 C 95 % 11.62 C
1141 13-05-2016 23:00:00 12.2 C 94 % 11.26 C
1142 13-05-2016 23:05:00 12.1 C 95 % 11.32 C
1143 13-05-2016 23:10:00 12.1 C 95 % 11.32 C
1144 13-05-2016 23:15:00 12 C 95 % 11.22 C
1145 13-05-2016 23:20:00 11.9 C 95 % 11.13 C
1146 13-05-2016 23:25:00 11.8 C 95 % 11.03 C
1147 13-05-2016 23:30:00 11.8 C 95 % 11.03 C
1148 13-05-2016 23:35:00 11.7 C 95 % 10.93 C
1149 13-05-2016 23:40:00 11.7 C 95 % 10.93 C
1150 13-05-2016 23:45:00 11.7 C 95 % 10.93 C
Sensor: Nr:Datum:Temp:Feuchte:Taupunkt:
Aussen-T/F 1151 13-05-2016 23:50:00 11.7 C 95 % 10.93 C
1152 13-05-2016 23:55:00 11.6 C 96 % 10.98 C
1153 14-05-2016 00:00:00 11.6 C 96 % 10.98 C
1154 14-05-2016 00:05:00 11.6 C 96 % 10.98 C
1155 14-05-2016 00:10:00 11.6 C 96 % 10.98 C
1156 14-05-2016 00:15:00 11.4 C 95 % 10.63 C
1157 14-05-2016 00:20:00 11.4 C 96 % 10.79 C
1158 14-05-2016 00:25:00 11.3 C 96 % 10.69 C
1159 14-05-2016 00:30:00 11.2 C 96 % 10.59 C
1160 14-05-2016 00:35:00 11.2 C 95 % 10.43 C
1161 14-05-2016 00:40:00 11.1 C 96 % 10.49 C
1162 14-05-2016 00:45:00 11.1 C 96 % 10.49 C
1163 14-05-2016 00:50:00 11 C 96 % 10.39 C
1164 14-05-2016 00:55:00 10.9 C 96 % 10.29 C
1165 14-05-2016 01:00:00 10.8 C 95 % 10.03 C
1166 14-05-2016 01:05:00 10.7 C 96 % 10.09 C
1167 14-05-2016 01:10:00 10.7 C 96 % 10.09 C
1168 14-05-2016 01:15:00 10.7 C 96 % 10.09 C
1169 14-05-2016 01:20:00 10.7 C 96 % 10.09 C
1170 14-05-2016 01:25:00 10.7 C 96 % 10.09 C
1171 14-05-2016 01:30:00 10.7 C 96 % 10.09 C
1172 14-05-2016 01:35:00 10.7 C 96 % 10.09 C
1173 14-05-2016 01:40:00 10.7 C 96 % 10.09 C
1174 14-05-2016 01:45:00 10.7 C 96 % 10.09 C
1175 14-05-2016 01:50:00 10.6 C 96 % 9.99 C
Sensor: Nr:Datum:Temp:Feuchte:Taupunkt:
Aussen-T/F 1176 14-05-2016 01:55:00 10.6 C 96 % 9.99 C
1177 14-05-2016 02:00:00 10.6 C 96 % 9.99 C
1178 14-05-2016 02:05:00 10.6 C 96 % 9.99 C
1179 14-05-2016 02:10:00 10.6 C 96 % 9.99 C
1180 14-05-2016 02:15:00 10.6 C 96 % 9.99 C
1181 14-05-2016 02:20:00 10.5 C 96 % 9.89 C
1182 14-05-2016 02:25:00 10.5 C 96 % 9.89 C
1183 14-05-2016 02:30:00 10.6 C 96 % 9.99 C
1184 14-05-2016 02:35:00 10.6 C 96 % 9.99 C
1185 14-05-2016 02:40:00 10.5 C 96 % 9.89 C
1186 14-05-2016 02:45:00 10.5 C 96 % 9.89 C
1187 14-05-2016 02:50:00 10.6 C 96 % 9.99 C
1188 14-05-2016 02:55:00 10.6 C 96 % 9.99 C
1189 14-05-2016 03:00:00 10.6 C 96 % 9.99 C
1190 14-05-2016 03:05:00 10.5 C 95 % 9.73 C
1191 14-05-2016 03:10:00 10.4 C 95 % 9.63 C
1192 14-05-2016 03:15:00 10.3 C 94 % 9.38 C
1193 14-05-2016 03:20:00 10.3 C 93 % 9.22 C
1194 14-05-2016 03:25:00 10.3 C 93 % 9.22 C
1195 14-05-2016 03:30:00 10.2 C 93 % 9.12 C
1196 14-05-2016 03:35:00 10.1 C 92 % 8.86 C
1197 14-05-2016 03:40:00 10 C 91 % 8.6 C
1198 14-05-2016 03:45:00 10.1 C 91 % 8.7 C
1199 14-05-2016 03:50:00 10.1 C 91 % 8.7 C
1200 14-05-2016 03:55:00 10 C 91 % 8.6 C
Sensor: Nr:Datum:Temp:Feuchte:Taupunkt:
Aussen-T/F 1201 14-05-2016 04:00:00 9.9 C 89 % 8.17 C
1202 14-05-2016 04:05:00 10.1 C 89 % 8.37 C
1203 14-05-2016 04:10:00 10.1 C 87 % 8.04 C
1204 14-05-2016 04:15:00 10.1 C 87 % 8.04 C
1205 14-05-2016 04:20:00 10.1 C 87 % 8.04 C
1206 14-05-2016 04:25:00 10.1 C 86 % 7.87 C
1207 14-05-2016 04:30:00 10 C 86 % 7.77 C
1208 14-05-2016 04:35:00 9.9 C 88 % 8.01 C
1209 14-05-2016 04:40:00 9.8 C 86 % 7.57 C
1210 14-05-2016 04:45:00 9.9 C 85 % 7.5 C
1211 14-05-2016 04:50:00 9.9 C 85 % 7.5 C
1212 14-05-2016 04:55:00 9.9 C 85 % 7.5 C
1213 14-05-2016 05:00:00 9.8 C 85 % 7.4 C
1214 14-05-2016 05:05:00 9.8 C 85 % 7.4 C
1215 14-05-2016 05:10:00 9.7 C 85 % 7.3 C
1216 14-05-2016 05:15:00 9.7 C 86 % 7.47 C
1217 14-05-2016 05:20:00 9.6 C 86 % 7.38 C
1218 14-05-2016 05:25:00 9.6 C 85 % 7.21 C
1219 14-05-2016 05:30:00 9.6 C 86 % 7.38 C
1220 14-05-2016 05:35:00 9.5 C 86 % 7.28 C
1221 14-05-2016 05:40:00 9.4 C 86 % 7.18 C
1222 14-05-2016 05:45:00 9.4 C 86 % 7.18 C
1223 14-05-2016 05:50:00 9.4 C 86 % 7.18 C
1224 14-05-2016 05:55:00 9.3 C 87 % 7.25 C
1225 14-05-2016 06:00:00 9.3 C 86 % 7.08 C
Sensor: Nr:Datum:Temp:Feuchte:Taupunkt:
Aussen-T/F 1226 14-05-2016 06:05:00 9.3 C 86 % 7.08 C
1227 14-05-2016 06:10:00 9.3 C 87 % 7.25 C
1228 14-05-2016 06:15:00 9.3 C 86 % 7.08 C
1229 14-05-2016 06:20:00 9.3 C 85 % 6.91 C
1230 14-05-2016 06:25:00 9.3 C 85 % 6.91 C
1231 14-05-2016 06:30:00 9.4 C 85 % 7.01 C
1232 14-05-2016 06:35:00 9.3 C 85 % 6.91 C
1233 14-05-2016 06:40:00 9.3 C 85 % 6.91 C
1234 14-05-2016 06:45:00 9.3 C 84 % 6.74 C
1235 14-05-2016 06:50:00 9.3 C 85 % 6.91 C
1236 14-05-2016 06:55:00 9.3 C 84 % 6.74 C
1237 14-05-2016 07:00:00 9.3 C 84 % 6.74 C
1238 14-05-2016 07:05:00 9.2 C 83 % 6.47 C
1239 14-05-2016 07:10:00 9.2 C 81 % 6.11 C
1240 14-05-2016 07:15:00 9.2 C 81 % 6.11 C
1241 14-05-2016 07:20:00 9.2 C 81 % 6.11 C
1242 14-05-2016 07:25:00 9.2 C 82 % 6.29 C
1243 14-05-2016 07:30:00 9.2 C 82 % 6.29 C
1244 14-05-2016 07:35:00 9.2 C 83 % 6.47 C
1245 14-05-2016 07:40:00 9.2 C 83 % 6.47 C
1246 14-05-2016 07:45:00 9.2 C 84 % 6.64 C
1247 14-05-2016 07:50:00 9.1 C 83 % 6.37 C
1248 14-05-2016 07:55:00 9.1 C 83 % 6.37 C
1249 14-05-2016 08:00:00 9 C 83 % 6.27 C
1250 14-05-2016 08:05:00 9 C 84 % 6.45 C
Sensor: Nr:Datum:Temp:Feuchte:Taupunkt:
Aussen-T/F 1251 14-05-2016 08:10:00 9 C 84 % 6.45 C
1252 14-05-2016 08:15:00 9 C 83 % 6.27 C
1253 14-05-2016 08:20:00 9.1 C 83 % 6.37 C
1254 14-05-2016 08:25:00 9.1 C 84 % 6.54 C
1255 14-05-2016 08:30:00 9.1 C 83 % 6.37 C
1256 14-05-2016 08:35:00 9.1 C 83 % 6.37 C
1257 14-05-2016 08:40:00 9.1 C 84 % 6.54 C
1258 14-05-2016 08:45:00 9.2 C 83 % 6.47 C
1259 14-05-2016 08:50:00 9.2 C 82 % 6.29 C
1260 14-05-2016 08:55:00 9.2 C 81 % 6.11 C
1261 14-05-2016 09:00:00 9.2 C 81 % 6.11 C
1262 14-05-2016 09:05:00 9.2 C 80 % 5.94 C
1263 14-05-2016 09:10:00 9.2 C 80 % 5.94 C
1264 14-05-2016 09:15:00 9.2 C 79 % 5.75 C
1265 14-05-2016 09:20:00 9.2 C 78 % 5.57 C
1266 14-05-2016 09:25:00 9.2 C 78 % 5.57 C
1267 14-05-2016 09:30:00 9.3 C 78 % 5.67 C
1268 14-05-2016 09:35:00 9.3 C 78 % 5.67 C
1269 14-05-2016 09:40:00 9.4 C 76 % 5.39 C
1270 14-05-2016 09:45:00 9.5 C 75 % 5.3 C
1271 14-05-2016 09:50:00 9.6 C 74 % 5.2 C
1272 14-05-2016 09:55:00 9.7 C 73 % 5.1 C
1273 14-05-2016 10:00:00 9.8 C 71 % 4.8 C
1274 14-05-2016 10:05:00 9.8 C 68 % 4.18 C
1275 14-05-2016 10:10:00 9.8 C 69 % 4.39 C
Sensor: Nr:Datum:Temp:Feuchte:Taupunkt:
Aussen-T/F 1276 14-05-2016 10:15:00 9.8 C 68 % 4.18 C
1277 14-05-2016 10:20:00 9.8 C 70 % 4.6 C
1278 14-05-2016 10:25:00 9.8 C 69 % 4.39 C
1279 14-05-2016 10:30:00 9.8 C 68 % 4.18 C
1280 14-05-2016 10:35:00 9.8 C 68 % 4.18 C
1281 14-05-2016 10:40:00 9.8 C 67 % 3.97 C
1282 14-05-2016 10:45:00 9.8 C 66 % 3.76 C
1283 14-05-2016 10:50:00 9.9 C 65 % 3.64 C
1284 14-05-2016 10:55:00 9.9 C 64 % 3.42 C
1285 14-05-2016 11:00:00 10.1 C 63 % 3.39 C
1286 14-05-2016 11:05:00 10.2 C 60 % 2.79 C
1287 14-05-2016 11:10:00 10.3 C 61 % 3.12 C
1288 14-05-2016 11:15:00 10.6 C 63 % 3.86 C
1289 14-05-2016 11:20:00 10.8 C 60 % 3.36 C
1290 14-05-2016 11:25:00 10.8 C 59 % 3.12 C
1291 14-05-2016 11:30:00 10.8 C 61 % 3.59 C
1292 14-05-2016 11:35:00 10.9 C 59 % 3.21 C
1293 14-05-2016 11:40:00 11 C 59 % 3.31 C
1294 14-05-2016 11:45:00 11.1 C 58 % 3.16 C
1295 14-05-2016 11:50:00 11.2 C 57 % 3.01 C
1296 14-05-2016 11:55:00 11.2 C 57 % 3.01 C
1297 14-05-2016 12:00:00 11.1 C 55 % 2.41 C
1298 14-05-2016 12:05:00 10.9 C 57 % 2.73 C
1299 14-05-2016 12:10:00 11.1 C 59 % 3.4 C
1300 14-05-2016 12:15:00 11.2 C 58 % 3.25 C
Sensor: Nr:Datum:Temp:Feuchte:Taupunkt:
Aussen-T/F 1301 14-05-2016 12:20:00 11.3 C 59 % 3.59 C
1302 14-05-2016 12:25:00 11.3 C 57 % 3.1 C
1303 14-05-2016 12:30:00 11.3 C 58 % 3.35 C
1304 14-05-2016 12:35:00 11.3 C 55 % 2.6 C
1305 14-05-2016 12:40:00 11.3 C 57 % 3.1 C
1306 14-05-2016 12:45:00 11.2 C 58 % 3.25 C
1307 14-05-2016 12:50:00 11.3 C 59 % 3.59 C
1308 14-05-2016 12:55:00 11.5 C 58 % 3.54 C
1309 14-05-2016 13:00:00 11.6 C 58 % 3.63 C
1310 14-05-2016 13:05:00 11.6 C 58 % 3.63 C
1311 14-05-2016 13:10:00 11.5 C 56 % 3.04 C
1312 14-05-2016 13:15:00 11.4 C 58 % 3.44 C
1313 14-05-2016 13:20:00 11.6 C 58 % 3.63 C
1314 14-05-2016 13:25:00 11.7 C 56 % 3.23 C
1315 14-05-2016 13:30:00 11.8 C 57 % 3.57 C
1316 14-05-2016 13:35:00 11.7 C 58 % 3.72 C
1317 14-05-2016 13:40:00 11.7 C 58 % 3.72 C
1318 14-05-2016 13:45:00 11.4 C 60 % 3.92 C
1319 14-05-2016 13:50:00 11.3 C 58 % 3.35 C
1320 14-05-2016 13:55:00 11.2 C 60 % 3.73 C
1321 14-05-2016 14:00:00 11.2 C 61 % 3.97 C
1322 14-05-2016 14:05:00 11.1 C 62 % 4.11 C
1323 14-05-2016 14:10:00 11.1 C 63 % 4.33 C
1324 14-05-2016 14:15:00 11.1 C 64 % 4.56 C
1325 14-05-2016 14:20:00 11.2 C 63 % 4.43 C
Sensor: Nr:Datum:Temp:Feuchte:Taupunkt:
Aussen-T/F 1326 14-05-2016 14:25:00 11.2 C 63 % 4.43 C
1327 14-05-2016 14:30:00 11.3 C 63 % 4.52 C
1328 14-05-2016 14:35:00 11.3 C 64 % 4.75 C
1329 14-05-2016 14:40:00 11.3 C 63 % 4.52 C
1330 14-05-2016 14:45:00 11.2 C 63 % 4.43 C
1331 14-05-2016 14:50:00 11.2 C 62 % 4.2 C
1332 14-05-2016 14:55:00 11.3 C 61 % 4.06 C
1333 14-05-2016 15:00:00 11.6 C 59 % 3.87 C
1334 14-05-2016 15:05:00 11.8 C 59 % 4.06 C
1335 14-05-2016 15:10:00 11.9 C 57 % 3.66 C
1336 14-05-2016 15:15:00 11.9 C 57 % 3.66 C
1337 14-05-2016 15:20:00 11.9 C 59 % 4.15 C
1338 14-05-2016 15:25:00 11.9 C 57 % 3.66 C
1339 14-05-2016 15:30:00 12 C 58 % 4 C
1340 14-05-2016 15:35:00 12.4 C 59 % 4.62 C
1341 14-05-2016 15:40:00 12.9 C 56 % 4.35 C
1342 14-05-2016 15:45:00 13.3 C 56 % 4.72 C
1343 14-05-2016 15:50:00 13.3 C 52 % 3.66 C
1344 14-05-2016 15:55:00 12.9 C 53 % 3.56 C
1345 14-05-2016 16:00:00 12.6 C 54 % 3.55 C
1346 14-05-2016 16:05:00 12.3 C 56 % 3.79 C
1347 14-05-2016 16:10:00 12.3 C 56 % 3.79 C
1348 14-05-2016 16:15:00 12.4 C 57 % 4.13 C
1349 14-05-2016 16:20:00 12.4 C 58 % 4.38 C
1350 14-05-2016 16:25:00 12.5 C 55 % 3.72 C
Sensor: Nr:Datum:Temp:Feuchte:Taupunkt:
Aussen-T/F 1351 14-05-2016 16:30:00 12.3 C 55 % 3.53 C
1352 14-05-2016 16:35:00 12.2 C 55 % 3.44 C
1353 14-05-2016 16:40:00 12.2 C 56 % 3.69 C
1354 14-05-2016 16:45:00 12.2 C 56 % 3.69 C
1355 14-05-2016 16:50:00 12.3 C 56 % 3.79 C
1356 14-05-2016 16:55:00 12.5 C 55 % 3.72 C
1357 14-05-2016 17:00:00 12.4 C 53 % 3.1 C
1358 14-05-2016 17:05:00 12.3 C 53 % 3.01 C
1359 14-05-2016 17:10:00 12.2 C 54 % 3.18 C
1360 14-05-2016 17:15:00 12.2 C 54 % 3.18 C
1361 14-05-2016 17:20:00 12.3 C 53 % 3.01 C
1362 14-05-2016 17:25:00 12.4 C 52 % 2.83 C
1363 14-05-2016 17:30:00 12.3 C 53 % 3.01 C
1364 14-05-2016 17:35:00 12.3 C 55 % 3.53 C
1365 14-05-2016 17:40:00 12.3 C 54 % 3.27 C
1366 14-05-2016 17:45:00 12.3 C 56 % 3.79 C
1367 14-05-2016 17:50:00 12.3 C 54 % 3.27 C
1368 14-05-2016 17:55:00 12.6 C 54 % 3.55 C
1369 14-05-2016 18:00:00 12.8 C 53 % 3.47 C
1370 14-05-2016 18:05:00 12.7 C 52 % 3.11 C
1371 14-05-2016 18:10:00 12.5 C 54 % 3.46 C
1372 14-05-2016 18:15:00 12.6 C 55 % 3.81 C
1373 14-05-2016 18:20:00 12.7 C 52 % 3.11 C
1374 14-05-2016 18:25:00 12.6 C 53 % 3.29 C
1375 14-05-2016 18:30:00 12.4 C 51 % 2.56 C
Sensor: Nr:Datum:Temp:Feuchte:Taupunkt:
Aussen-T/F 1376 14-05-2016 18:35:00 12.1 C 53 % 2.82 C
1377 14-05-2016 18:40:00 11.9 C 54 % 2.9 C
1378 14-05-2016 18:45:00 11.7 C 55 % 2.97 C
1379 14-05-2016 18:50:00 11.7 C 56 % 3.23 C
1380 14-05-2016 18:55:00 11.6 C 56 % 3.13 C
1381 14-05-2016 19:00:00 11.6 C 57 % 3.38 C
1382 14-05-2016 19:05:00 11.6 C 57 % 3.38 C
1383 14-05-2016 19:10:00 11.5 C 58 % 3.54 C
1384 14-05-2016 19:15:00 11.5 C 59 % 3.78 C
1385 14-05-2016 19:20:00 11.4 C 55 % 2.69 C
1386 14-05-2016 19:25:00 11.3 C 56 % 2.85 C
1387 14-05-2016 19:30:00 11.3 C 57 % 3.1 C
1388 14-05-2016 19:35:00 11.2 C 57 % 3.01 C
1389 14-05-2016 19:40:00 11.2 C 58 % 3.25 C
1390 14-05-2016 19:45:00 11.2 C 58 % 3.25 C
1391 14-05-2016 19:50:00 11.1 C 59 % 3.4 C
1392 14-05-2016 19:55:00 11.1 C 59 % 3.4 C
1393 14-05-2016 20:00:00 11.1 C 60 % 3.64 C
1394 14-05-2016 20:05:00 11.1 C 59 % 3.4 C
1395 14-05-2016 20:10:00 11.2 C 60 % 3.73 C
1396 14-05-2016 20:15:00 11.2 C 58 % 3.25 C
1397 14-05-2016 20:20:00 11.2 C 57 % 3.01 C
1398 14-05-2016 20:25:00 11.1 C 57 % 2.92 C
1399 14-05-2016 20:30:00 11 C 57 % 2.82 C
1400 14-05-2016 20:35:00 10.9 C 57 % 2.73 C
Sensor: Nr:Datum:Temp:Feuchte:Taupunkt:
Aussen-T/F 1401 14-05-2016 20:40:00 10.8 C 58 % 2.88 C
1402 14-05-2016 20:45:00 10.7 C 60 % 3.26 C
1403 14-05-2016 20:50:00 10.5 C 59 % 2.84 C
1404 14-05-2016 20:55:00 10.3 C 61 % 3.12 C
1405 14-05-2016 21:00:00 10.2 C 61 % 3.03 C
1406 14-05-2016 21:05:00 10.1 C 61 % 2.93 C
1407 14-05-2016 21:10:00 9.9 C 62 % 2.97 C
1408 14-05-2016 21:15:00 9.8 C 64 % 3.32 C
1409 14-05-2016 21:20:00 9.7 C 66 % 3.67 C
1410 14-05-2016 21:25:00 9.6 C 63 % 2.91 C
1411 14-05-2016 21:30:00 9.5 C 63 % 2.82 C
1412 14-05-2016 21:35:00 9.4 C 65 % 3.16 C
1413 14-05-2016 21:40:00 9.3 C 64 % 2.85 C
1414 14-05-2016 21:45:00 9.3 C 64 % 2.85 C
1415 14-05-2016 21:50:00 9.2 C 64 % 2.76 C
1416 14-05-2016 21:55:00 9.2 C 66 % 3.19 C
1417 14-05-2016 22:00:00 9.1 C 65 % 2.88 C
1418 14-05-2016 22:05:00 9 C 65 % 2.78 C
1419 14-05-2016 22:10:00 8.9 C 67 % 3.12 C
1420 14-05-2016 22:15:00 8.7 C 69 % 3.34 C
1421 14-05-2016 22:20:00 8.5 C 70 % 3.35 C
1422 14-05-2016 22:25:00 8.3 C 70 % 3.16 C
1423 14-05-2016 22:30:00 8.2 C 69 % 2.86 C
1424 14-05-2016 22:35:00 8.2 C 71 % 3.26 C
1425 14-05-2016 22:40:00 8.1 C 71 % 3.17 C
Sensor: Nr:Datum:Temp:Feuchte:Taupunkt:
Aussen-T/F 1426 14-05-2016 22:45:00 8 C 71 % 3.07 C
1427 14-05-2016 22:50:00 7.9 C 72 % 3.17 C
1428 14-05-2016 22:55:00 7.8 C 72 % 3.08 C
1429 14-05-2016 23:00:00 7.8 C 72 % 3.08 C
1430 14-05-2016 23:05:00 7.7 C 72 % 2.98 C
1431 14-05-2016 23:10:00 7.7 C 73 % 3.18 C
1432 14-05-2016 23:15:00 7.6 C 73 % 3.08 C
1433 14-05-2016 23:20:00 7.6 C 70 % 2.49 C
1434 14-05-2016 23:25:00 7.7 C 72 % 2.98 C
1435 14-05-2016 23:30:00 7.7 C 70 % 2.58 C
1436 14-05-2016 23:35:00 7.7 C 69 % 2.38 C
1437 14-05-2016 23:40:00 7.8 C 68 % 2.27 C
1438 14-05-2016 23:45:00 7.8 C 71 % 2.88 C
1439 14-05-2016 23:50:00 7.8 C 70 % 2.68 C
1440 14-05-2016 23:55:00 7.6 C 71 % 2.69 C
1441 15-05-2016 00:00:00 7.5 C 71 % 2.59 C
1442 15-05-2016 00:05:00 7.4 C 72 % 2.69 C
1443 15-05-2016 00:10:00 7.3 C 73 % 2.79 C
1444 15-05-2016 00:15:00 7.3 C 72 % 2.6 C
1445 15-05-2016 00:20:00 7.3 C 73 % 2.79 C
1446 15-05-2016 00:25:00 7.3 C 72 % 2.6 C
1447 15-05-2016 00:30:00 7.3 C 73 % 2.79 C
1448 15-05-2016 00:35:00 7.2 C 75 % 3.07 C
1449 15-05-2016 00:40:00 7.1 C 74 % 2.79 C
1450 15-05-2016 00:45:00 6.9 C 74 % 2.6 C
Sensor: Nr:Datum:Temp:Feuchte:Taupunkt:
Aussen-T/F 1451 15-05-2016 00:50:00 6.9 C 74 % 2.6 C
1452 15-05-2016 00:55:00 6.9 C 74 % 2.6 C
1453 15-05-2016 01:00:00 7 C 74 % 2.69 C
1454 15-05-2016 01:05:00 7.1 C 74 % 2.79 C
1455 15-05-2016 01:10:00 7.1 C 74 % 2.79 C
1456 15-05-2016 01:15:00 7.1 C 73 % 2.6 C
1457 15-05-2016 01:20:00 7.2 C 72 % 2.5 C
1458 15-05-2016 01:25:00 7.2 C 74 % 2.89 C
1459 15-05-2016 01:30:00 7.2 C 73 % 2.69 C
1460 15-05-2016 01:35:00 7.2 C 74 % 2.89 C
1461 15-05-2016 01:40:00 7.2 C 75 % 3.07 C
1462 15-05-2016 01:45:00 7.2 C 75 % 3.07 C
1463 15-05-2016 01:50:00 7.2 C 75 % 3.07 C
1464 15-05-2016 01:55:00 7.2 C 75 % 3.07 C
1465 15-05-2016 02:00:00 7.1 C 75 % 2.98 C
1466 15-05-2016 02:05:00 7.1 C 75 % 2.98 C
1467 15-05-2016 02:10:00 7.1 C 75 % 2.98 C
1468 15-05-2016 02:15:00 7.1 C 76 % 3.16 C
1469 15-05-2016 02:20:00 7.1 C 76 % 3.16 C
1470 15-05-2016 02:25:00 7.1 C 75 % 2.98 C
1471 15-05-2016 02:30:00 7.1 C 76 % 3.16 C
1472 15-05-2016 02:35:00 7.1 C 76 % 3.16 C
1473 15-05-2016 02:40:00 7.1 C 76 % 3.16 C
1474 15-05-2016 02:45:00 7.1 C 76 % 3.16 C
1475 15-05-2016 02:50:00 7.1 C 76 % 3.16 C
Sensor: Nr:Datum:Temp:Feuchte:Taupunkt:
Aussen-T/F 1476 15-05-2016 02:55:00 7.1 C 77 % 3.35 C
1477 15-05-2016 03:00:00 7 C 76 % 3.07 C
1478 15-05-2016 03:05:00 7 C 76 % 3.07 C
1479 15-05-2016 03:10:00 6.9 C 76 % 2.97 C
1480 15-05-2016 03:15:00 6.9 C 76 % 2.97 C
1481 15-05-2016 03:20:00 6.8 C 77 % 3.06 C
1482 15-05-2016 03:25:00 6.8 C 77 % 3.06 C
1483 15-05-2016 03:30:00 6.8 C 78 % 3.24 C
1484 15-05-2016 03:35:00 6.7 C 78 % 3.14 C
1485 15-05-2016 03:40:00 6.7 C 78 % 3.14 C
1486 15-05-2016 03:45:00 6.6 C 79 % 3.23 C
1487 15-05-2016 03:50:00 6.6 C 78 % 3.05 C
1488 15-05-2016 03:55:00 6.6 C 79 % 3.23 C
1489 15-05-2016 04:00:00 6.5 C 79 % 3.13 C
1490 15-05-2016 04:05:00 6.5 C 80 % 3.31 C
1491 15-05-2016 04:10:00 6.4 C 81 % 3.38 C
1492 15-05-2016 04:15:00 6.5 C 81 % 3.48 C
1493 15-05-2016 04:20:00 6.4 C 80 % 3.21 C
1494 15-05-2016 04:25:00 6.4 C 80 % 3.21 C
1495 15-05-2016 04:30:00 6.4 C 80 % 3.21 C
1496 15-05-2016 04:35:00 6.4 C 80 % 3.21 C
1497 15-05-2016 04:40:00 6.3 C 80 % 3.11 C
1498 15-05-2016 04:45:00 6.4 C 80 % 3.21 C
1499 15-05-2016 04:50:00 6.4 C 80 % 3.21 C
1500 15-05-2016 04:55:00 6.4 C 79 % 3.03 C
Sensor: Nr:Datum:Temp:Feuchte:Taupunkt:
Aussen-T/F 1501 15-05-2016 05:00:00 6.4 C 80 % 3.21 C
1502 15-05-2016 05:05:00 6.4 C 80 % 3.21 C
1503 15-05-2016 05:10:00 6.4 C 79 % 3.03 C
1504 15-05-2016 05:15:00 6.4 C 79 % 3.03 C
1505 15-05-2016 05:20:00 6.4 C 79 % 3.03 C
1506 15-05-2016 05:25:00 6.3 C 79 % 2.93 C
1507 15-05-2016 05:30:00 6.3 C 80 % 3.11 C
1508 15-05-2016 05:35:00 6.3 C 80 % 3.11 C
1509 15-05-2016 05:40:00 6.2 C 81 % 3.19 C
1510 15-05-2016 05:45:00 6.2 C 82 % 3.36 C
1511 15-05-2016 05:50:00 6.2 C 83 % 3.53 C
1512 15-05-2016 05:55:00 6.1 C 82 % 3.26 C
1513 15-05-2016 06:00:00 6.2 C 82 % 3.36 C
1514 15-05-2016 06:05:00 6.2 C 82 % 3.36 C
1515 15-05-2016 06:10:00 6.2 C 83 % 3.53 C
1516 15-05-2016 06:15:00 6.2 C 83 % 3.53 C
1517 15-05-2016 06:20:00 6.2 C 83 % 3.53 C
1518 15-05-2016 06:25:00 6.2 C 83 % 3.53 C
1519 15-05-2016 06:30:00 6.2 C 82 % 3.36 C
1520 15-05-2016 06:35:00 6.2 C 82 % 3.36 C
1521 15-05-2016 06:40:00 6.3 C 83 % 3.63 C
1522 15-05-2016 06:45:00 6.3 C 82 % 3.46 C
1523 15-05-2016 06:50:00 6.3 C 83 % 3.63 C
1524 15-05-2016 06:55:00 6.4 C 82 % 3.56 C
1525 15-05-2016 07:00:00 6.4 C 82 % 3.56 C
Sensor: Nr:Datum:Temp:Feuchte:Taupunkt:
Aussen-T/F 1526 15-05-2016 07:05:00 6.3 C 82 % 3.46 C
1527 15-05-2016 07:10:00 6.3 C 82 % 3.46 C
1528 15-05-2016 07:15:00 6.2 C 82 % 3.36 C
1529 15-05-2016 07:20:00 6.2 C 82 % 3.36 C
1530 15-05-2016 07:25:00 6.2 C 83 % 3.53 C
1531 15-05-2016 07:30:00 6.2 C 84 % 3.7 C
1532 15-05-2016 07:35:00 6.2 C 83 % 3.53 C
1533 15-05-2016 07:40:00 6.3 C 83 % 3.63 C
1534 15-05-2016 07:45:00 6.3 C 84 % 3.8 C
1535 15-05-2016 07:50:00 6.3 C 83 % 3.63 C
1536 15-05-2016 07:55:00 6.5 C 82 % 3.66 C
1537 15-05-2016 08:00:00 6.6 C 83 % 3.92 C
1538 15-05-2016 08:05:00 6.7 C 82 % 3.85 C
1539 15-05-2016 08:10:00 6.8 C 81 % 3.77 C
1540 15-05-2016 08:15:00 7 C 82 % 4.14 C
1541 15-05-2016 08:20:00 7.3 C 81 % 4.26 C
1542 15-05-2016 08:25:00 7.4 C 79 % 4 C
1543 15-05-2016 08:30:00 7.6 C 77 % 3.83 C
1544 15-05-2016 08:35:00 7.7 C 76 % 3.75 C
1545 15-05-2016 08:40:00 7.8 C 76 % 3.84 C
1546 15-05-2016 08:45:00 7.8 C 77 % 4.03 C
1547 15-05-2016 08:50:00 7.9 C 76 % 3.94 C
1548 15-05-2016 08:55:00 8.1 C 76 % 4.13 C
1549 15-05-2016 09:00:00 8.3 C 76 % 4.33 C
1550 15-05-2016 09:05:00 8.4 C 74 % 4.04 C
Sensor: Nr:Datum:Temp:Feuchte:Taupunkt:
Aussen-T/F 1551 15-05-2016 09:10:00 8.4 C 75 % 4.23 C
1552 15-05-2016 09:15:00 8.4 C 73 % 3.85 C
1553 15-05-2016 09:20:00 8.7 C 74 % 4.33 C
1554 15-05-2016 09:25:00 8.8 C 72 % 4.04 C
1555 15-05-2016 09:30:00 8.8 C 72 % 4.04 C
1556 15-05-2016 09:35:00 8.8 C 72 % 4.04 C
1557 15-05-2016 09:40:00 8.9 C 71 % 3.94 C
1558 15-05-2016 09:45:00 8.9 C 72 % 4.14 C
1559 15-05-2016 09:50:00 9.1 C 73 % 4.52 C
1560 15-05-2016 09:55:00 9.2 C 72 % 4.42 C
1561 15-05-2016 10:00:00 9.1 C 72 % 4.33 C
1562 15-05-2016 10:05:00 9 C 71 % 4.03 C
1563 15-05-2016 10:10:00 9 C 70 % 3.83 C
1564 15-05-2016 10:15:00 9.2 C 71 % 4.22 C
1565 15-05-2016 10:20:00 9.4 C 68 % 3.8 C
1566 15-05-2016 10:25:00 9.4 C 67 % 3.59 C
1567 15-05-2016 10:30:00 9.6 C 67 % 3.78 C
1568 15-05-2016 10:35:00 9.9 C 66 % 3.86 C
1569 15-05-2016 10:40:00 10.2 C 64 % 3.7 C
1570 15-05-2016 10:45:00 10.3 C 65 % 4.02 C
1571 15-05-2016 10:50:00 10.4 C 65 % 4.11 C
1572 15-05-2016 10:55:00 10.2 C 63 % 3.48 C
1573 15-05-2016 11:00:00 10.2 C 63 % 3.48 C
1574 15-05-2016 11:05:00 10.2 C 63 % 3.48 C
1575 15-05-2016 11:10:00 10.2 C 63 % 3.48 C
Sensor: Nr:Datum:Temp:Feuchte:Taupunkt:
Aussen-T/F 1576 15-05-2016 11:15:00 10.2 C 61 % 3.03 C
1577 15-05-2016 11:20:00 10.2 C 63 % 3.48 C
1578 15-05-2016 11:25:00 10.2 C 63 % 3.48 C
1579 15-05-2016 11:30:00 10.2 C 65 % 3.92 C
1580 15-05-2016 11:35:00 10.2 C 63 % 3.48 C
1581 15-05-2016 11:40:00 10.2 C 64 % 3.7 C
1582 15-05-2016 11:45:00 10.4 C 65 % 4.11 C
1583 15-05-2016 11:50:00 10.3 C 63 % 3.58 C
1584 15-05-2016 11:55:00 10.1 C 69 % 4.68 C
1585 15-05-2016 12:00:00 9.1 C 73 % 4.52 C
1586 15-05-2016 12:05:00 8.5 C 78 % 4.89 C
1587 15-05-2016 12:10:00 8.3 C 81 % 5.24 C
1588 15-05-2016 12:15:00 8.3 C 85 % 5.93 C
1589 15-05-2016 12:20:00 8.4 C 86 % 6.2 C
1590 15-05-2016 12:25:00 8.6 C 84 % 6.05 C
1591 15-05-2016 12:30:00 8.7 C 84 % 6.15 C
1592 15-05-2016 12:35:00 8.7 C 80 % 5.45 C
1593 15-05-2016 12:40:00 8.9 C 83 % 6.17 C
1594 15-05-2016 12:45:00 9.1 C 77 % 5.29 C
1595 15-05-2016 12:50:00 9.3 C 74 % 4.91 C
1596 15-05-2016 12:55:00 9.6 C 78 % 5.96 C
1597 15-05-2016 13:00:00 9.9 C 75 % 5.68 C
1598 15-05-2016 13:05:00 10 C 76 % 5.97 C
1599 15-05-2016 13:10:00 9.9 C 74 % 5.49 C
1600 15-05-2016 13:15:00 9.9 C 67 % 4.07 C
Sensor: Nr:Datum:Temp:Feuchte:Taupunkt:
Aussen-T/F 1601 15-05-2016 13:20:00 10 C 65 % 3.73 C
1602 15-05-2016 13:25:00 10.2 C 67 % 4.36 C
1603 15-05-2016 13:30:00 10.4 C 64 % 3.89 C
1604 15-05-2016 13:35:00 10.6 C 62 % 3.63 C
1605 15-05-2016 13:40:00 10.7 C 58 % 2.79 C
1606 15-05-2016 13:45:00 10.6 C 58 % 2.69 C
1607 15-05-2016 13:50:00 10.8 C 62 % 3.82 C
1608 15-05-2016 13:55:00 11.1 C 61 % 3.87 C
1609 15-05-2016 14:00:00 11.3 C 57 % 3.1 C
1610 15-05-2016 14:05:00 11.5 C 56 % 3.04 C
1611 15-05-2016 14:10:00 11.6 C 57 % 3.38 C
1612 15-05-2016 14:15:00 11.3 C 56 % 2.85 C
1613 15-05-2016 14:20:00 11.2 C 58 % 3.25 C
1614 15-05-2016 14:25:00 11.1 C 58 % 3.16 C
1615 15-05-2016 14:30:00 10.9 C 58 % 2.97 C
1616 15-05-2016 14:35:00 10.9 C 59 % 3.21 C
1617 15-05-2016 14:40:00 10.9 C 58 % 2.97 C
1618 15-05-2016 14:45:00 10.9 C 56 % 2.48 C
1619 15-05-2016 14:50:00 11.2 C 60 % 3.73 C
1620 15-05-2016 14:55:00 11.5 C 54 % 2.53 C
1621 15-05-2016 15:00:00 11.8 C 59 % 4.06 C
1622 15-05-2016 15:05:00 12.1 C 54 % 3.09 C
1623 15-05-2016 15:10:00 12.2 C 55 % 3.44 C
1624 15-05-2016 15:15:00 12 C 53 % 2.73 C
1625 15-05-2016 15:20:00 11.8 C 54 % 2.81 C
Sensor: Nr:Datum:Temp:Feuchte:Taupunkt:
Aussen-T/F 1626 15-05-2016 15:25:00 11.7 C 54 % 2.71 C
1627 15-05-2016 15:30:00 11.6 C 55 % 2.88 C
1628 15-05-2016 15:35:00 11.5 C 56 % 3.04 C
1629 15-05-2016 15:40:00 11.5 C 57 % 3.29 C
1630 15-05-2016 15:45:00 11.6 C 58 % 3.63 C
1631 15-05-2016 15:50:00 11.8 C 57 % 3.57 C
1632 15-05-2016 15:55:00 11.8 C 56 % 3.32 C
1633 15-05-2016 16:00:00 11.9 C 56 % 3.41 C
1634 15-05-2016 16:05:00 12.2 C 58 % 4.19 C
1635 15-05-2016 16:10:00 12.8 C 57 % 4.5 C
1636 15-05-2016 16:15:00 12.9 C 54 % 3.83 C
1637 15-05-2016 16:20:00 12.7 C 55 % 3.9 C
1638 15-05-2016 16:25:00 12.4 C 54 % 3.36 C
1639 15-05-2016 16:30:00 12.2 C 55 % 3.44 C
1640 15-05-2016 16:35:00 12.1 C 56 % 3.6 C
1641 15-05-2016 16:40:00 12.4 C 55 % 3.62 C
1642 15-05-2016 16:45:00 12.8 C 55 % 4 C
1643 15-05-2016 16:50:00 13.3 C 52 % 3.66 C
1644 15-05-2016 16:55:00 13.1 C 52 % 3.48 C
1645 15-05-2016 17:00:00 12.6 C 53 % 3.29 C
1646 15-05-2016 17:05:00 12.3 C 54 % 3.27 C
1647 15-05-2016 17:10:00 12.2 C 56 % 3.69 C
1648 15-05-2016 17:15:00 12.1 C 57 % 3.85 C
1649 15-05-2016 17:20:00 12 C 57 % 3.76 C
1650 15-05-2016 17:25:00 11.9 C 55 % 3.16 C
Sensor: Nr:Datum:Temp:Feuchte:Taupunkt:
Aussen-T/F 1651 15-05-2016 17:30:00 11.9 C 56 % 3.41 C
1652 15-05-2016 17:35:00 11.9 C 56 % 3.41 C
1653 15-05-2016 17:40:00 11.8 C 56 % 3.32 C
1654 15-05-2016 17:45:00 11.8 C 56 % 3.32 C
1655 15-05-2016 17:50:00 11.7 C 56 % 3.23 C
1656 15-05-2016 17:55:00 11.7 C 57 % 3.48 C
1657 15-05-2016 18:00:00 11.8 C 61 % 4.53 C
1658 15-05-2016 18:05:00 11.8 C 61 % 4.53 C
1659 15-05-2016 18:10:00 11.8 C 60 % 4.3 C
1660 15-05-2016 18:15:00 11.8 C 61 % 4.53 C
1661 15-05-2016 18:20:00 11.7 C 60 % 4.2 C
1662 15-05-2016 18:25:00 11.6 C 64 % 5.03 C
1663 15-05-2016 18:30:00 11.4 C 66 % 5.28 C
1664 15-05-2016 18:35:00 11.3 C 63 % 4.52 C
1665 15-05-2016 18:40:00 11.2 C 62 % 4.2 C
1666 15-05-2016 18:45:00 11.6 C 61 % 4.35 C
1667 15-05-2016 18:50:00 12 C 58 % 4 C
1668 15-05-2016 18:55:00 12.2 C 57 % 3.94 C
1669 15-05-2016 19:00:00 12.2 C 57 % 3.94 C
1670 15-05-2016 19:05:00 12.1 C 57 % 3.85 C
1671 15-05-2016 19:10:00 11.9 C 53 % 2.64 C
1672 15-05-2016 19:15:00 11.8 C 54 % 2.81 C
1673 15-05-2016 19:20:00 11.7 C 55 % 2.97 C
1674 15-05-2016 19:25:00 11.7 C 56 % 3.23 C
1675 15-05-2016 19:30:00 11.7 C 55 % 2.97 C
Sensor: Nr:Datum:Temp:Feuchte:Taupunkt:
Aussen-T/F 1676 15-05-2016 19:35:00 11.7 C 57 % 3.48 C
1677 15-05-2016 19:40:00 11.6 C 59 % 3.87 C
1678 15-05-2016 19:45:00 11.4 C 57 % 3.2 C
1679 15-05-2016 19:50:00 11.2 C 57 % 3.01 C
1680 15-05-2016 19:55:00 11.1 C 59 % 3.4 C
1681 15-05-2016 20:00:00 11 C 59 % 3.31 C
1682 15-05-2016 20:05:00 10.9 C 60 % 3.45 C
1683 15-05-2016 20:10:00 10.9 C 60 % 3.45 C
1684 15-05-2016 20:15:00 11 C 60 % 3.55 C
1685 15-05-2016 20:20:00 11 C 60 % 3.55 C
1686 15-05-2016 20:25:00 11 C 62 % 4.01 C
1687 15-05-2016 20:30:00 10.9 C 61 % 3.69 C
1688 15-05-2016 20:35:00 10.8 C 61 % 3.59 C
1689 15-05-2016 20:40:00 10.8 C 62 % 3.82 C
1690 15-05-2016 20:45:00 10.7 C 62 % 3.73 C
1691 15-05-2016 20:50:00 10.6 C 62 % 3.63 C
1692 15-05-2016 20:55:00 10.6 C 63 % 3.86 C
1693 15-05-2016 21:00:00 10.5 C 63 % 3.77 C
1694 15-05-2016 21:05:00 10.4 C 64 % 3.89 C
1695 15-05-2016 21:10:00 10.3 C 65 % 4.02 C
1696 15-05-2016 21:15:00 10.2 C 65 % 3.92 C
1697 15-05-2016 21:20:00 10.2 C 66 % 4.14 C
1698 15-05-2016 21:25:00 10.1 C 67 % 4.26 C
1699 15-05-2016 21:30:00 10 C 67 % 4.16 C
1700 15-05-2016 21:35:00 9.9 C 70 % 4.69 C
Sensor: Nr:Datum:Temp:Feuchte:Taupunkt:
Aussen-T/F 1701 15-05-2016 21:40:00 9.8 C 71 % 4.8 C
1702 15-05-2016 21:45:00 9.6 C 71 % 4.61 C
1703 15-05-2016 21:50:00 9.4 C 73 % 4.81 C
1704 15-05-2016 21:55:00 9.3 C 74 % 4.91 C
1705 15-05-2016 22:00:00 9.2 C 74 % 4.81 C
1706 15-05-2016 22:05:00 9.1 C 75 % 4.91 C
1707 15-05-2016 22:10:00 9 C 75 % 4.81 C
1708 15-05-2016 22:15:00 8.9 C 75 % 4.72 C
1709 15-05-2016 22:20:00 8.8 C 76 % 4.81 C
1710 15-05-2016 22:25:00 8.8 C 75 % 4.62 C
1711 15-05-2016 22:30:00 8.8 C 76 % 4.81 C
1712 15-05-2016 22:35:00 8.8 C 77 % 5 C
1713 15-05-2016 22:40:00 8.8 C 78 % 5.18 C
1714 15-05-2016 22:45:00 8.7 C 78 % 5.08 C
1715 15-05-2016 22:50:00 8.7 C 78 % 5.08 C
1716 15-05-2016 22:55:00 8.8 C 78 % 5.18 C
1717 15-05-2016 23:00:00 8.8 C 78 % 5.18 C
1718 15-05-2016 23:05:00 8.8 C 78 % 5.18 C
1719 15-05-2016 23:10:00 8.7 C 79 % 5.27 C
1720 15-05-2016 23:15:00 8.7 C 79 % 5.27 C
1721 15-05-2016 23:20:00 8.7 C 79 % 5.27 C
1722 15-05-2016 23:25:00 8.7 C 79 % 5.27 C
1723 15-05-2016 23:30:00 8.7 C 79 % 5.27 C
1724 15-05-2016 23:35:00 8.7 C 79 % 5.27 C
1725 15-05-2016 23:40:00 8.7 C 80 % 5.45 C
Sensor: Nr:Datum:Temp:Feuchte:Taupunkt:
Aussen-T/F 1726 15-05-2016 23:45:00 8.6 C 80 % 5.35 C
1727 15-05-2016 23:50:00 8.6 C 80 % 5.35 C
1728 15-05-2016 23:55:00 8.5 C 80 % 5.25 C
1729 16-05-2016 00:00:00 8.4 C 81 % 5.33 C
1730 16-05-2016 00:05:00 8.4 C 80 % 5.16 C
1731 16-05-2016 00:10:00 8.3 C 80 % 5.06 C
1732 16-05-2016 00:15:00 8.3 C 81 % 5.24 C
1733 16-05-2016 00:20:00 8.2 C 81 % 5.14 C
1734 16-05-2016 00:25:00 8.2 C 81 % 5.14 C
1735 16-05-2016 00:30:00 8.1 C 81 % 5.04 C
1736 16-05-2016 00:35:00 8.1 C 81 % 5.04 C
1737 16-05-2016 00:40:00 8.1 C 81 % 5.04 C
1738 16-05-2016 00:45:00 8.1 C 81 % 5.04 C
1739 16-05-2016 00:50:00 8.1 C 81 % 5.04 C
1740 16-05-2016 00:55:00 8.1 C 81 % 5.04 C
1741 16-05-2016 01:00:00 8.1 C 81 % 5.04 C
1742 16-05-2016 01:05:00 8.2 C 81 % 5.14 C
1743 16-05-2016 01:10:00 8.2 C 81 % 5.14 C
1744 16-05-2016 01:15:00 8.2 C 81 % 5.14 C
1745 16-05-2016 01:20:00 8.2 C 81 % 5.14 C
1746 16-05-2016 01:25:00 8.2 C 81 % 5.14 C
1747 16-05-2016 01:30:00 8.2 C 81 % 5.14 C
1748 16-05-2016 01:35:00 8.2 C 81 % 5.14 C
1749 16-05-2016 01:40:00 8.2 C 81 % 5.14 C
1750 16-05-2016 01:45:00 8.3 C 81 % 5.24 C
Sensor: Nr:Datum:Temp:Feuchte:Taupunkt:
Aussen-T/F 1751 16-05-2016 01:50:00 8.3 C 81 % 5.24 C
1752 16-05-2016 01:55:00 8.2 C 81 % 5.14 C
1753 16-05-2016 02:00:00 8.2 C 81 % 5.14 C
1754 16-05-2016 02:05:00 8.2 C 81 % 5.14 C
1755 16-05-2016 02:10:00 8.2 C 81 % 5.14 C
1756 16-05-2016 02:15:00 8.2 C 81 % 5.14 C
1757 16-05-2016 02:20:00 8.2 C 81 % 5.14 C
1758 16-05-2016 02:25:00 8.2 C 81 % 5.14 C
1759 16-05-2016 02:30:00 8.2 C 82 % 5.32 C
1760 16-05-2016 02:35:00 8.2 C 81 % 5.14 C
1761 16-05-2016 02:40:00 8.1 C 81 % 5.04 C
1762 16-05-2016 02:45:00 8.1 C 81 % 5.04 C
1763 16-05-2016 02:50:00 8.1 C 82 % 5.22 C
1764 16-05-2016 02:55:00 8.1 C 82 % 5.22 C
1765 16-05-2016 03:00:00 8.1 C 83 % 5.39 C
1766 16-05-2016 03:05:00 8.1 C 83 % 5.39 C
1767 16-05-2016 03:10:00 8 C 83 % 5.29 C
1768 16-05-2016 03:15:00 8 C 84 % 5.47 C
1769 16-05-2016 03:20:00 7.9 C 84 % 5.37 C
1770 16-05-2016 03:25:00 7.9 C 84 % 5.37 C
1771 16-05-2016 03:30:00 7.9 C 85 % 5.54 C
1772 16-05-2016 03:35:00 7.9 C 85 % 5.54 C
1773 16-05-2016 03:40:00 7.9 C 85 % 5.54 C
1774 16-05-2016 03:45:00 7.8 C 85 % 5.44 C
1775 16-05-2016 03:50:00 7.8 C 85 % 5.44 C
Sensor: Nr:Datum:Temp:Feuchte:Taupunkt:
Aussen-T/F 1776 16-05-2016 03:55:00 7.8 C 85 % 5.44 C
1777 16-05-2016 04:00:00 7.8 C 85 % 5.44 C
1778 16-05-2016 04:05:00 7.8 C 86 % 5.61 C
1779 16-05-2016 04:10:00 7.8 C 86 % 5.61 C
1780 16-05-2016 04:15:00 7.7 C 86 % 5.51 C
1781 16-05-2016 04:20:00 7.7 C 86 % 5.51 C
1782 16-05-2016 04:25:00 7.7 C 86 % 5.51 C
1783 16-05-2016 04:30:00 7.7 C 86 % 5.51 C
1784 16-05-2016 04:35:00 7.7 C 86 % 5.51 C
1785 16-05-2016 04:40:00 7.7 C 86 % 5.51 C
1786 16-05-2016 04:45:00 7.7 C 87 % 5.68 C
1787 16-05-2016 04:50:00 7.7 C 87 % 5.68 C
1788 16-05-2016 04:55:00 7.7 C 87 % 5.68 C
1789 16-05-2016 05:00:00 7.7 C 87 % 5.68 C
1790 16-05-2016 05:05:00 7.7 C 87 % 5.68 C
1791 16-05-2016 05:10:00 7.7 C 87 % 5.68 C
1792 16-05-2016 05:15:00 7.7 C 87 % 5.68 C
1793 16-05-2016 05:20:00 7.7 C 87 % 5.68 C
1794 16-05-2016 05:25:00 7.7 C 87 % 5.68 C
1795 16-05-2016 05:30:00 7.7 C 88 % 5.84 C
1796 16-05-2016 05:35:00 7.7 C 88 % 5.84 C
1797 16-05-2016 05:40:00 7.7 C 88 % 5.84 C
1798 16-05-2016 05:45:00 7.6 C 88 % 5.74 C
1799 16-05-2016 05:50:00 7.6 C 88 % 5.74 C
1800 16-05-2016 05:55:00 7.6 C 89 % 5.91 C
Sensor: Nr:Datum:Temp:Feuchte:Taupunkt:
Aussen-T/F 1801 16-05-2016 06:00:00 7.6 C 89 % 5.91 C
1802 16-05-2016 06:05:00 7.6 C 89 % 5.91 C
1803 16-05-2016 06:10:00 7.6 C 89 % 5.91 C
1804 16-05-2016 06:15:00 7.5 C 89 % 5.81 C
1805 16-05-2016 06:20:00 7.5 C 89 % 5.81 C
1806 16-05-2016 06:25:00 7.5 C 89 % 5.81 C
1807 16-05-2016 06:30:00 7.5 C 89 % 5.81 C
1808 16-05-2016 06:35:00 7.5 C 87 % 5.48 C
1809 16-05-2016 06:40:00 7.5 C 87 % 5.48 C
1810 16-05-2016 06:45:00 7.6 C 87 % 5.58 C
1811 16-05-2016 06:50:00 7.6 C 84 % 5.07 C
1812 16-05-2016 06:55:00 7.6 C 83 % 4.9 C
1813 16-05-2016 07:00:00 7.7 C 82 % 4.83 C
1814 16-05-2016 07:05:00 7.8 C 81 % 4.75 C
1815 16-05-2016 07:10:00 7.8 C 81 % 4.75 C
1816 16-05-2016 07:15:00 7.9 C 81 % 4.85 C
1817 16-05-2016 07:20:00 7.9 C 81 % 4.85 C
1818 16-05-2016 07:25:00 8 C 82 % 5.12 C
1819 16-05-2016 07:30:00 8 C 81 % 4.94 C
1820 16-05-2016 07:35:00 8.1 C 81 % 5.04 C
1821 16-05-2016 07:40:00 8.1 C 81 % 5.04 C
1822 16-05-2016 07:45:00 8.1 C 80 % 4.86 C
1823 16-05-2016 07:50:00 8.2 C 81 % 5.14 C
1824 16-05-2016 07:55:00 8.2 C 80 % 4.96 C
1825 16-05-2016 08:00:00 8.2 C 79 % 4.78 C
Sensor: Nr:Datum:Temp:Feuchte:Taupunkt:
Aussen-T/F 1826 16-05-2016 08:05:00 8.2 C 79 % 4.78 C
1827 16-05-2016 08:10:00 8.2 C 79 % 4.78 C
1828 16-05-2016 08:15:00 8.3 C 79 % 4.88 C
1829 16-05-2016 08:20:00 8.3 C 78 % 4.7 C
1830 16-05-2016 08:25:00 8.3 C 78 % 4.7 C
1831 16-05-2016 08:30:00 8.2 C 78 % 4.6 C
1832 16-05-2016 08:35:00 8.3 C 78 % 4.7 C
1833 16-05-2016 08:40:00 8.2 C 78 % 4.6 C
1834 16-05-2016 08:45:00 8.3 C 78 % 4.7 C
1835 16-05-2016 08:50:00 8.3 C 78 % 4.7 C
1836 16-05-2016 08:55:00 8.4 C 77 % 4.61 C
1837 16-05-2016 09:00:00 8.4 C 77 % 4.61 C
1838 16-05-2016 09:05:00 8.4 C 76 % 4.42 C
1839 16-05-2016 09:10:00 8.5 C 77 % 4.71 C
1840 16-05-2016 09:15:00 8.4 C 77 % 4.61 C
1841 16-05-2016 09:20:00 8.5 C 77 % 4.71 C
1842 16-05-2016 09:25:00 8.5 C 77 % 4.71 C
1843 16-05-2016 09:30:00 8.5 C 77 % 4.71 C
1844 16-05-2016 09:35:00 8.6 C 78 % 4.99 C
1845 16-05-2016 09:40:00 8.6 C 77 % 4.8 C
1846 16-05-2016 09:45:00 8.7 C 78 % 5.08 C
1847 16-05-2016 09:50:00 8.8 C 76 % 4.81 C
1848 16-05-2016 09:55:00 8.9 C 77 % 5.09 C
1849 16-05-2016 10:00:00 8.9 C 77 % 5.09 C
1850 16-05-2016 10:05:00 9.1 C 78 % 5.47 C
Sensor: Nr:Datum:Temp:Feuchte:Taupunkt:
Aussen-T/F 1851 16-05-2016 10:10:00 9.2 C 75 % 5.01 C
1852 16-05-2016 10:15:00 9.3 C 76 % 5.29 C
1853 16-05-2016 10:20:00 9.4 C 76 % 5.39 C
1854 16-05-2016 10:25:00 9.5 C 74 % 5.1 C
1855 16-05-2016 10:30:00 9.7 C 73 % 5.1 C
1856 16-05-2016 10:35:00 9.9 C 74 % 5.49 C
1857 16-05-2016 10:40:00 10.1 C 71 % 5.09 C
1858 16-05-2016 10:45:00 10.1 C 71 % 5.09 C
1859 16-05-2016 10:50:00 10.1 C 73 % 5.49 C
1860 16-05-2016 10:55:00 10.1 C 74 % 5.68 C
1861 16-05-2016 11:00:00 10.2 C 69 % 4.78 C
1862 16-05-2016 11:05:00 10.4 C 68 % 4.76 C
1863 16-05-2016 11:10:00 10.8 C 70 % 5.56 C
1864 16-05-2016 11:15:00 11.1 C 67 % 5.21 C
1865 16-05-2016 11:20:00 11.2 C 64 % 4.65 C
1866 16-05-2016 11:25:00 11.2 C 60 % 3.73 C
1867 16-05-2016 11:30:00 11.3 C 61 % 4.06 C
1868 16-05-2016 11:35:00 11.4 C 58 % 3.44 C
1869 16-05-2016 11:40:00 11.4 C 58 % 3.44 C
1870 16-05-2016 11:45:00 11.4 C 60 % 3.92 C
1871 16-05-2016 11:50:00 11.5 C 59 % 3.78 C
1872 16-05-2016 11:55:00 11.4 C 59 % 3.68 C
1873 16-05-2016 12:00:00 11.3 C 58 % 3.35 C
1874 16-05-2016 12:05:00 11.3 C 58 % 3.35 C
1875 16-05-2016 12:10:00 11.3 C 60 % 3.83 C
Sensor: Nr:Datum:Temp:Feuchte:Taupunkt:
Aussen-T/F 1876 16-05-2016 12:15:00 11.3 C 58 % 3.35 C
1877 16-05-2016 12:20:00 11.4 C 60 % 3.92 C
1878 16-05-2016 12:25:00 11.6 C 59 % 3.87 C
1879 16-05-2016 12:30:00 11.7 C 58 % 3.72 C
1880 16-05-2016 12:35:00 11.7 C 59 % 3.97 C
1881 16-05-2016 12:40:00 11.8 C 59 % 4.06 C
1882 16-05-2016 12:45:00 11.8 C 60 % 4.3 C
1883 16-05-2016 12:50:00 11.8 C 57 % 3.57 C
1884 16-05-2016 12:55:00 11.8 C 58 % 3.82 C
1885 16-05-2016 13:00:00 11.9 C 58 % 3.91 C
1886 16-05-2016 13:05:00 11.9 C 57 % 3.66 C
1887 16-05-2016 13:10:00 11.8 C 57 % 3.57 C
1888 16-05-2016 13:15:00 11.8 C 57 % 3.57 C
1889 16-05-2016 13:20:00 11.7 C 56 % 3.23 C
1890 16-05-2016 13:25:00 11.7 C 57 % 3.48 C
1891 16-05-2016 13:30:00 11.6 C 59 % 3.87 C
1892 16-05-2016 13:35:00 11.4 C 59 % 3.68 C
1893 16-05-2016 13:40:00 11.4 C 58 % 3.44 C
1894 16-05-2016 13:45:00 11.4 C 60 % 3.92 C
1895 16-05-2016 13:50:00 11.5 C 59 % 3.78 C
1896 16-05-2016 13:55:00 11.7 C 59 % 3.97 C
1897 16-05-2016 14:00:00 11.8 C 58 % 3.82 C
1898 16-05-2016 14:05:00 11.7 C 57 % 3.48 C
1899 16-05-2016 14:10:00 11.7 C 59 % 3.97 C
1900 16-05-2016 14:15:00 11.7 C 58 % 3.72 C
Sensor: Nr:Datum:Temp:Feuchte:Taupunkt:
Aussen-T/F 1901 16-05-2016 14:20:00 11.7 C 59 % 3.97 C
1902 16-05-2016 14:25:00 11.7 C 60 % 4.2 C
1903 16-05-2016 14:30:00 11.8 C 59 % 4.06 C
1904 16-05-2016 14:35:00 11.9 C 59 % 4.15 C
1905 16-05-2016 14:40:00 11.8 C 59 % 4.06 C
1906 16-05-2016 14:45:00 11.5 C 60 % 4.02 C
1907 16-05-2016 14:50:00 11.3 C 60 % 3.83 C
1908 16-05-2016 14:55:00 11.2 C 61 % 3.97 C
1909 16-05-2016 15:00:00 11.2 C 61 % 3.97 C
1910 16-05-2016 15:05:00 11.2 C 62 % 4.2 C
1911 16-05-2016 15:10:00 11.3 C 61 % 4.06 C
1912 16-05-2016 15:15:00 11.4 C 62 % 4.39 C
1913 16-05-2016 15:20:00 11.8 C 62 % 4.77 C
1914 16-05-2016 15:25:00 12.3 C 60 % 4.77 C
1915 16-05-2016 15:30:00 12.8 C 58 % 4.75 C
1916 16-05-2016 15:35:00 13.3 C 56 % 4.72 C
1917 16-05-2016 15:40:00 13.5 C 50 % 3.29 C
1918 16-05-2016 15:45:00 13.2 C 50 % 3.02 C
1919 16-05-2016 15:50:00 12.7 C 53 % 3.38 C
1920 16-05-2016 15:55:00 12.4 C 55 % 3.62 C
1921 16-05-2016 16:00:00 12.2 C 57 % 3.94 C
1922 16-05-2016 16:05:00 12.1 C 57 % 3.85 C
1923 16-05-2016 16:10:00 12.1 C 58 % 4.1 C
1924 16-05-2016 16:15:00 12.2 C 56 % 3.69 C
1925 16-05-2016 16:20:00 12.3 C 55 % 3.53 C
Sensor: Nr:Datum:Temp:Feuchte:Taupunkt:
Aussen-T/F 1926 16-05-2016 16:25:00 12.5 C 57 % 4.22 C
1927 16-05-2016 16:30:00 12.8 C 54 % 3.74 C
1928 16-05-2016 16:35:00 13.2 C 53 % 3.84 C
1929 16-05-2016 16:40:00 13.4 C 52 % 3.76 C
1930 16-05-2016 16:45:00 13.8 C 48 % 2.99 C
1931 16-05-2016 16:50:00 14.1 C 48 % 3.27 C
1932 16-05-2016 16:55:00 14.7 C 49 % 4.11 C
1933 16-05-2016 17:00:00 14.8 C 48 % 3.91 C
1934 16-05-2016 17:05:00 14.4 C 45 % 2.63 C
1935 16-05-2016 17:10:00 14.1 C 48 % 3.27 C
1936 16-05-2016 17:15:00 13.7 C 50 % 3.48 C
1937 16-05-2016 17:20:00 13.3 C 52 % 3.66 C
1938 16-05-2016 17:25:00 13.1 C 51 % 3.2 C
1939 16-05-2016 17:30:00 12.9 C 52 % 3.29 C
1940 16-05-2016 17:35:00 12.7 C 53 % 3.38 C
1941 16-05-2016 17:40:00 12.7 C 54 % 3.64 C
1942 16-05-2016 17:45:00 12.6 C 55 % 3.81 C
1943 16-05-2016 17:50:00 12.7 C 54 % 3.64 C
1944 16-05-2016 17:55:00 12.7 C 54 % 3.64 C
1945 16-05-2016 18:00:00 12.8 C 52 % 3.2 C
1946 16-05-2016 18:05:00 12.8 C 50 % 2.65 C
1947 16-05-2016 18:10:00 13 C 50 % 2.83 C
1948 16-05-2016 18:15:00 13.3 C 49 % 2.83 C
1949 16-05-2016 18:20:00 13.4 C 48 % 2.63 C
1950 16-05-2016 18:25:00 13.3 C 46 % 1.94 C
Sensor: Nr:Datum:Temp:Feuchte:Taupunkt:
Aussen-T/F 1951 16-05-2016 18:30:00 13.1 C 47 % 2.06 C
1952 16-05-2016 18:35:00 13 C 49 % 2.55 C
1953 16-05-2016 18:40:00 12.9 C 50 % 2.74 C
1954 16-05-2016 18:45:00 12.8 C 50 % 2.65 C
1955 16-05-2016 18:50:00 12.7 C 52 % 3.11 C
1956 16-05-2016 18:55:00 12.7 C 53 % 3.38 C
1957 16-05-2016 19:00:00 12.6 C 53 % 3.29 C
1958 16-05-2016 19:05:00 12.4 C 53 % 3.1 C
1959 16-05-2016 19:10:00 12.3 C 53 % 3.01 C
1960 16-05-2016 19:15:00 12.2 C 54 % 3.18 C
1961 16-05-2016 19:20:00 12.2 C 55 % 3.44 C
1962 16-05-2016 19:25:00 12.1 C 54 % 3.09 C
1963 16-05-2016 19:30:00 12.1 C 55 % 3.34 C
1964 16-05-2016 19:35:00 12.1 C 57 % 3.85 C
1965 16-05-2016 19:40:00 12.1 C 55 % 3.34 C
1966 16-05-2016 19:45:00 12.1 C 56 % 3.6 C
1967 16-05-2016 19:50:00 12.1 C 62 % 5.05 C
1968 16-05-2016 19:55:00 12 C 60 % 4.49 C
1969 16-05-2016 20:00:00 11.9 C 58 % 3.91 C
1970 16-05-2016 20:05:00 11.9 C 58 % 3.91 C
1971 16-05-2016 20:10:00 11.9 C 59 % 4.15 C
1972 16-05-2016 20:15:00 12 C 59 % 4.25 C
1973 16-05-2016 20:20:00 12.1 C 58 % 4.1 C
1974 16-05-2016 20:25:00 12 C 57 % 3.76 C
1975 16-05-2016 20:30:00 11.8 C 58 % 3.82 C
Sensor: Nr:Datum:Temp:Feuchte:Taupunkt:
Aussen-T/F 1976 16-05-2016 20:35:00 11.8 C 62 % 4.77 C
1977 16-05-2016 20:40:00 11.7 C 60 % 4.2 C
1978 16-05-2016 20:45:00 11.6 C 64 % 5.03 C
1979 16-05-2016 20:50:00 11.3 C 66 % 5.19 C
1980 16-05-2016 20:55:00 11.1 C 67 % 5.21 C
1981 16-05-2016 21:00:00 10.9 C 70 % 5.65 C
1982 16-05-2016 21:05:00 10.7 C 69 % 5.25 C
1983 16-05-2016 21:10:00 10.5 C 70 % 5.27 C
1984 16-05-2016 21:15:00 10.3 C 70 % 5.08 C
1985 16-05-2016 21:20:00 10.2 C 72 % 5.39 C
1986 16-05-2016 21:25:00 10.1 C 72 % 5.29 C
1987 16-05-2016 21:30:00 10 C 72 % 5.19 C
1988 16-05-2016 21:35:00 9.8 C 73 % 5.2 C
1989 16-05-2016 21:40:00 9.7 C 72 % 4.9 C
1990 16-05-2016 21:45:00 9.7 C 72 % 4.9 C
1991 16-05-2016 21:50:00 9.7 C 73 % 5.1 C
1992 16-05-2016 21:55:00 9.7 C 72 % 4.9 C
1993 16-05-2016 22:00:00 9.7 C 74 % 5.3 C
1994 16-05-2016 22:05:00 9.7 C 74 % 5.3 C
1995 16-05-2016 22:10:00 9.6 C 74 % 5.2 C
1996 16-05-2016 22:15:00 9.6 C 74 % 5.2 C
1997 16-05-2016 22:20:00 9.5 C 75 % 5.3 C
1998 16-05-2016 22:25:00 9.4 C 75 % 5.2 C
1999 16-05-2016 22:30:00 9.4 C 74 % 5.01 C
2000 16-05-2016 22:35:00 9.3 C 75 % 5.1 C
Sensor: Nr:Datum:Temp:Feuchte:Taupunkt:
Aussen-T/F 2001 16-05-2016 22:40:00 9.3 C 76 % 5.29 C
2002 16-05-2016 22:45:00 9.3 C 76 % 5.29 C
2003 16-05-2016 22:50:00 9.2 C 77 % 5.38 C
2004 16-05-2016 22:55:00 9.1 C 76 % 5.1 C
2005 16-05-2016 23:00:00 9.1 C 77 % 5.29 C
2006 16-05-2016 23:05:00 9.1 C 78 % 5.47 C
2007 16-05-2016 23:10:00 9 C 79 % 5.56 C
2008 16-05-2016 23:15:00 8.9 C 79 % 5.46 C
2009 16-05-2016 23:20:00 8.9 C 80 % 5.64 C
2010 16-05-2016 23:25:00 8.9 C 80 % 5.64 C
2011 16-05-2016 23:30:00 8.8 C 80 % 5.55 C
2012 16-05-2016 23:35:00 8.8 C 80 % 5.55 C
2013 16-05-2016 23:40:00 8.8 C 81 % 5.72 C
2014 16-05-2016 23:45:00 8.8 C 81 % 5.72 C
2015 16-05-2016 23:50:00 8.7 C 81 % 5.63 C
2016 16-05-2016 23:55:00 8.7 C 81 % 5.63 C
2017 17-05-2016 00:00:00 8.7 C 82 % 5.8 C
2018 17-05-2016 00:05:00 8.7 C 82 % 5.8 C
2019 17-05-2016 00:10:00 8.6 C 82 % 5.71 C
2020 17-05-2016 00:15:00 8.6 C 82 % 5.71 C
2021 17-05-2016 00:20:00 8.6 C 82 % 5.71 C
2022 17-05-2016 00:25:00 8.6 C 83 % 5.88 C
2023 17-05-2016 00:30:00 8.6 C 83 % 5.88 C
2024 17-05-2016 00:35:00 8.6 C 83 % 5.88 C
2025 17-05-2016 00:40:00 8.5 C 83 % 5.78 C
Sensor: Nr:Datum:Temp:Feuchte:Taupunkt:
Aussen-T/F 2026 17-05-2016 00:45:00 8.4 C 82 % 5.51 C
2027 17-05-2016 00:50:00 8.4 C 83 % 5.69 C
2028 17-05-2016 00:55:00 8.3 C 83 % 5.59 C
2029 17-05-2016 01:00:00 8.3 C 83 % 5.59 C
2030 17-05-2016 01:05:00 8.3 C 83 % 5.59 C
2031 17-05-2016 01:10:00 8.2 C 83 % 5.49 C
2032 17-05-2016 01:15:00 8.2 C 84 % 5.66 C
2033 17-05-2016 01:20:00 8.1 C 84 % 5.56 C
2034 17-05-2016 01:25:00 8.1 C 84 % 5.56 C
2035 17-05-2016 01:30:00 8.1 C 84 % 5.56 C
2036 17-05-2016 01:35:00 8.1 C 84 % 5.56 C
2037 17-05-2016 01:40:00 8 C 84 % 5.47 C
2038 17-05-2016 01:45:00 8 C 84 % 5.47 C
2039 17-05-2016 01:50:00 7.9 C 85 % 5.54 C
2040 17-05-2016 01:55:00 7.9 C 85 % 5.54 C
2041 17-05-2016 02:00:00 7.9 C 85 % 5.54 C
2042 17-05-2016 02:05:00 7.9 C 85 % 5.54 C
2043 17-05-2016 02:10:00 7.9 C 85 % 5.54 C
2044 17-05-2016 02:15:00 7.8 C 85 % 5.44 C
2045 17-05-2016 02:20:00 7.8 C 85 % 5.44 C
2046 17-05-2016 02:25:00 7.8 C 85 % 5.44 C
2047 17-05-2016 02:30:00 7.8 C 85 % 5.44 C
2048 17-05-2016 02:35:00 7.8 C 85 % 5.44 C
2049 17-05-2016 02:40:00 7.8 C 85 % 5.44 C
2050 17-05-2016 02:45:00 7.8 C 85 % 5.44 C
Sensor: Nr:Datum:Temp:Feuchte:Taupunkt:
Aussen-T/F 2051 17-05-2016 02:50:00 7.8 C 86 % 5.61 C
2052 17-05-2016 02:55:00 7.8 C 86 % 5.61 C
2053 17-05-2016 03:00:00 7.8 C 86 % 5.61 C
2054 17-05-2016 03:05:00 7.8 C 86 % 5.61 C
2055 17-05-2016 03:10:00 7.8 C 86 % 5.61 C
2056 17-05-2016 03:15:00 7.8 C 86 % 5.61 C
2057 17-05-2016 03:20:00 7.8 C 86 % 5.61 C
2058 17-05-2016 03:25:00 7.8 C 86 % 5.61 C
2059 17-05-2016 03:30:00 7.8 C 87 % 5.78 C
2060 17-05-2016 03:35:00 7.8 C 86 % 5.61 C
2061 17-05-2016 03:40:00 7.7 C 87 % 5.68 C
2062 17-05-2016 03:45:00 7.7 C 87 % 5.68 C
2063 17-05-2016 03:50:00 7.7 C 87 % 5.68 C
2064 17-05-2016 03:55:00 7.7 C 87 % 5.68 C
2065 17-05-2016 04:00:00 7.7 C 87 % 5.68 C
2066 17-05-2016 04:05:00 7.7 C 87 % 5.68 C
2067 17-05-2016 04:10:00 7.7 C 87 % 5.68 C
2068 17-05-2016 04:15:00 7.7 C 87 % 5.68 C
2069 17-05-2016 04:20:00 7.7 C 88 % 5.84 C
2070 17-05-2016 04:25:00 7.7 C 88 % 5.84 C
2071 17-05-2016 04:30:00 7.7 C 88 % 5.84 C
2072 17-05-2016 04:35:00 7.7 C 88 % 5.84 C
2073 17-05-2016 04:40:00 7.6 C 88 % 5.74 C
2074 17-05-2016 04:45:00 7.6 C 88 % 5.74 C
2075 17-05-2016 04:50:00 7.6 C 88 % 5.74 C
Sensor: Nr:Datum:Temp:Feuchte:Taupunkt:
Aussen-T/F 2076 17-05-2016 04:55:00 7.6 C 88 % 5.74 C
2077 17-05-2016 05:00:00 7.6 C 87 % 5.58 C
2078 17-05-2016 05:05:00 7.6 C 86 % 5.41 C
2079 17-05-2016 05:10:00 7.6 C 86 % 5.41 C
2080 17-05-2016 05:15:00 7.6 C 87 % 5.58 C
2081 17-05-2016 05:20:00 7.7 C 87 % 5.68 C
2082 17-05-2016 05:25:00 7.7 C 87 % 5.68 C
2083 17-05-2016 05:30:00 7.7 C 86 % 5.51 C
2084 17-05-2016 05:35:00 7.7 C 86 % 5.51 C
2085 17-05-2016 05:40:00 7.7 C 86 % 5.51 C
2086 17-05-2016 05:45:00 7.7 C 86 % 5.51 C
2087 17-05-2016 05:50:00 7.7 C 86 % 5.51 C
2088 17-05-2016 05:55:00 7.7 C 87 % 5.68 C
2089 17-05-2016 06:00:00 7.7 C 87 % 5.68 C
2090 17-05-2016 06:05:00 7.7 C 87 % 5.68 C
2091 17-05-2016 06:10:00 7.7 C 87 % 5.68 C
2092 17-05-2016 06:15:00 7.7 C 87 % 5.68 C
2093 17-05-2016 06:20:00 7.8 C 87 % 5.78 C
2094 17-05-2016 06:25:00 7.8 C 86 % 5.61 C
2095 17-05-2016 06:30:00 7.8 C 86 % 5.61 C
2096 17-05-2016 06:35:00 7.8 C 86 % 5.61 C
2097 17-05-2016 06:40:00 7.8 C 86 % 5.61 C
2098 17-05-2016 06:45:00 7.9 C 85 % 5.54 C
2099 17-05-2016 06:50:00 8 C 85 % 5.64 C
2100 17-05-2016 06:55:00 8.1 C 85 % 5.73 C
Sensor: Nr:Datum:Temp:Feuchte:Taupunkt:
Aussen-T/F 2101 17-05-2016 07:00:00 8.1 C 85 % 5.73 C
2102 17-05-2016 07:05:00 8.2 C 85 % 5.83 C
2103 17-05-2016 07:10:00 8.2 C 85 % 5.83 C
2104 17-05-2016 07:15:00 8.3 C 84 % 5.76 C
2105 17-05-2016 07:20:00 8.3 C 83 % 5.59 C
2106 17-05-2016 07:25:00 8.4 C 84 % 5.86 C
2107 17-05-2016 07:30:00 8.4 C 84 % 5.86 C
2108 17-05-2016 07:35:00 8.6 C 84 % 6.05 C
2109 17-05-2016 07:40:00 8.7 C 84 % 6.15 C
2110 17-05-2016 07:45:00 8.7 C 83 % 5.98 C
2111 17-05-2016 07:50:00 8.8 C 83 % 6.08 C
2112 17-05-2016 07:55:00 8.9 C 82 % 6 C
2113 17-05-2016 08:00:00 9 C 82 % 6.1 C
2114 17-05-2016 08:05:00 9.1 C 81 % 6.02 C
2115 17-05-2016 08:10:00 9.2 C 81 % 6.11 C
2116 17-05-2016 08:15:00 9.3 C 81 % 6.21 C
2117 17-05-2016 08:20:00 9.4 C 80 % 6.13 C
2118 17-05-2016 08:25:00 9.5 C 79 % 6.05 C
2119 17-05-2016 08:30:00 9.6 C 79 % 6.14 C
2120 17-05-2016 08:35:00 9.7 C 79 % 6.24 C
2121 17-05-2016 08:40:00 9.8 C 78 % 6.15 C
2122 17-05-2016 08:45:00 9.9 C 79 % 6.43 C
2123 17-05-2016 08:50:00 10.1 C 78 % 6.44 C
2124 17-05-2016 08:55:00 10.3 C 77 % 6.45 C
2125 17-05-2016 09:00:00 10.4 C 75 % 6.17 C
Sensor: Nr:Datum:Temp:Feuchte:Taupunkt:
Aussen-T/F 2126 17-05-2016 09:05:00 10.5 C 76 % 6.45 C
2127 17-05-2016 09:10:00 10.6 C 76 % 6.55 C
2128 17-05-2016 09:15:00 10.8 C 75 % 6.55 C
2129 17-05-2016 09:20:00 10.9 C 75 % 6.65 C
2130 17-05-2016 09:25:00 11.1 C 74 % 6.65 C
2131 17-05-2016 09:30:00 11.2 C 73 % 6.55 C
2132 17-05-2016 09:35:00 11.3 C 72 % 6.44 C
2133 17-05-2016 09:40:00 11.4 C 71 % 6.34 C
2134 17-05-2016 09:45:00 11.6 C 70 % 6.32 C
2135 17-05-2016 09:50:00 11.6 C 69 % 6.11 C
2136 17-05-2016 09:55:00 11.7 C 70 % 6.42 C
2137 17-05-2016 10:00:00 11.8 C 69 % 6.31 C
2138 17-05-2016 10:05:00 11.9 C 69 % 6.4 C
2139 17-05-2016 10:10:00 11.9 C 69 % 6.4 C
2140 17-05-2016 10:15:00 12.1 C 69 % 6.59 C
2141 17-05-2016 10:20:00 12.2 C 69 % 6.69 C
2142 17-05-2016 10:25:00 12.3 C 67 % 6.36 C
2143 17-05-2016 10:30:00 12.5 C 67 % 6.55 C
2144 17-05-2016 10:35:00 12.7 C 65 % 6.3 C
2145 17-05-2016 10:40:00 12.8 C 67 % 6.83 C
2146 17-05-2016 10:45:00 12.9 C 66 % 6.71 C
2147 17-05-2016 10:50:00 13.1 C 66 % 6.9 C
2148 17-05-2016 10:55:00 13.2 C 65 % 6.77 C
2149 17-05-2016 11:00:00 13.3 C 64 % 6.64 C
2150 17-05-2016 11:05:00 13.4 C 64 % 6.74 C
Sensor: Nr:Datum:Temp:Feuchte:Taupunkt:
Aussen-T/F 2151 17-05-2016 11:10:00 13.6 C 62 % 6.47 C
2152 17-05-2016 11:15:00 13.8 C 60 % 6.18 C
2153 17-05-2016 11:20:00 13.8 C 61 % 6.42 C
2154 17-05-2016 11:25:00 14 C 61 % 6.61 C
2155 17-05-2016 11:30:00 14.1 C 60 % 6.46 C
2156 17-05-2016 11:35:00 14.2 C 59 % 6.31 C
2157 17-05-2016 11:40:00 14.3 C 60 % 6.65 C
2158 17-05-2016 11:45:00 14.5 C 58 % 6.35 C
2159 17-05-2016 11:50:00 14.6 C 55 % 5.67 C
2160 17-05-2016 11:55:00 14.7 C 55 % 5.76 C
2161 17-05-2016 12:00:00 14.8 C 53 % 5.32 C
2162 17-05-2016 12:05:00 14.8 C 55 % 5.86 C
2163 17-05-2016 12:10:00 14.9 C 55 % 5.95 C
2164 17-05-2016 12:15:00 15 C 54 % 5.78 C
2165 17-05-2016 12:20:00 15.1 C 55 % 6.14 C
2166 17-05-2016 12:25:00 15.1 C 53 % 5.6 C
2167 17-05-2016 12:30:00 15.2 C 53 % 5.69 C
2168 17-05-2016 12:35:00 15.2 C 53 % 5.69 C
2169 17-05-2016 12:40:00 15.2 C 52 % 5.42 C
2170 17-05-2016 12:45:00 15.2 C 54 % 5.96 C
2171 17-05-2016 12:50:00 15.3 C 49 % 4.66 C
2172 17-05-2016 12:55:00 15.3 C 51 % 5.23 C
2173 17-05-2016 13:00:00 15.5 C 51 % 5.42 C
2174 17-05-2016 13:05:00 15.6 C 49 % 4.94 C
2175 17-05-2016 13:10:00 15.6 C 51 % 5.51 C
Sensor: Nr:Datum:Temp:Feuchte:Taupunkt:
Aussen-T/F 2176 17-05-2016 13:15:00 15.6 C 50 % 5.23 C
2177 17-05-2016 13:20:00 15.6 C 49 % 4.94 C
2178 17-05-2016 13:25:00 15.5 C 49 % 4.84 C
2179 17-05-2016 13:30:00 15.6 C 51 % 5.51 C
2180 17-05-2016 13:35:00 15.6 C 51 % 5.51 C
2181 17-05-2016 13:40:00 15.8 C 50 % 5.41 C
2182 17-05-2016 13:45:00 16.1 C 47 % 4.8 C
2183 17-05-2016 13:50:00 16.3 C 47 % 4.98 C
2184 17-05-2016 13:55:00 16.6 C 47 % 5.25 C
2185 17-05-2016 14:00:00 16.7 C 46 % 5.04 C
2186 17-05-2016 14:05:00 16.7 C 45 % 4.72 C
2187 17-05-2016 14:10:00 16.7 C 45 % 4.72 C
2188 17-05-2016 14:15:00 16.9 C 47 % 5.53 C
2189 17-05-2016 14:20:00 17.1 C 45 % 5.08 C
2190 17-05-2016 14:25:00 17.1 C 45 % 5.08 C
2191 17-05-2016 14:30:00 17.2 C 44 % 4.85 C
2192 17-05-2016 14:35:00 17.1 C 42 % 4.1 C
2193 17-05-2016 14:40:00 17 C 45 % 4.99 C
2194 17-05-2016 14:45:00 17.1 C 46 % 5.4 C
2195 17-05-2016 14:50:00 17.2 C 44 % 4.85 C
2196 17-05-2016 14:55:00 17.3 C 45 % 5.27 C
2197 17-05-2016 15:00:00 17.2 C 43 % 4.53 C
2198 17-05-2016 15:05:00 17.1 C 45 % 5.08 C
2199 17-05-2016 15:10:00 17 C 44 % 4.67 C
2200 17-05-2016 15:15:00 16.9 C 46 % 5.22 C
Sensor: Nr:Datum:Temp:Feuchte:Taupunkt:
Aussen-T/F 2201 17-05-2016 15:20:00 16.7 C 47 % 5.34 C
2202 17-05-2016 15:25:00 16.6 C 48 % 5.56 C
2203 17-05-2016 15:30:00 16.7 C 47 % 5.34 C
2204 17-05-2016 15:35:00 17 C 48 % 5.92 C
2205 17-05-2016 15:40:00 17.3 C 45 % 5.27 C
2206 17-05-2016 15:45:00 17.3 C 45 % 5.27 C
2207 17-05-2016 15:50:00 17.2 C 46 % 5.49 C
2208 17-05-2016 15:55:00 17.2 C 46 % 5.49 C
2209 17-05-2016 16:00:00 17.5 C 48 % 6.38 C
2210 17-05-2016 16:05:00 17.8 C 46 % 6.04 C
2211 17-05-2016 16:10:00 17.9 C 45 % 5.81 C
2212 17-05-2016 16:15:00 17.7 C 47 % 6.26 C
2213 17-05-2016 16:20:00 17.7 C 47 % 6.26 C
2214 17-05-2016 16:25:00 17.7 C 46 % 5.95 C
2215 17-05-2016 16:30:00 17.7 C 46 % 5.95 C
2216 17-05-2016 16:35:00 17.7 C 48 % 6.56 C
2217 17-05-2016 16:40:00 17.4 C 48 % 6.29 C
2218 17-05-2016 16:45:00 17.1 C 49 % 6.31 C
2219 17-05-2016 16:50:00 16.8 C 50 % 6.33 C
2220 17-05-2016 16:55:00 16.7 C 49 % 5.95 C
2221 17-05-2016 17:00:00 16.7 C 48 % 5.65 C
2222 17-05-2016 17:05:00 16.9 C 52 % 6.99 C
2223 17-05-2016 17:10:00 17.3 C 50 % 6.79 C
2224 17-05-2016 17:15:00 17.4 C 49 % 6.59 C
2225 17-05-2016 17:20:00 17.2 C 48 % 6.11 C
Sensor: Nr:Datum:Temp:Feuchte:Taupunkt:
Aussen-T/F 2226 17-05-2016 17:25:00 17 C 50 % 6.51 C
2227 17-05-2016 17:30:00 16.7 C 51 % 6.52 C
2228 17-05-2016 17:35:00 16.4 C 50 % 5.96 C
2229 17-05-2016 17:40:00 16.2 C 51 % 6.06 C
2230 17-05-2016 17:45:00 16.1 C 52 % 6.25 C
2231 17-05-2016 17:50:00 16.1 C 55 % 7.07 C
2232 17-05-2016 17:55:00 16.1 C 54 % 6.8 C
2233 17-05-2016 18:00:00 16.1 C 55 % 7.07 C
2234 17-05-2016 18:05:00 16.2 C 56 % 7.42 C
2235 17-05-2016 18:10:00 16.3 C 53 % 6.71 C
2236 17-05-2016 18:15:00 16.6 C 54 % 7.26 C
2237 17-05-2016 18:20:00 16.9 C 52 % 6.99 C
2238 17-05-2016 18:25:00 17 C 53 % 7.36 C
2239 17-05-2016 18:30:00 17 C 52 % 7.08 C
2240 17-05-2016 18:35:00 16.9 C 54 % 7.54 C
2241 17-05-2016 18:40:00 16.8 C 53 % 7.18 C
2242 17-05-2016 18:45:00 16.7 C 53 % 7.08 C
2243 17-05-2016 18:50:00 16.6 C 59 % 8.56 C
2244 17-05-2016 18:55:00 16.5 C 54 % 7.17 C
2245 17-05-2016 19:00:00 16.4 C 59 % 8.38 C
2246 17-05-2016 19:05:00 16.3 C 60 % 8.53 C
2247 17-05-2016 19:10:00 16.2 C 61 % 8.68 C
2248 17-05-2016 19:15:00 16.1 C 60 % 8.34 C
2249 17-05-2016 19:20:00 15.9 C 63 % 8.87 C
2250 17-05-2016 19:25:00 15.9 C 60 % 8.15 C
Sensor: Nr:Datum:Temp:Feuchte:Taupunkt:
Aussen-T/F 2251 17-05-2016 19:30:00 15.9 C 59 % 7.91 C
2252 17-05-2016 19:35:00 15.8 C 62 % 8.54 C
2253 17-05-2016 19:40:00 15.7 C 63 % 8.68 C
2254 17-05-2016 19:45:00 15.7 C 65 % 9.15 C
2255 17-05-2016 19:50:00 15.6 C 64 % 8.82 C
2256 17-05-2016 19:55:00 15.4 C 67 % 9.31 C
2257 17-05-2016 20:00:00 15.3 C 67 % 9.21 C
2258 17-05-2016 20:05:00 15.1 C 66 % 8.8 C
2259 17-05-2016 20:10:00 14.9 C 67 % 8.83 C
2260 17-05-2016 20:15:00 14.8 C 67 % 8.74 C
2261 17-05-2016 20:20:00 14.6 C 67 % 8.55 C
2262 17-05-2016 20:25:00 14.5 C 66 % 8.23 C
2263 17-05-2016 20:30:00 14.4 C 67 % 8.36 C
2264 17-05-2016 20:35:00 14.4 C 65 % 7.91 C
2265 17-05-2016 20:40:00 14.4 C 65 % 7.91 C
2266 17-05-2016 20:45:00 14.4 C 67 % 8.36 C
2267 17-05-2016 20:50:00 14.3 C 68 % 8.48 C
2268 17-05-2016 20:55:00 14.2 C 67 % 8.17 C
2269 17-05-2016 21:00:00 14.2 C 68 % 8.39 C
2270 17-05-2016 21:05:00 14.1 C 69 % 8.5 C
2271 17-05-2016 21:10:00 13.9 C 69 % 8.31 C
2272 17-05-2016 21:15:00 13.8 C 70 % 8.43 C
2273 17-05-2016 21:20:00 13.7 C 70 % 8.33 C
2274 17-05-2016 21:25:00 13.7 C 71 % 8.54 C
2275 17-05-2016 21:30:00 13.6 C 72 % 8.65 C
Sensor: Nr:Datum:Temp:Feuchte:Taupunkt:
Aussen-T/F 2276 17-05-2016 21:35:00 13.4 C 72 % 8.46 C
2277 17-05-2016 21:40:00 13.3 C 71 % 8.16 C
2278 17-05-2016 21:45:00 13.3 C 72 % 8.36 C
2279 17-05-2016 21:50:00 13.2 C 72 % 8.27 C
2280 17-05-2016 21:55:00 13.2 C 72 % 8.27 C
2281 17-05-2016 22:00:00 13.1 C 72 % 8.17 C
2282 17-05-2016 22:05:00 13.1 C 72 % 8.17 C
2283 17-05-2016 22:10:00 13.1 C 73 % 8.38 C
2284 17-05-2016 22:15:00 13 C 73 % 8.28 C
2285 17-05-2016 22:20:00 12.9 C 73 % 8.18 C
2286 17-05-2016 22:25:00 12.9 C 73 % 8.18 C
2287 17-05-2016 22:30:00 12.8 C 73 % 8.09 C
2288 17-05-2016 22:35:00 12.7 C 74 % 8.19 C
2289 17-05-2016 22:40:00 12.6 C 74 % 8.09 C
2290 17-05-2016 22:45:00 12.5 C 74 % 8 C
2291 17-05-2016 22:50:00 12.4 C 74 % 7.9 C
2292 17-05-2016 22:55:00 12.3 C 75 % 8 C
2293 17-05-2016 23:00:00 12.3 C 75 % 8 C
2294 17-05-2016 23:05:00 12.2 C 75 % 7.91 C
2295 17-05-2016 23:10:00 12.1 C 76 % 8 C
2296 17-05-2016 23:15:00 12.1 C 76 % 8 C
2297 17-05-2016 23:20:00 12 C 76 % 7.91 C
2298 17-05-2016 23:25:00 11.9 C 76 % 7.81 C
2299 17-05-2016 23:30:00 11.9 C 77 % 8 C
2300 17-05-2016 23:35:00 11.9 C 77 % 8 C
Sensor: Nr:Datum:Temp:Feuchte:Taupunkt:
Aussen-T/F 2301 17-05-2016 23:40:00 11.9 C 77 % 8 C
2302 17-05-2016 23:45:00 11.8 C 78 % 8.09 C
2303 17-05-2016 23:50:00 11.8 C 78 % 8.09 C
2304 17-05-2016 23:55:00 11.8 C 78 % 8.09 C
2305 18-05-2016 00:00:00 11.8 C 78 % 8.09 C
2306 18-05-2016 00:05:00 11.8 C 78 % 8.09 C
2307 18-05-2016 00:10:00 11.8 C 78 % 8.09 C
2308 18-05-2016 00:15:00 11.8 C 78 % 8.09 C
2309 18-05-2016 00:20:00 11.8 C 78 % 8.09 C
2310 18-05-2016 00:25:00 11.8 C 77 % 7.9 C
2311 18-05-2016 00:30:00 11.8 C 78 % 8.09 C
2312 18-05-2016 00:35:00 11.8 C 78 % 8.09 C
2313 18-05-2016 00:40:00 11.8 C 77 % 7.9 C
2314 18-05-2016 00:45:00 11.8 C 78 % 8.09 C
2315 18-05-2016 00:50:00 11.8 C 78 % 8.09 C
2316 18-05-2016 00:55:00 11.8 C 78 % 8.09 C
2317 18-05-2016 01:00:00 11.8 C 78 % 8.09 C
2318 18-05-2016 01:05:00 11.8 C 79 % 8.28 C
2319 18-05-2016 01:10:00 11.7 C 79 % 8.18 C
2320 18-05-2016 01:15:00 11.6 C 79 % 8.09 C
2321 18-05-2016 01:20:00 11.5 C 79 % 7.99 C
2322 18-05-2016 01:25:00 11.4 C 80 % 8.08 C
2323 18-05-2016 01:30:00 11.4 C 80 % 8.08 C
2324 18-05-2016 01:35:00 11.3 C 79 % 7.8 C
2325 18-05-2016 01:40:00 11.3 C 80 % 7.98 C
Sensor: Nr:Datum:Temp:Feuchte:Taupunkt:
Aussen-T/F 2326 18-05-2016 01:45:00 11.3 C 80 % 7.98 C
2327 18-05-2016 01:50:00 11.2 C 81 % 8.06 C
2328 18-05-2016 01:55:00 11.2 C 81 % 8.06 C
2329 18-05-2016 02:00:00 11.1 C 81 % 7.97 C
2330 18-05-2016 02:05:00 11.1 C 81 % 7.97 C
2331 18-05-2016 02:10:00 11.1 C 81 % 7.97 C
2332 18-05-2016 02:15:00 11.1 C 81 % 7.97 C
2333 18-05-2016 02:20:00 11.1 C 81 % 7.97 C
2334 18-05-2016 02:25:00 11.1 C 82 % 8.15 C
2335 18-05-2016 02:30:00 11.1 C 82 % 8.15 C
2336 18-05-2016 02:35:00 11.1 C 83 % 8.33 C
2337 18-05-2016 02:40:00 11.1 C 83 % 8.33 C
2338 18-05-2016 02:45:00 11 C 83 % 8.23 C
2339 18-05-2016 02:50:00 11 C 83 % 8.23 C
2340 18-05-2016 02:55:00 10.9 C 83 % 8.13 C
2341 18-05-2016 03:00:00 10.9 C 83 % 8.13 C
2342 18-05-2016 03:05:00 10.9 C 83 % 8.13 C
2343 18-05-2016 03:10:00 10.9 C 84 % 8.31 C
2344 18-05-2016 03:15:00 10.9 C 84 % 8.31 C
2345 18-05-2016 03:20:00 10.9 C 84 % 8.31 C
2346 18-05-2016 03:25:00 10.9 C 84 % 8.31 C
2347 18-05-2016 03:30:00 10.9 C 84 % 8.31 C
2348 18-05-2016 03:35:00 10.8 C 84 % 8.21 C
2349 18-05-2016 03:40:00 10.9 C 84 % 8.31 C
2350 18-05-2016 03:45:00 10.9 C 84 % 8.31 C
Sensor: Nr:Datum:Temp:Feuchte:Taupunkt:
Aussen-T/F 2351 18-05-2016 03:50:00 10.8 C 84 % 8.21 C
2352 18-05-2016 03:55:00 10.8 C 84 % 8.21 C
2353 18-05-2016 04:00:00 10.8 C 84 % 8.21 C
2354 18-05-2016 04:05:00 10.8 C 84 % 8.21 C
2355 18-05-2016 04:10:00 10.9 C 84 % 8.31 C
2356 18-05-2016 04:15:00 10.8 C 83 % 8.03 C
2357 18-05-2016 04:20:00 10.9 C 83 % 8.13 C
2358 18-05-2016 04:25:00 10.9 C 83 % 8.13 C
2359 18-05-2016 04:30:00 10.9 C 83 % 8.13 C
2360 18-05-2016 04:35:00 10.9 C 83 % 8.13 C
2361 18-05-2016 04:40:00 10.9 C 83 % 8.13 C
2362 18-05-2016 04:45:00 10.9 C 83 % 8.13 C
2363 18-05-2016 04:50:00 11 C 83 % 8.23 C
2364 18-05-2016 04:55:00 11 C 83 % 8.23 C
2365 18-05-2016 05:00:00 11 C 83 % 8.23 C
2366 18-05-2016 05:05:00 11.1 C 83 % 8.33 C
2367 18-05-2016 05:10:00 11.1 C 83 % 8.33 C
2368 18-05-2016 05:15:00 11.1 C 82 % 8.15 C
2369 18-05-2016 05:20:00 11.1 C 83 % 8.33 C
2370 18-05-2016 05:25:00 11.1 C 82 % 8.15 C
2371 18-05-2016 05:30:00 11.1 C 83 % 8.33 C
2372 18-05-2016 05:35:00 11.1 C 83 % 8.33 C
2373 18-05-2016 05:40:00 11.1 C 83 % 8.33 C
2374 18-05-2016 05:45:00 11.1 C 83 % 8.33 C
2375 18-05-2016 05:50:00 11.2 C 82 % 8.25 C
Sensor: Nr:Datum:Temp:Feuchte:Taupunkt:
Aussen-T/F 2376 18-05-2016 05:55:00 11.2 C 83 % 8.42 C
2377 18-05-2016 06:00:00 11.2 C 83 % 8.42 C
2378 18-05-2016 06:05:00 11.2 C 83 % 8.42 C
2379 18-05-2016 06:10:00 11.2 C 83 % 8.42 C
2380 18-05-2016 06:15:00 11.2 C 83 % 8.42 C
2381 18-05-2016 06:20:00 11.1 C 83 % 8.33 C
2382 18-05-2016 06:25:00 11.1 C 83 % 8.33 C
2383 18-05-2016 06:30:00 11.1 C 83 % 8.33 C
2384 18-05-2016 06:35:00 11.1 C 83 % 8.33 C
2385 18-05-2016 06:40:00 11.1 C 84 % 8.5 C
2386 18-05-2016 06:45:00 11.2 C 84 % 8.6 C
2387 18-05-2016 06:50:00 11.1 C 84 % 8.5 C
2388 18-05-2016 06:55:00 11.1 C 84 % 8.5 C
2389 18-05-2016 07:00:00 11.2 C 85 % 8.77 C
2390 18-05-2016 07:05:00 11.2 C 85 % 8.77 C
2391 18-05-2016 07:10:00 11.2 C 84 % 8.6 C
2392 18-05-2016 07:15:00 11.2 C 85 % 8.77 C
2393 18-05-2016 07:20:00 11.3 C 84 % 8.7 C
2394 18-05-2016 07:25:00 11.3 C 84 % 8.7 C
2395 18-05-2016 07:30:00 11.4 C 84 % 8.8 C
2396 18-05-2016 07:35:00 11.5 C 84 % 8.89 C
2397 18-05-2016 07:40:00 11.6 C 84 % 8.99 C
2398 18-05-2016 07:45:00 11.7 C 84 % 9.09 C
2399 18-05-2016 07:50:00 11.8 C 84 % 9.19 C
2400 18-05-2016 07:55:00 11.8 C 84 % 9.19 C
Sensor: Nr:Datum:Temp:Feuchte:Taupunkt:
Aussen-T/F 2401 18-05-2016 08:00:00 11.9 C 83 % 9.11 C
2402 18-05-2016 08:05:00 12.1 C 83 % 9.3 C
2403 18-05-2016 08:10:00 12.2 C 82 % 9.22 C
2404 18-05-2016 08:15:00 12.4 C 81 % 9.23 C
2405 18-05-2016 08:20:00 12.6 C 82 % 9.61 C
2406 18-05-2016 08:25:00 12.7 C 80 % 9.34 C
2407 18-05-2016 08:30:00 12.7 C 81 % 9.53 C
2408 18-05-2016 08:35:00 12.8 C 81 % 9.62 C
2409 18-05-2016 08:40:00 13 C 80 % 9.63 C
2410 18-05-2016 08:45:00 13.1 C 80 % 9.73 C
2411 18-05-2016 08:50:00 13.2 C 80 % 9.83 C
2412 18-05-2016 08:55:00 13.3 C 79 % 9.74 C
2413 18-05-2016 09:00:00 13.4 C 79 % 9.84 C
2414 18-05-2016 09:05:00 13.6 C 80 % 10.22 C
2415 18-05-2016 09:10:00 13.7 C 79 % 10.13 C
2416 18-05-2016 09:15:00 13.8 C 78 % 10.03 C
2417 18-05-2016 09:20:00 13.9 C 78 % 10.13 C
2418 18-05-2016 09:25:00 14.1 C 78 % 10.33 C
2419 18-05-2016 09:30:00 14.1 C 77 % 10.13 C
2420 18-05-2016 09:35:00 14.2 C 77 % 10.23 C
2421 18-05-2016 09:40:00 14.3 C 77 % 10.33 C
2422 18-05-2016 09:45:00 14.4 C 77 % 10.42 C
2423 18-05-2016 09:50:00 14.6 C 76 % 10.42 C
2424 18-05-2016 09:55:00 14.8 C 77 % 10.81 C
2425 18-05-2016 10:00:00 15 C 75 % 10.61 C
Sensor: Nr:Datum:Temp:Feuchte:Taupunkt:
Aussen-T/F 2426 18-05-2016 10:05:00 15.1 C 74 % 10.5 C
2427 18-05-2016 10:10:00 15.3 C 75 % 10.9 C
2428 18-05-2016 10:15:00 15.4 C 73 % 10.59 C
2429 18-05-2016 10:20:00 15.6 C 72 % 10.57 C
2430 18-05-2016 10:25:00 15.8 C 72 % 10.77 C
2431 18-05-2016 10:30:00 15.9 C 70 % 10.44 C
2432 18-05-2016 10:35:00 16 C 71 % 10.75 C
2433 18-05-2016 10:40:00 16.2 C 71 % 10.94 C
2434 18-05-2016 10:45:00 16.3 C 72 % 11.25 C
2435 18-05-2016 10:50:00 16.4 C 71 % 11.13 C
2436 18-05-2016 10:55:00 16.6 C 67 % 10.45 C
2437 18-05-2016 11:00:00 16.6 C 66 % 10.23 C
2438 18-05-2016 11:05:00 16.7 C 66 % 10.32 C
2439 18-05-2016 11:10:00 16.7 C 65 % 10.09 C
2440 18-05-2016 11:15:00 16.7 C 66 % 10.32 C
2441 18-05-2016 11:20:00 16.7 C 66 % 10.32 C
2442 18-05-2016 11:25:00 16.7 C 65 % 10.09 C
2443 18-05-2016 11:30:00 16.7 C 65 % 10.09 C
2444 18-05-2016 11:35:00 16.7 C 67 % 10.55 C
2445 18-05-2016 11:40:00 16.8 C 64 % 9.96 C
2446 18-05-2016 11:45:00 17 C 63 % 9.91 C
2447 18-05-2016 11:50:00 17.1 C 63 % 10.01 C
2448 18-05-2016 11:55:00 17.2 C 62 % 9.86 C
2449 18-05-2016 12:00:00 17.2 C 62 % 9.86 C
2450 18-05-2016 12:05:00 17.2 C 65 % 10.57 C
Sensor: Nr:Datum:Temp:Feuchte:Taupunkt:
Aussen-T/F 2451 18-05-2016 12:10:00 17.2 C 63 % 10.1 C
2452 18-05-2016 12:15:00 17.2 C 61 % 9.62 C
2453 18-05-2016 12:20:00 17.2 C 61 % 9.62 C
2454 18-05-2016 12:25:00 17.3 C 63 % 10.2 C
2455 18-05-2016 12:30:00 17.4 C 60 % 9.56 C
2456 18-05-2016 12:35:00 17.6 C 61 % 10 C
2457 18-05-2016 12:40:00 17.7 C 59 % 9.59 C
2458 18-05-2016 12:45:00 17.7 C 60 % 9.84 C
2459 18-05-2016 12:50:00 17.7 C 61 % 10.09 C
2460 18-05-2016 12:55:00 17.7 C 61 % 10.09 C
2461 18-05-2016 13:00:00 17.8 C 60 % 9.94 C
2462 18-05-2016 13:05:00 17.9 C 59 % 9.78 C
2463 18-05-2016 13:10:00 18.1 C 60 % 10.22 C
2464 18-05-2016 13:15:00 18.3 C 59 % 10.16 C
2465 18-05-2016 13:20:00 18.4 C 58 % 9.99 C
2466 18-05-2016 13:25:00 18.4 C 58 % 9.99 C
2467 18-05-2016 13:30:00 18.4 C 57 % 9.74 C
2468 18-05-2016 13:35:00 18.6 C 58 % 10.18 C
2469 18-05-2016 13:40:00 18.6 C 54 % 9.12 C
2470 18-05-2016 13:45:00 18.5 C 57 % 9.83 C
2471 18-05-2016 13:50:00 18.4 C 56 % 9.47 C
2472 18-05-2016 13:55:00 18.5 C 55 % 9.3 C
2473 18-05-2016 14:00:00 18.7 C 54 % 9.21 C
2474 18-05-2016 14:05:00 18.9 C 54 % 9.4 C
2475 18-05-2016 14:10:00 19 C 54 % 9.49 C
Sensor: Nr:Datum:Temp:Feuchte:Taupunkt:
Aussen-T/F 2476 18-05-2016 14:15:00 19.1 C 53 % 9.3 C
2477 18-05-2016 14:20:00 19.1 C 52 % 9.02 C
2478 18-05-2016 14:25:00 19 C 52 % 8.93 C
2479 18-05-2016 14:30:00 18.8 C 52 % 8.75 C
2480 18-05-2016 14:35:00 18.7 C 53 % 8.93 C
2481 18-05-2016 14:40:00 18.7 C 54 % 9.21 C
2482 18-05-2016 14:45:00 18.7 C 58 % 10.28 C
2483 18-05-2016 14:50:00 18.7 C 53 % 8.93 C
2484 18-05-2016 14:55:00 18.7 C 54 % 9.21 C
2485 18-05-2016 15:00:00 18.6 C 53 % 8.84 C
2486 18-05-2016 15:05:00 18.6 C 60 % 10.69 C
2487 18-05-2016 15:10:00 18.7 C 61 % 11.03 C
2488 18-05-2016 15:15:00 18.5 C 61 % 10.84 C
2489 18-05-2016 15:20:00 18.4 C 61 % 10.75 C
2490 18-05-2016 15:25:00 18.4 C 54 % 8.93 C
2491 18-05-2016 15:30:00 18.5 C 61 % 10.84 C
2492 18-05-2016 15:35:00 18.5 C 57 % 9.83 C
2493 18-05-2016 15:40:00 18.7 C 56 % 9.75 C
2494 18-05-2016 15:45:00 19 C 53 % 9.21 C
2495 18-05-2016 15:50:00 19.3 C 54 % 9.77 C
2496 18-05-2016 15:55:00 19.4 C 53 % 9.58 C
2497 18-05-2016 16:00:00 19.4 C 50 % 8.72 C
2498 18-05-2016 16:05:00 19.2 C 51 % 8.83 C
2499 18-05-2016 16:10:00 19.2 C 51 % 8.83 C
2500 18-05-2016 16:15:00 19.2 C 54 % 9.67 C
Sensor: Nr:Datum:Temp:Feuchte:Taupunkt:
Aussen-T/F 2501 18-05-2016 16:20:00 19.2 C 53 % 9.4 C
2502 18-05-2016 16:25:00 19.3 C 52 % 9.21 C
2503 18-05-2016 16:30:00 19.4 C 53 % 9.58 C
2504 18-05-2016 16:35:00 19.5 C 52 % 9.39 C
2505 18-05-2016 16:40:00 19.6 C 51 % 9.2 C
2506 18-05-2016 16:45:00 19.6 C 52 % 9.48 C
2507 18-05-2016 16:50:00 19.7 C 54 % 10.14 C
2508 18-05-2016 16:55:00 19.9 C 49 % 8.88 C
2509 18-05-2016 17:00:00 20 C 49 % 8.97 C
2510 18-05-2016 17:05:00 20 C 50 % 9.27 C
2511 18-05-2016 17:10:00 19.8 C 49 % 8.79 C
2512 18-05-2016 17:15:00 19.7 C 50 % 8.99 C
2513 18-05-2016 17:20:00 19.4 C 51 % 9.01 C
2514 18-05-2016 17:25:00 19.1 C 57 % 10.39 C
2515 18-05-2016 17:30:00 18.7 C 52 % 8.65 C
2516 18-05-2016 17:35:00 18.6 C 59 % 10.44 C
2517 18-05-2016 17:40:00 18.4 C 60 % 10.5 C
2518 18-05-2016 17:45:00 18.3 C 59 % 10.16 C
2519 18-05-2016 17:50:00 18.4 C 63 % 11.23 C
2520 18-05-2016 17:55:00 18.5 C 64 % 11.57 C
2521 18-05-2016 18:00:00 18.6 C 64 % 11.66 C
2522 18-05-2016 18:05:00 18.5 C 59 % 10.34 C
2523 18-05-2016 18:10:00 18.6 C 64 % 11.66 C
2524 18-05-2016 18:15:00 18.6 C 66 % 12.13 C
2525 18-05-2016 18:20:00 18.6 C 68 % 12.58 C
Sensor: Nr:Datum:Temp:Feuchte:Taupunkt:
Aussen-T/F 2526 18-05-2016 18:25:00 18.6 C 69 % 12.8 C
2527 18-05-2016 18:30:00 18.4 C 69 % 12.61 C
2528 18-05-2016 18:35:00 18.3 C 65 % 11.61 C
2529 18-05-2016 18:40:00 18.2 C 67 % 11.98 C
2530 18-05-2016 18:45:00 18.1 C 68 % 12.11 C
2531 18-05-2016 18:50:00 17.9 C 68 % 11.91 C
2532 18-05-2016 18:55:00 17.7 C 69 % 11.95 C
2533 18-05-2016 19:00:00 17.6 C 69 % 11.85 C
2534 18-05-2016 19:05:00 17.3 C 69 % 11.56 C
2535 18-05-2016 19:10:00 17.2 C 69 % 11.47 C
2536 18-05-2016 19:15:00 17 C 70 % 11.49 C
2537 18-05-2016 19:20:00 16.8 C 71 % 11.52 C
2538 18-05-2016 19:25:00 16.7 C 71 % 11.42 C
2539 18-05-2016 19:30:00 16.5 C 72 % 11.44 C
2540 18-05-2016 19:35:00 16.3 C 71 % 11.04 C
2541 18-05-2016 19:40:00 16.2 C 71 % 10.94 C
2542 18-05-2016 19:45:00 16.1 C 71 % 10.84 C
2543 18-05-2016 19:50:00 15.9 C 71 % 10.65 C
2544 18-05-2016 19:55:00 15.8 C 71 % 10.56 C
2545 18-05-2016 20:00:00 15.8 C 71 % 10.56 C
2546 18-05-2016 20:05:00 15.7 C 70 % 10.25 C
2547 18-05-2016 20:10:00 15.6 C 73 % 10.78 C
2548 18-05-2016 20:15:00 15.5 C 75 % 11.09 C
2549 18-05-2016 20:20:00 15.3 C 79 % 11.68 C
2550 18-05-2016 20:25:00 15 C 78 % 11.2 C
Sensor: Nr:Datum:Temp:Feuchte:Taupunkt:
Aussen-T/F 2551 18-05-2016 20:30:00 14.8 C 80 % 11.39 C
2552 18-05-2016 20:35:00 14.5 C 82 % 11.47 C
2553 18-05-2016 20:40:00 14.3 C 83 % 11.45 C
2554 18-05-2016 20:45:00 14.1 C 85 % 11.62 C
2555 18-05-2016 20:50:00 13.8 C 86 % 11.5 C
2556 18-05-2016 20:55:00 13.7 C 87 % 11.58 C
2557 18-05-2016 21:00:00 13.5 C 88 % 11.55 C
2558 18-05-2016 21:05:00 13.3 C 88 % 11.36 C
2559 18-05-2016 21:10:00 13.2 C 88 % 11.26 C
2560 18-05-2016 21:15:00 13.2 C 89 % 11.43 C
2561 18-05-2016 21:20:00 13.1 C 90 % 11.5 C
2562 18-05-2016 21:25:00 12.9 C 90 % 11.3 C
2563 18-05-2016 21:30:00 12.9 C 90 % 11.3 C
2564 18-05-2016 21:35:00 12.8 C 90 % 11.2 C
2565 18-05-2016 21:40:00 12.8 C 90 % 11.2 C
2566 18-05-2016 21:45:00 12.7 C 91 % 11.27 C
2567 18-05-2016 21:50:00 12.7 C 91 % 11.27 C
2568 18-05-2016 21:55:00 12.6 C 91 % 11.17 C
2569 18-05-2016 22:00:00 12.4 C 91 % 10.97 C
2570 18-05-2016 22:05:00 12.3 C 91 % 10.87 C
2571 18-05-2016 22:10:00 12.2 C 91 % 10.78 C
2572 18-05-2016 22:15:00 12.2 C 91 % 10.78 C
2573 18-05-2016 22:20:00 12.1 C 91 % 10.68 C
2574 18-05-2016 22:25:00 12 C 91 % 10.58 C
2575 18-05-2016 22:30:00 11.9 C 91 % 10.48 C
Sensor: Nr:Datum:Temp:Feuchte:Taupunkt:
Aussen-T/F 2576 18-05-2016 22:35:00 11.9 C 91 % 10.48 C
2577 18-05-2016 22:40:00 11.8 C 91 % 10.38 C
2578 18-05-2016 22:45:00 11.8 C 91 % 10.38 C
2579 18-05-2016 22:50:00 11.7 C 92 % 10.44 C
2580 18-05-2016 22:55:00 11.7 C 92 % 10.44 C
2581 18-05-2016 23:00:00 11.7 C 92 % 10.44 C
2582 18-05-2016 23:05:00 11.7 C 92 % 10.44 C
2583 18-05-2016 23:10:00 11.6 C 92 % 10.35 C
2584 18-05-2016 23:15:00 11.6 C 92 % 10.35 C
2585 18-05-2016 23:20:00 11.7 C 93 % 10.61 C
2586 18-05-2016 23:25:00 11.7 C 93 % 10.61 C
2587 18-05-2016 23:30:00 11.7 C 93 % 10.61 C
2588 18-05-2016 23:35:00 11.7 C 93 % 10.61 C
2589 18-05-2016 23:40:00 11.7 C 93 % 10.61 C
2590 18-05-2016 23:45:00 11.7 C 93 % 10.61 C
2591 18-05-2016 23:50:00 11.8 C 93 % 10.71 C
2592 18-05-2016 23:55:00 11.8 C 93 % 10.71 C
2593 19-05-2016 00:00:00 11.8 C 93 % 10.71 C
2594 19-05-2016 00:05:00 11.8 C 93 % 10.71 C
2595 19-05-2016 00:10:00 11.8 C 93 % 10.71 C
2596 19-05-2016 00:15:00 11.8 C 93 % 10.71 C
2597 19-05-2016 00:20:00 11.8 C 93 % 10.71 C
2598 19-05-2016 00:25:00 11.7 C 93 % 10.61 C
2599 19-05-2016 00:30:00 11.7 C 93 % 10.61 C
2600 19-05-2016 00:35:00 11.7 C 94 % 10.77 C
Sensor: Nr:Datum:Temp:Feuchte:Taupunkt:
Aussen-T/F 2601 19-05-2016 00:40:00 11.6 C 94 % 10.67 C
2602 19-05-2016 00:45:00 11.6 C 93 % 10.51 C
2603 19-05-2016 00:50:00 11.4 C 93 % 10.31 C
2604 19-05-2016 00:55:00 11.3 C 93 % 10.21 C
2605 19-05-2016 01:00:00 11.3 C 94 % 10.37 C
2606 19-05-2016 01:05:00 11.3 C 94 % 10.37 C
2607 19-05-2016 01:10:00 11.3 C 94 % 10.37 C
2608 19-05-2016 01:15:00 11.3 C 94 % 10.37 C
2609 19-05-2016 01:20:00 11.2 C 94 % 10.27 C
2610 19-05-2016 01:25:00 11.2 C 94 % 10.27 C
2611 19-05-2016 01:30:00 11.1 C 94 % 10.17 C
2612 19-05-2016 01:35:00 11.1 C 94 % 10.17 C
2613 19-05-2016 01:40:00 11.1 C 94 % 10.17 C
2614 19-05-2016 01:45:00 11.2 C 94 % 10.27 C
2615 19-05-2016 01:50:00 11.2 C 94 % 10.27 C
2616 19-05-2016 01:55:00 11.2 C 94 % 10.27 C
2617 19-05-2016 02:00:00 11.3 C 94 % 10.37 C
2618 19-05-2016 02:05:00 11.3 C 95 % 10.53 C
2619 19-05-2016 02:10:00 11.3 C 95 % 10.53 C
2620 19-05-2016 02:15:00 11.3 C 95 % 10.53 C
2621 19-05-2016 02:20:00 11.3 C 95 % 10.53 C
2622 19-05-2016 02:25:00 11.3 C 95 % 10.53 C
2623 19-05-2016 02:30:00 11.4 C 95 % 10.63 C
2624 19-05-2016 02:35:00 11.4 C 95 % 10.63 C
2625 19-05-2016 02:40:00 11.4 C 95 % 10.63 C
Sensor: Nr:Datum:Temp:Feuchte:Taupunkt:
Aussen-T/F 2626 19-05-2016 02:45:00 11.4 C 95 % 10.63 C
2627 19-05-2016 02:50:00 11.4 C 95 % 10.63 C
2628 19-05-2016 02:55:00 11.4 C 95 % 10.63 C
2629 19-05-2016 03:00:00 11.4 C 94 % 10.47 C
2630 19-05-2016 03:05:00 11.3 C 94 % 10.37 C
2631 19-05-2016 03:10:00 11.3 C 94 % 10.37 C
2632 19-05-2016 03:15:00 11.3 C 94 % 10.37 C
2633 19-05-2016 03:20:00 11.3 C 94 % 10.37 C
2634 19-05-2016 03:25:00 11.3 C 94 % 10.37 C
2635 19-05-2016 03:30:00 11.3 C 94 % 10.37 C
2636 19-05-2016 03:35:00 11.3 C 94 % 10.37 C
2637 19-05-2016 03:40:00 11.3 C 94 % 10.37 C
2638 19-05-2016 03:45:00 11.3 C 94 % 10.37 C
2639 19-05-2016 03:50:00 11.2 C 94 % 10.27 C
2640 19-05-2016 03:55:00 11.2 C 94 % 10.27 C
2641 19-05-2016 04:00:00 11.1 C 93 % 10.01 C
2642 19-05-2016 04:05:00 11.1 C 93 % 10.01 C
2643 19-05-2016 04:10:00 11 C 93 % 9.91 C
2644 19-05-2016 04:15:00 11 C 93 % 9.91 C
2645 19-05-2016 04:20:00 10.9 C 93 % 9.81 C
2646 19-05-2016 04:25:00 10.9 C 93 % 9.81 C
2647 19-05-2016 04:30:00 10.9 C 93 % 9.81 C
2648 19-05-2016 04:35:00 10.9 C 93 % 9.81 C
2649 19-05-2016 04:40:00 10.9 C 93 % 9.81 C
2650 19-05-2016 04:45:00 10.9 C 93 % 9.81 C
Sensor: Nr:Datum:Temp:Feuchte:Taupunkt:
Aussen-T/F 2651 19-05-2016 04:50:00 10.9 C 93 % 9.81 C
2652 19-05-2016 04:55:00 10.9 C 93 % 9.81 C
2653 19-05-2016 05:00:00 10.9 C 93 % 9.81 C
2654 19-05-2016 05:05:00 10.9 C 93 % 9.81 C
2655 19-05-2016 05:10:00 10.9 C 92 % 9.65 C
2656 19-05-2016 05:15:00 10.9 C 93 % 9.81 C
2657 19-05-2016 05:20:00 10.9 C 93 % 9.81 C
2658 19-05-2016 05:25:00 10.8 C 93 % 9.71 C
2659 19-05-2016 05:30:00 10.8 C 93 % 9.71 C
2660 19-05-2016 05:35:00 10.8 C 93 % 9.71 C
2661 19-05-2016 05:40:00 10.8 C 93 % 9.71 C
2662 19-05-2016 05:45:00 10.7 C 93 % 9.62 C
2663 19-05-2016 05:50:00 10.7 C 93 % 9.62 C
2664 19-05-2016 05:55:00 10.7 C 93 % 9.62 C
2665 19-05-2016 06:00:00 10.8 C 93 % 9.71 C
2666 19-05-2016 06:05:00 10.8 C 93 % 9.71 C
2667 19-05-2016 06:10:00 10.8 C 94 % 9.87 C
2668 19-05-2016 06:15:00 10.8 C 94 % 9.87 C
2669 19-05-2016 06:20:00 10.8 C 94 % 9.87 C
2670 19-05-2016 06:25:00 10.9 C 94 % 9.97 C
2671 19-05-2016 06:30:00 10.9 C 94 % 9.97 C
2672 19-05-2016 06:35:00 10.9 C 94 % 9.97 C
2673 19-05-2016 06:40:00 11 C 94 % 10.07 C
2674 19-05-2016 06:45:00 11.1 C 95 % 10.33 C
2675 19-05-2016 06:50:00 11.2 C 95 % 10.43 C
Sensor: Nr:Datum:Temp:Feuchte:Taupunkt:
Aussen-T/F 2676 19-05-2016 06:55:00 11.2 C 95 % 10.43 C
2677 19-05-2016 07:00:00 11.2 C 95 % 10.43 C
2678 19-05-2016 07:05:00 11.3 C 94 % 10.37 C
2679 19-05-2016 07:10:00 11.3 C 95 % 10.53 C
2680 19-05-2016 07:15:00 11.3 C 95 % 10.53 C
2681 19-05-2016 07:20:00 11.3 C 94 % 10.37 C
2682 19-05-2016 07:25:00 11.3 C 94 % 10.37 C
2683 19-05-2016 07:30:00 11.3 C 94 % 10.37 C
2684 19-05-2016 07:35:00 11.4 C 94 % 10.47 C
2685 19-05-2016 07:40:00 11.4 C 93 % 10.31 C
2686 19-05-2016 07:45:00 11.4 C 93 % 10.31 C
2687 19-05-2016 07:50:00 11.4 C 93 % 10.31 C
2688 19-05-2016 07:55:00 11.4 C 93 % 10.31 C
2689 19-05-2016 08:00:00 11.4 C 93 % 10.31 C
2690 19-05-2016 08:05:00 11.5 C 93 % 10.41 C
2691 19-05-2016 08:10:00 11.5 C 93 % 10.41 C
2692 19-05-2016 08:15:00 11.6 C 93 % 10.51 C
2693 19-05-2016 08:20:00 11.6 C 92 % 10.35 C
2694 19-05-2016 08:25:00 11.7 C 92 % 10.44 C
2695 19-05-2016 08:30:00 11.7 C 92 % 10.44 C
2696 19-05-2016 08:35:00 11.7 C 92 % 10.44 C
2697 19-05-2016 08:40:00 11.7 C 91 % 10.28 C
2698 19-05-2016 08:45:00 11.8 C 91 % 10.38 C
2699 19-05-2016 08:50:00 11.8 C 89 % 10.05 C
2700 19-05-2016 08:55:00 11.8 C 88 % 9.88 C
Sensor: Nr:Datum:Temp:Feuchte:Taupunkt:
Aussen-T/F 2701 19-05-2016 09:00:00 11.8 C 86 % 9.54 C
2702 19-05-2016 09:05:00 11.9 C 85 % 9.46 C
2703 19-05-2016 09:10:00 12.1 C 86 % 9.83 C
2704 19-05-2016 09:15:00 12.2 C 87 % 10.1 C
2705 19-05-2016 09:20:00 12.3 C 87 % 10.2 C
2706 19-05-2016 09:25:00 12.3 C 85 % 9.85 C
2707 19-05-2016 09:30:00 12.4 C 84 % 9.78 C
2708 19-05-2016 09:35:00 12.6 C 84 % 9.97 C
2709 19-05-2016 09:40:00 12.7 C 82 % 9.71 C
2710 19-05-2016 09:45:00 12.9 C 82 % 9.9 C
2711 19-05-2016 09:50:00 13.1 C 80 % 9.73 C
2712 19-05-2016 09:55:00 13.2 C 77 % 9.26 C
2713 19-05-2016 10:00:00 13.3 C 79 % 9.74 C
2714 19-05-2016 10:05:00 13.4 C 80 % 10.02 C
2715 19-05-2016 10:10:00 13.5 C 80 % 10.12 C
2716 19-05-2016 10:15:00 13.6 C 76 % 9.45 C
2717 19-05-2016 10:20:00 13.8 C 76 % 9.65 C
2718 19-05-2016 10:25:00 13.8 C 74 % 9.25 C
2719 19-05-2016 10:30:00 13.8 C 73 % 9.05 C
2720 19-05-2016 10:35:00 13.8 C 74 % 9.25 C
2721 19-05-2016 10:40:00 13.8 C 74 % 9.25 C
2722 19-05-2016 10:45:00 13.9 C 74 % 9.35 C
2723 19-05-2016 10:50:00 14 C 70 % 8.62 C
2724 19-05-2016 10:55:00 14.1 C 71 % 8.93 C
2725 19-05-2016 11:00:00 14.1 C 70 % 8.72 C
Sensor: Nr:Datum:Temp:Feuchte:Taupunkt:
Aussen-T/F 2726 19-05-2016 11:05:00 14.2 C 71 % 9.02 C
2727 19-05-2016 11:10:00 14.3 C 70 % 8.91 C
2728 19-05-2016 11:15:00 14.3 C 71 % 9.12 C
2729 19-05-2016 11:20:00 14.4 C 70 % 9 C
2730 19-05-2016 11:25:00 14.7 C 69 % 9.08 C
2731 19-05-2016 11:30:00 14.7 C 69 % 9.08 C
2732 19-05-2016 11:35:00 14.7 C 68 % 8.86 C
2733 19-05-2016 11:40:00 14.8 C 69 % 9.17 C
2734 19-05-2016 11:45:00 15 C 69 % 9.36 C
2735 19-05-2016 11:50:00 15.1 C 69 % 9.46 C
2736 19-05-2016 11:55:00 15.1 C 68 % 9.24 C
2737 19-05-2016 12:00:00 15.2 C 69 % 9.56 C
2738 19-05-2016 12:05:00 15.3 C 66 % 8.99 C
2739 19-05-2016 12:10:00 15.4 C 66 % 9.09 C
2740 19-05-2016 12:15:00 15.5 C 65 % 8.96 C
2741 19-05-2016 12:20:00 15.4 C 63 % 8.4 C
2742 19-05-2016 12:25:00 15.4 C 63 % 8.4 C
2743 19-05-2016 12:30:00 15.4 C 63 % 8.4 C
2744 19-05-2016 12:35:00 15.5 C 64 % 8.73 C
2745 19-05-2016 12:40:00 15.6 C 62 % 8.35 C
2746 19-05-2016 12:45:00 15.7 C 63 % 8.68 C
2747 19-05-2016 12:50:00 15.8 C 65 % 9.24 C
2748 19-05-2016 12:55:00 15.9 C 61 % 8.4 C
2749 19-05-2016 13:00:00 16.1 C 62 % 8.82 C
2750 19-05-2016 13:05:00 16.2 C 61 % 8.68 C
Sensor: Nr:Datum:Temp:Feuchte:Taupunkt:
Aussen-T/F 2751 19-05-2016 13:10:00 16.2 C 60 % 8.43 C
2752 19-05-2016 13:15:00 16.3 C 59 % 8.28 C
2753 19-05-2016 13:20:00 16.3 C 60 % 8.53 C
2754 19-05-2016 13:25:00 16.4 C 59 % 8.38 C
2755 19-05-2016 13:30:00 16.4 C 58 % 8.12 C
2756 19-05-2016 13:35:00 16.5 C 59 % 8.47 C
2757 19-05-2016 13:40:00 16.6 C 59 % 8.56 C
2758 19-05-2016 13:45:00 16.6 C 59 % 8.56 C
2759 19-05-2016 13:50:00 16.6 C 61 % 9.06 C
2760 19-05-2016 13:55:00 16.7 C 63 % 9.63 C
2761 19-05-2016 14:00:00 16.8 C 60 % 9 C
2762 19-05-2016 14:05:00 16.9 C 59 % 8.84 C
2763 19-05-2016 14:10:00 16.9 C 58 % 8.59 C
2764 19-05-2016 14:15:00 17 C 59 % 8.94 C
2765 19-05-2016 14:20:00 17.1 C 56 % 8.26 C
2766 19-05-2016 14:25:00 17.1 C 55 % 8 C
2767 19-05-2016 14:30:00 17.3 C 59 % 9.22 C
2768 19-05-2016 14:35:00 17.4 C 55 % 8.28 C
2769 19-05-2016 14:40:00 17.5 C 54 % 8.1 C
2770 19-05-2016 14:45:00 17.8 C 57 % 9.18 C
2771 19-05-2016 14:50:00 18.1 C 52 % 8.1 C
2772 19-05-2016 14:55:00 18.1 C 53 % 8.38 C
2773 19-05-2016 15:00:00 18.1 C 57 % 9.46 C
2774 19-05-2016 15:05:00 17.8 C 54 % 8.38 C
2775 19-05-2016 15:10:00 17.6 C 55 % 8.46 C
Sensor: Nr:Datum:Temp:Feuchte:Taupunkt:
Aussen-T/F 2776 19-05-2016 15:15:00 17.4 C 54 % 8.01 C
2777 19-05-2016 15:20:00 17.3 C 56 % 8.45 C
2778 19-05-2016 15:25:00 17.3 C 58 % 8.97 C
2779 19-05-2016 15:30:00 17.4 C 56 % 8.54 C
2780 19-05-2016 15:35:00 17.4 C 53 % 7.73 C
2781 19-05-2016 15:40:00 17.5 C 55 % 8.37 C
2782 19-05-2016 15:45:00 17.6 C 58 % 9.25 C
2783 19-05-2016 15:50:00 17.7 C 53 % 8.01 C
2784 19-05-2016 15:55:00 17.8 C 53 % 8.1 C
2785 19-05-2016 16:00:00 17.8 C 54 % 8.38 C
2786 19-05-2016 16:05:00 17.9 C 53 % 8.19 C
2787 19-05-2016 16:10:00 18.1 C 53 % 8.38 C
2788 19-05-2016 16:15:00 18.2 C 52 % 8.19 C
2789 19-05-2016 16:20:00 18.1 C 53 % 8.38 C
2790 19-05-2016 16:25:00 18.2 C 53 % 8.47 C
2791 19-05-2016 16:30:00 18.4 C 53 % 8.66 C
2792 19-05-2016 16:35:00 18.7 C 49 % 7.78 C
2793 19-05-2016 16:40:00 18.7 C 49 % 7.78 C
2794 19-05-2016 16:45:00 19.1 C 52 % 9.02 C
2795 19-05-2016 16:50:00 20 C 49 % 8.97 C
2796 19-05-2016 16:55:00 20.2 C 46 % 8.22 C
2797 19-05-2016 17:00:00 20.1 C 46 % 8.13 C
2798 19-05-2016 17:05:00 19.4 C 47 % 7.81 C
2799 19-05-2016 17:10:00 19.1 C 47 % 7.53 C
2800 19-05-2016 17:15:00 18.8 C 49 % 7.87 C
Sensor: Nr:Datum:Temp:Feuchte:Taupunkt:
Aussen-T/F 2801 19-05-2016 17:20:00 18.7 C 48 % 7.48 C
2802 19-05-2016 17:25:00 18.5 C 49 % 7.6 C
2803 19-05-2016 17:30:00 18.4 C 51 % 8.09 C
2804 19-05-2016 17:35:00 18.4 C 49 % 7.5 C
2805 19-05-2016 17:40:00 18.4 C 52 % 8.38 C
2806 19-05-2016 17:45:00 18.3 C 57 % 9.64 C
2807 19-05-2016 17:50:00 18.3 C 56 % 9.38 C
2808 19-05-2016 17:55:00 18.4 C 63 % 11.23 C
2809 19-05-2016 18:00:00 18.4 C 56 % 9.47 C
2810 19-05-2016 18:05:00 18.5 C 49 % 7.6 C
2811 19-05-2016 18:10:00 18.6 C 52 % 8.56 C
2812 19-05-2016 18:15:00 18.7 C 62 % 11.28 C
2813 19-05-2016 18:20:00 18.7 C 62 % 11.28 C
2814 19-05-2016 18:25:00 19.1 C 51 % 8.73 C
2815 19-05-2016 18:30:00 19.6 C 45 % 7.35 C
2816 19-05-2016 18:35:00 19.6 C 46 % 7.67 C
2817 19-05-2016 18:40:00 19.5 C 47 % 7.9 C
2818 19-05-2016 18:45:00 19.7 C 46 % 7.77 C
2819 19-05-2016 18:50:00 20.1 C 44 % 7.48 C
2820 19-05-2016 18:55:00 20.1 C 44 % 7.48 C
2821 19-05-2016 19:00:00 20.1 C 45 % 7.81 C
2822 19-05-2016 19:05:00 20.2 C 43 % 7.23 C
2823 19-05-2016 19:10:00 20.2 C 45 % 7.9 C
2824 19-05-2016 19:15:00 20.2 C 45 % 7.9 C
2825 19-05-2016 19:20:00 20.3 C 44 % 7.66 C
Sensor: Nr:Datum:Temp:Feuchte:Taupunkt:
Aussen-T/F 2826 19-05-2016 19:25:00 20.3 C 44 % 7.66 C
2827 19-05-2016 19:30:00 20.1 C 53 % 10.23 C
2828 19-05-2016 19:35:00 19.7 C 47 % 8.08 C
2829 19-05-2016 19:40:00 19.2 C 56 % 10.22 C
2830 19-05-2016 19:45:00 18.6 C 60 % 10.69 C
2831 19-05-2016 19:50:00 17.8 C 62 % 10.43 C
2832 19-05-2016 19:55:00 17.3 C 63 % 10.2 C
2833 19-05-2016 20:00:00 16.7 C 63 % 9.63 C
2834 19-05-2016 20:05:00 16.3 C 65 % 9.71 C
2835 19-05-2016 20:10:00 16.2 C 65 % 9.62 C
2836 19-05-2016 20:15:00 15.9 C 66 % 9.56 C
2837 19-05-2016 20:20:00 15.7 C 67 % 9.6 C
2838 19-05-2016 20:25:00 15.4 C 68 % 9.53 C
2839 19-05-2016 20:30:00 15.3 C 69 % 9.65 C
2840 19-05-2016 20:35:00 15.2 C 69 % 9.56 C
2841 19-05-2016 20:40:00 14.9 C 70 % 9.48 C
2842 19-05-2016 20:45:00 14.7 C 69 % 9.08 C
2843 19-05-2016 20:50:00 14.5 C 71 % 9.31 C
2844 19-05-2016 20:55:00 14.3 C 71 % 9.12 C
2845 19-05-2016 21:00:00 14.2 C 73 % 9.43 C
2846 19-05-2016 21:05:00 13.9 C 73 % 9.15 C
2847 19-05-2016 21:10:00 13.7 C 73 % 8.95 C
2848 19-05-2016 21:15:00 13.6 C 74 % 9.06 C
2849 19-05-2016 21:20:00 13.4 C 74 % 8.87 C
2850 19-05-2016 21:25:00 13.3 C 75 % 8.97 C
Sensor: Nr:Datum:Temp:Feuchte:Taupunkt:
Aussen-T/F 2851 19-05-2016 21:30:00 13.2 C 75 % 8.87 C
2852 19-05-2016 21:35:00 13.1 C 76 % 8.97 C
2853 19-05-2016 21:40:00 13 C 77 % 9.07 C
2854 19-05-2016 21:45:00 12.9 C 77 % 8.97 C
2855 19-05-2016 21:50:00 12.8 C 78 % 9.06 C
2856 19-05-2016 21:55:00 12.7 C 78 % 8.97 C
2857 19-05-2016 22:00:00 12.6 C 78 % 8.87 C
2858 19-05-2016 22:05:00 12.4 C 79 % 8.86 C
2859 19-05-2016 22:10:00 12.3 C 79 % 8.77 C
2860 19-05-2016 22:15:00 12.3 C 80 % 8.95 C
2861 19-05-2016 22:20:00 12.2 C 80 % 8.86 C
2862 19-05-2016 22:25:00 12.1 C 80 % 8.76 C
2863 19-05-2016 22:30:00 12.1 C 80 % 8.76 C
2864 19-05-2016 22:35:00 12 C 81 % 8.84 C
2865 19-05-2016 22:40:00 11.9 C 81 % 8.75 C
2866 19-05-2016 22:45:00 11.9 C 81 % 8.75 C
2867 19-05-2016 22:50:00 11.8 C 82 % 8.83 C
2868 19-05-2016 22:55:00 11.8 C 82 % 8.83 C
2869 19-05-2016 23:00:00 11.7 C 82 % 8.73 C
2870 19-05-2016 23:05:00 11.7 C 83 % 8.91 C
2871 19-05-2016 23:10:00 11.6 C 83 % 8.81 C
2872 19-05-2016 23:15:00 11.5 C 83 % 8.72 C
2873 19-05-2016 23:20:00 11.4 C 83 % 8.62 C
2874 19-05-2016 23:25:00 11.4 C 84 % 8.8 C
2875 19-05-2016 23:30:00 11.3 C 84 % 8.7 C
Sensor: Nr:Datum:Temp:Feuchte:Taupunkt:
Aussen-T/F 2876 19-05-2016 23:35:00 11.3 C 84 % 8.7 C
2877 19-05-2016 23:40:00 11.2 C 84 % 8.6 C
2878 19-05-2016 23:45:00 11.2 C 85 % 8.77 C
2879 19-05-2016 23:50:00 11.1 C 85 % 8.68 C
2880 19-05-2016 23:55:00 11.1 C 85 % 8.68 C
2881 20-05-2016 00:00:00 11.1 C 85 % 8.68 C
2882 20-05-2016 00:05:00 11.1 C 86 % 8.85 C
2883 20-05-2016 00:10:00 11 C 86 % 8.75 C
2884 20-05-2016 00:15:00 11 C 86 % 8.75 C
2885 20-05-2016 00:20:00 10.9 C 86 % 8.65 C
2886 20-05-2016 00:25:00 10.9 C 86 % 8.65 C
2887 20-05-2016 00:30:00 10.8 C 86 % 8.56 C
2888 20-05-2016 00:35:00 10.8 C 86 % 8.56 C
2889 20-05-2016 00:40:00 10.7 C 87 % 8.63 C
2890 20-05-2016 00:45:00 10.7 C 87 % 8.63 C
2891 20-05-2016 00:50:00 10.6 C 87 % 8.53 C
2892 20-05-2016 00:55:00 10.6 C 87 % 8.53 C
2893 20-05-2016 01:00:00 10.6 C 87 % 8.53 C
2894 20-05-2016 01:05:00 10.5 C 88 % 8.6 C
2895 20-05-2016 01:10:00 10.5 C 88 % 8.6 C
2896 20-05-2016 01:15:00 10.4 C 88 % 8.5 C
2897 20-05-2016 01:20:00 10.4 C 88 % 8.5 C
2898 20-05-2016 01:25:00 10.3 C 88 % 8.4 C
2899 20-05-2016 01:30:00 10.3 C 88 % 8.4 C
2900 20-05-2016 01:35:00 10.3 C 89 % 8.57 C
Sensor: Nr:Datum:Temp:Feuchte:Taupunkt:
Aussen-T/F 2901 20-05-2016 01:40:00 10.3 C 89 % 8.57 C
2902 20-05-2016 01:45:00 10.3 C 89 % 8.57 C
2903 20-05-2016 01:50:00 10.2 C 89 % 8.47 C
2904 20-05-2016 01:55:00 10.3 C 88 % 8.4 C
2905 20-05-2016 02:00:00 10.3 C 88 % 8.4 C
2906 20-05-2016 02:05:00 10.2 C 88 % 8.3 C
2907 20-05-2016 02:10:00 10.2 C 88 % 8.3 C
2908 20-05-2016 02:15:00 10.2 C 88 % 8.3 C
2909 20-05-2016 02:20:00 10.1 C 89 % 8.37 C
2910 20-05-2016 02:25:00 10.1 C 89 % 8.37 C
2911 20-05-2016 02:30:00 10 C 89 % 8.27 C
2912 20-05-2016 02:35:00 9.9 C 89 % 8.17 C
2913 20-05-2016 02:40:00 9.9 C 89 % 8.17 C
2914 20-05-2016 02:45:00 9.8 C 89 % 8.08 C
2915 20-05-2016 02:50:00 9.8 C 90 % 8.24 C
2916 20-05-2016 02:55:00 9.8 C 90 % 8.24 C
2917 20-05-2016 03:00:00 9.8 C 90 % 8.24 C
2918 20-05-2016 03:05:00 9.8 C 90 % 8.24 C
2919 20-05-2016 03:10:00 9.8 C 90 % 8.24 C
2920 20-05-2016 03:15:00 9.8 C 90 % 8.24 C
2921 20-05-2016 03:20:00 9.8 C 90 % 8.24 C
2922 20-05-2016 03:25:00 9.8 C 90 % 8.24 C
2923 20-05-2016 03:30:00 9.8 C 90 % 8.24 C
2924 20-05-2016 03:35:00 9.8 C 90 % 8.24 C
2925 20-05-2016 03:40:00 9.8 C 90 % 8.24 C
Sensor: Nr:Datum:Temp:Feuchte:Taupunkt:
Aussen-T/F 2926 20-05-2016 03:45:00 9.7 C 90 % 8.14 C
2927 20-05-2016 03:50:00 9.7 C 89 % 7.98 C
2928 20-05-2016 03:55:00 9.6 C 89 % 7.88 C
2929 20-05-2016 04:00:00 9.5 C 89 % 7.78 C
2930 20-05-2016 04:05:00 9.4 C 90 % 7.85 C
2931 20-05-2016 04:10:00 9.3 C 90 % 7.75 C
2932 20-05-2016 04:15:00 9.2 C 90 % 7.65 C
2933 20-05-2016 04:20:00 9.2 C 91 % 7.81 C
2934 20-05-2016 04:25:00 9.2 C 91 % 7.81 C
2935 20-05-2016 04:30:00 9.2 C 91 % 7.81 C
2936 20-05-2016 04:35:00 9.2 C 91 % 7.81 C
2937 20-05-2016 04:40:00 9.3 C 92 % 8.07 C
2938 20-05-2016 04:45:00 9.3 C 91 % 7.91 C
2939 20-05-2016 04:50:00 9.3 C 91 % 7.91 C
2940 20-05-2016 04:55:00 9.3 C 91 % 7.91 C
2941 20-05-2016 05:00:00 9.2 C 91 % 7.81 C
2942 20-05-2016 05:05:00 9.2 C 91 % 7.81 C
2943 20-05-2016 05:10:00 9.1 C 91 % 7.71 C
2944 20-05-2016 05:15:00 9.1 C 91 % 7.71 C
2945 20-05-2016 05:20:00 9.1 C 92 % 7.87 C
2946 20-05-2016 05:25:00 9.1 C 91 % 7.71 C
2947 20-05-2016 05:30:00 9.1 C 92 % 7.87 C
2948 20-05-2016 05:35:00 9.1 C 92 % 7.87 C
2949 20-05-2016 05:40:00 9.1 C 92 % 7.87 C
2950 20-05-2016 05:45:00 9.1 C 92 % 7.87 C
Sensor: Nr:Datum:Temp:Feuchte:Taupunkt:
Aussen-T/F 2951 20-05-2016 05:50:00 9.1 C 92 % 7.87 C
2952 20-05-2016 05:55:00 9.1 C 92 % 7.87 C
2953 20-05-2016 06:00:00 9.1 C 92 % 7.87 C
2954 20-05-2016 06:05:00 9.1 C 92 % 7.87 C
2955 20-05-2016 06:10:00 9.1 C 92 % 7.87 C
2956 20-05-2016 06:15:00 9.1 C 92 % 7.87 C
2957 20-05-2016 06:20:00 9.2 C 92 % 7.97 C
2958 20-05-2016 06:25:00 9.2 C 92 % 7.97 C
2959 20-05-2016 06:30:00 9.2 C 92 % 7.97 C
2960 20-05-2016 06:35:00 9.2 C 92 % 7.97 C
2961 20-05-2016 06:40:00 9.2 C 92 % 7.97 C
2962 20-05-2016 06:45:00 9.2 C 92 % 7.97 C
2963 20-05-2016 06:50:00 9.2 C 92 % 7.97 C
2964 20-05-2016 06:55:00 9.2 C 92 % 7.97 C
2965 20-05-2016 07:00:00 9.2 C 92 % 7.97 C
2966 20-05-2016 07:05:00 9.3 C 92 % 8.07 C
2967 20-05-2016 07:10:00 9.4 C 92 % 8.17 C
2968 20-05-2016 07:15:00 9.5 C 92 % 8.27 C
2969 20-05-2016 07:20:00 9.6 C 92 % 8.37 C
2970 20-05-2016 07:25:00 9.8 C 92 % 8.56 C
2971 20-05-2016 07:30:00 10 C 91 % 8.6 C
2972 20-05-2016 07:35:00 10.2 C 91 % 8.8 C
2973 20-05-2016 07:40:00 10.4 C 90 % 8.83 C
2974 20-05-2016 07:45:00 10.7 C 89 % 8.96 C
2975 20-05-2016 07:50:00 10.8 C 89 % 9.06 C
Sensor: Nr:Datum:Temp:Feuchte:Taupunkt:
Aussen-T/F 2976 20-05-2016 07:55:00 11 C 88 % 9.09 C
2977 20-05-2016 08:00:00 11.1 C 88 % 9.19 C
2978 20-05-2016 08:05:00 11.2 C 88 % 9.29 C
2979 20-05-2016 08:10:00 11.3 C 88 % 9.39 C
2980 20-05-2016 08:15:00 11.4 C 87 % 9.32 C
2981 20-05-2016 08:20:00 11.6 C 87 % 9.51 C
2982 20-05-2016 08:25:00 11.8 C 87 % 9.71 C
2983 20-05-2016 08:30:00 11.9 C 87 % 9.81 C
2984 20-05-2016 08:35:00 12 C 86 % 9.73 C
2985 20-05-2016 08:40:00 12.2 C 86 % 9.93 C
2986 20-05-2016 08:45:00 12.3 C 85 % 9.85 C
2987 20-05-2016 08:50:00 12.4 C 85 % 9.95 C
2988 20-05-2016 08:55:00 12.6 C 84 % 9.97 C
2989 20-05-2016 09:00:00 12.7 C 84 % 10.07 C
2990 20-05-2016 09:05:00 12.8 C 84 % 10.17 C
2991 20-05-2016 09:10:00 13 C 84 % 10.36 C
2992 20-05-2016 09:15:00 13.2 C 83 % 10.38 C
2993 20-05-2016 09:20:00 13.2 C 83 % 10.38 C
2994 20-05-2016 09:25:00 13.3 C 83 % 10.48 C
2995 20-05-2016 09:30:00 13.5 C 83 % 10.67 C
2996 20-05-2016 09:35:00 13.6 C 83 % 10.77 C
2997 20-05-2016 09:40:00 13.8 C 82 % 10.78 C
2998 20-05-2016 09:45:00 13.9 C 82 % 10.88 C
2999 20-05-2016 09:50:00 14 C 82 % 10.98 C
3000 20-05-2016 09:55:00 14.1 C 82 % 11.08 C
Sensor: Nr:Datum:Temp:Feuchte:Taupunkt:
Aussen-T/F 3001 20-05-2016 10:00:00 14.3 C 81 % 11.09 C
3002 20-05-2016 10:05:00 14.5 C 80 % 11.09 C
3003 20-05-2016 10:10:00 14.6 C 80 % 11.19 C
3004 20-05-2016 10:15:00 14.6 C 80 % 11.19 C
3005 20-05-2016 10:20:00 14.6 C 79 % 11 C
3006 20-05-2016 10:25:00 14.7 C 80 % 11.29 C
3007 20-05-2016 10:30:00 14.9 C 79 % 11.29 C
3008 20-05-2016 10:35:00 14.9 C 78 % 11.1 C
3009 20-05-2016 10:40:00 15.1 C 77 % 11.1 C
3010 20-05-2016 10:45:00 15.1 C 76 % 10.9 C
3011 20-05-2016 10:50:00 15.1 C 77 % 11.1 C
3012 20-05-2016 10:55:00 15.2 C 76 % 11 C
3013 20-05-2016 11:00:00 15.3 C 76 % 11.1 C
3014 20-05-2016 11:05:00 15.4 C 77 % 11.39 C
3015 20-05-2016 11:10:00 15.6 C 76 % 11.39 C
3016 20-05-2016 11:15:00 15.7 C 75 % 11.28 C
3017 20-05-2016 11:20:00 15.9 C 74 % 11.28 C
3018 20-05-2016 11:25:00 16.1 C 74 % 11.47 C
3019 20-05-2016 11:30:00 16.2 C 73 % 11.36 C
3020 20-05-2016 11:35:00 16.3 C 73 % 11.46 C
3021 20-05-2016 11:40:00 16.5 C 71 % 11.23 C
3022 20-05-2016 11:45:00 16.8 C 72 % 11.73 C
3023 20-05-2016 11:50:00 17 C 69 % 11.28 C
3024 20-05-2016 11:55:00 17.2 C 70 % 11.68 C
3025 20-05-2016 12:00:00 17.3 C 69 % 11.56 C
Sensor: Nr:Datum:Temp:Feuchte:Taupunkt:
Aussen-T/F 3026 20-05-2016 12:05:00 17.3 C 68 % 11.34 C
3027 20-05-2016 12:10:00 17.3 C 67 % 11.12 C
3028 20-05-2016 12:15:00 17.2 C 68 % 11.25 C
3029 20-05-2016 12:20:00 17.3 C 67 % 11.12 C
3030 20-05-2016 12:25:00 17.3 C 69 % 11.56 C
3031 20-05-2016 12:30:00 17.5 C 67 % 11.31 C
3032 20-05-2016 12:35:00 17.6 C 67 % 11.4 C
3033 20-05-2016 12:40:00 17.4 C 66 % 10.99 C
3034 20-05-2016 12:45:00 17.3 C 67 % 11.12 C
3035 20-05-2016 12:50:00 17.2 C 68 % 11.25 C
3036 20-05-2016 12:55:00 17.3 C 69 % 11.56 C
3037 20-05-2016 13:00:00 17.3 C 68 % 11.34 C
3038 20-05-2016 13:05:00 17.3 C 68 % 11.34 C
3039 20-05-2016 13:10:00 17.2 C 67 % 11.02 C
3040 20-05-2016 13:15:00 17.2 C 69 % 11.47 C
3041 20-05-2016 13:20:00 17.1 C 69 % 11.37 C
3042 20-05-2016 13:25:00 17.1 C 70 % 11.59 C
3043 20-05-2016 13:30:00 16.8 C 72 % 11.73 C
3044 20-05-2016 13:35:00 16.7 C 76 % 12.45 C
3045 20-05-2016 13:40:00 16.6 C 76 % 12.36 C
3046 20-05-2016 13:45:00 16.4 C 79 % 12.75 C
3047 20-05-2016 13:50:00 16.3 C 78 % 12.46 C
3048 20-05-2016 13:55:00 16.2 C 79 % 12.56 C
3049 20-05-2016 14:00:00 16.2 C 80 % 12.75 C
3050 20-05-2016 14:05:00 16.1 C 77 % 12.07 C
Sensor: Nr:Datum:Temp:Feuchte:Taupunkt:
Aussen-T/F 3051 20-05-2016 14:10:00 16 C 75 % 11.57 C
3052 20-05-2016 14:15:00 16.1 C 74 % 11.47 C
3053 20-05-2016 14:20:00 16.2 C 74 % 11.56 C
3054 20-05-2016 14:25:00 16.3 C 73 % 11.46 C
3055 20-05-2016 14:30:00 16.4 C 73 % 11.55 C
3056 20-05-2016 14:35:00 16.6 C 73 % 11.74 C
3057 20-05-2016 14:40:00 16.7 C 73 % 11.84 C
3058 20-05-2016 14:45:00 16.9 C 73 % 12.03 C
3059 20-05-2016 14:50:00 17.1 C 72 % 12.02 C
3060 20-05-2016 14:55:00 17.2 C 70 % 11.68 C
3061 20-05-2016 15:00:00 17.4 C 69 % 11.66 C
3062 20-05-2016 15:05:00 17.5 C 69 % 11.75 C
3063 20-05-2016 15:10:00 17.6 C 68 % 11.63 C
3064 20-05-2016 15:15:00 17.7 C 72 % 12.59 C
3065 20-05-2016 15:20:00 17.7 C 71 % 12.38 C
3066 20-05-2016 15:25:00 17.7 C 71 % 12.38 C
3067 20-05-2016 15:30:00 17.6 C 68 % 11.63 C
3068 20-05-2016 15:35:00 17.6 C 69 % 11.85 C
3069 20-05-2016 15:40:00 17.7 C 68 % 11.72 C
3070 20-05-2016 15:45:00 17.7 C 71 % 12.38 C
3071 20-05-2016 15:50:00 17.8 C 69 % 12.04 C
3072 20-05-2016 15:55:00 17.8 C 68 % 11.82 C
3073 20-05-2016 16:00:00 17.8 C 69 % 12.04 C
3074 20-05-2016 16:05:00 17.8 C 69 % 12.04 C
3075 20-05-2016 16:10:00 17.8 C 67 % 11.6 C
Sensor: Nr:Datum:Temp:Feuchte:Taupunkt:
Aussen-T/F 3076 20-05-2016 16:15:00 17.8 C 67 % 11.6 C
3077 20-05-2016 16:20:00 17.8 C 67 % 11.6 C
3078 20-05-2016 16:25:00 17.7 C 66 % 11.27 C
3079 20-05-2016 16:30:00 17.6 C 67 % 11.4 C
3080 20-05-2016 16:35:00 17.6 C 69 % 11.85 C
3081 20-05-2016 16:40:00 17.6 C 67 % 11.4 C
3082 20-05-2016 16:45:00 17.7 C 69 % 11.95 C
3083 20-05-2016 16:50:00 17.9 C 69 % 12.14 C
3084 20-05-2016 16:55:00 18.3 C 67 % 12.07 C
3085 20-05-2016 17:00:00 18.7 C 64 % 11.76 C
3086 20-05-2016 17:05:00 18.8 C 64 % 11.85 C
3087 20-05-2016 17:10:00 19.2 C 65 % 12.47 C
3088 20-05-2016 17:15:00 19.4 C 62 % 11.94 C
3089 20-05-2016 17:20:00 19.9 C 61 % 12.16 C
3090 20-05-2016 17:25:00 20.1 C 60 % 12.1 C
3091 20-05-2016 17:30:00 19.8 C 59 % 11.56 C
3092 20-05-2016 17:35:00 19.6 C 62 % 12.13 C
3093 20-05-2016 17:40:00 19.5 C 62 % 12.03 C
3094 20-05-2016 17:45:00 19.3 C 62 % 11.84 C
3095 20-05-2016 17:50:00 19.2 C 65 % 12.47 C
3096 20-05-2016 17:55:00 19 C 62 % 11.56 C
3097 20-05-2016 18:00:00 18.8 C 64 % 11.85 C
3098 20-05-2016 18:05:00 18.6 C 64 % 11.66 C
3099 20-05-2016 18:10:00 18.3 C 64 % 11.38 C
3100 20-05-2016 18:15:00 18.2 C 66 % 11.75 C
Sensor: Nr:Datum:Temp:Feuchte:Taupunkt:
Aussen-T/F 3101 20-05-2016 18:20:00 18.2 C 66 % 11.75 C
3102 20-05-2016 18:25:00 18.1 C 66 % 11.65 C
3103 20-05-2016 18:30:00 18.1 C 66 % 11.65 C
3104 20-05-2016 18:35:00 17.9 C 66 % 11.46 C
3105 20-05-2016 18:40:00 17.8 C 67 % 11.6 C
3106 20-05-2016 18:45:00 17.8 C 67 % 11.6 C
3107 20-05-2016 18:50:00 18 C 67 % 11.79 C
3108 20-05-2016 18:55:00 18.2 C 67 % 11.98 C
3109 20-05-2016 19:00:00 18.2 C 67 % 11.98 C
3110 20-05-2016 19:05:00 18.2 C 67 % 11.98 C
3111 20-05-2016 19:10:00 18.1 C 67 % 11.88 C
3112 20-05-2016 19:15:00 18 C 68 % 12.01 C
3113 20-05-2016 19:20:00 17.9 C 70 % 12.35 C
3114 20-05-2016 19:25:00 17.9 C 70 % 12.35 C
3115 20-05-2016 19:30:00 17.8 C 70 % 12.26 C
3116 20-05-2016 19:35:00 17.7 C 69 % 11.95 C
3117 20-05-2016 19:40:00 17.6 C 70 % 12.07 C
3118 20-05-2016 19:45:00 17.5 C 72 % 12.4 C
3119 20-05-2016 19:50:00 17.5 C 70 % 11.97 C
3120 20-05-2016 19:55:00 17.4 C 72 % 12.3 C
3121 20-05-2016 20:00:00 17.4 C 72 % 12.3 C
3122 20-05-2016 20:05:00 17.4 C 71 % 12.09 C
3123 20-05-2016 20:10:00 17.4 C 71 % 12.09 C
3124 20-05-2016 20:15:00 17.4 C 72 % 12.3 C
3125 20-05-2016 20:20:00 17.4 C 73 % 12.51 C
Sensor: Nr:Datum:Temp:Feuchte:Taupunkt:
Aussen-T/F 3126 20-05-2016 20:25:00 17.3 C 72 % 12.21 C
3127 20-05-2016 20:30:00 17.3 C 72 % 12.21 C
3128 20-05-2016 20:35:00 17.2 C 72 % 12.11 C
3129 20-05-2016 20:40:00 17.1 C 72 % 12.02 C
3130 20-05-2016 20:45:00 16.9 C 74 % 12.24 C
3131 20-05-2016 20:50:00 16.8 C 74 % 12.14 C
3132 20-05-2016 20:55:00 16.6 C 76 % 12.36 C
3133 20-05-2016 21:00:00 16.4 C 77 % 12.36 C
3134 20-05-2016 21:05:00 16.2 C 77 % 12.17 C
3135 20-05-2016 21:10:00 16 C 79 % 12.36 C
3136 20-05-2016 21:15:00 15.9 C 80 % 12.46 C
3137 20-05-2016 21:20:00 15.7 C 80 % 12.26 C
3138 20-05-2016 21:25:00 15.6 C 80 % 12.16 C
3139 20-05-2016 21:30:00 15.4 C 81 % 12.16 C
3140 20-05-2016 21:35:00 15.3 C 81 % 12.06 C
3141 20-05-2016 21:40:00 15.2 C 82 % 12.15 C
3142 20-05-2016 21:45:00 15.1 C 82 % 12.05 C
3143 20-05-2016 21:50:00 14.9 C 83 % 12.04 C
3144 20-05-2016 21:55:00 14.9 C 83 % 12.04 C
3145 20-05-2016 22:00:00 14.8 C 83 % 11.94 C
3146 20-05-2016 22:05:00 14.8 C 84 % 12.12 C
3147 20-05-2016 22:10:00 14.8 C 84 % 12.12 C
3148 20-05-2016 22:15:00 14.7 C 84 % 12.03 C
3149 20-05-2016 22:20:00 14.7 C 85 % 12.21 C
3150 20-05-2016 22:25:00 14.7 C 85 % 12.21 C
Sensor: Nr:Datum:Temp:Feuchte:Taupunkt:
Aussen-T/F 3151 20-05-2016 22:30:00 14.7 C 85 % 12.21 C
3152 20-05-2016 22:35:00 14.6 C 85 % 12.11 C
3153 20-05-2016 22:40:00 14.6 C 85 % 12.11 C
3154 20-05-2016 22:45:00 14.6 C 85 % 12.11 C
3155 20-05-2016 22:50:00 14.6 C 86 % 12.29 C
3156 20-05-2016 22:55:00 14.6 C 86 % 12.29 C
3157 20-05-2016 23:00:00 14.6 C 86 % 12.29 C
3158 20-05-2016 23:05:00 14.6 C 86 % 12.29 C
3159 20-05-2016 23:10:00 14.5 C 86 % 12.19 C
3160 20-05-2016 23:15:00 14.5 C 86 % 12.19 C
3161 20-05-2016 23:20:00 14.4 C 86 % 12.09 C
3162 20-05-2016 23:25:00 14.4 C 86 % 12.09 C
3163 20-05-2016 23:30:00 14.3 C 86 % 11.99 C
3164 20-05-2016 23:35:00 14.3 C 86 % 11.99 C
3165 20-05-2016 23:40:00 14.2 C 86 % 11.89 C
3166 20-05-2016 23:45:00 14.1 C 86 % 11.8 C
3167 20-05-2016 23:50:00 13.9 C 86 % 11.6 C
3168 20-05-2016 23:55:00 13.8 C 87 % 11.68 C
3169 21-05-2016 00:00:00 13.6 C 87 % 11.48 C
3170 21-05-2016 00:05:00 13.4 C 87 % 11.28 C
3171 21-05-2016 00:10:00 13.3 C 88 % 11.36 C
3172 21-05-2016 00:15:00 13.2 C 88 % 11.26 C
3173 21-05-2016 00:20:00 13.1 C 88 % 11.16 C
3174 21-05-2016 00:25:00 13 C 89 % 11.23 C
3175 21-05-2016 00:30:00 12.9 C 89 % 11.13 C
Sensor: Nr:Datum:Temp:Feuchte:Taupunkt:
Aussen-T/F 3176 21-05-2016 00:35:00 12.8 C 89 % 11.03 C
3177 21-05-2016 00:40:00 12.7 C 90 % 11.1 C
3178 21-05-2016 00:45:00 12.6 C 90 % 11 C
3179 21-05-2016 00:50:00 12.6 C 90 % 11 C
3180 21-05-2016 00:55:00 12.5 C 91 % 11.07 C
3181 21-05-2016 01:00:00 12.5 C 91 % 11.07 C
3182 21-05-2016 01:05:00 12.5 C 91 % 11.07 C
3183 21-05-2016 01:10:00 12.5 C 92 % 11.24 C
3184 21-05-2016 01:15:00 12.6 C 92 % 11.34 C
3185 21-05-2016 01:20:00 12.6 C 92 % 11.34 C
3186 21-05-2016 01:25:00 12.5 C 92 % 11.24 C
3187 21-05-2016 01:30:00 12.5 C 92 % 11.24 C
3188 21-05-2016 01:35:00 12.5 C 92 % 11.24 C
3189 21-05-2016 01:40:00 12.5 C 92 % 11.24 C
3190 21-05-2016 01:45:00 12.4 C 92 % 11.14 C
3191 21-05-2016 01:50:00 12.4 C 92 % 11.14 C
3192 21-05-2016 01:55:00 12.4 C 92 % 11.14 C
3193 21-05-2016 02:00:00 12.4 C 92 % 11.14 C
3194 21-05-2016 02:05:00 12.4 C 92 % 11.14 C
3195 21-05-2016 02:10:00 12.4 C 92 % 11.14 C
3196 21-05-2016 02:15:00 12.3 C 92 % 11.04 C
3197 21-05-2016 02:20:00 12.3 C 92 % 11.04 C
3198 21-05-2016 02:25:00 12.3 C 92 % 11.04 C
3199 21-05-2016 02:30:00 12.3 C 93 % 11.2 C
3200 21-05-2016 02:35:00 12.3 C 92 % 11.04 C
Sensor: Nr:Datum:Temp:Feuchte:Taupunkt:
Aussen-T/F 3201 21-05-2016 02:40:00 12.3 C 92 % 11.04 C
3202 21-05-2016 02:45:00 12.3 C 92 % 11.04 C
3203 21-05-2016 02:50:00 12.2 C 93 % 11.1 C
3204 21-05-2016 02:55:00 12.2 C 93 % 11.1 C
3205 21-05-2016 03:00:00 12.2 C 93 % 11.1 C
3206 21-05-2016 03:05:00 12.2 C 93 % 11.1 C
3207 21-05-2016 03:10:00 12.2 C 93 % 11.1 C
3208 21-05-2016 03:15:00 12.2 C 93 % 11.1 C
3209 21-05-2016 03:20:00 12.1 C 93 % 11 C
3210 21-05-2016 03:25:00 11.9 C 92 % 10.64 C
3211 21-05-2016 03:30:00 11.9 C 93 % 10.81 C
3212 21-05-2016 03:35:00 11.8 C 93 % 10.71 C
3213 21-05-2016 03:40:00 11.8 C 93 % 10.71 C
3214 21-05-2016 03:45:00 11.7 C 93 % 10.61 C
3215 21-05-2016 03:50:00 11.6 C 93 % 10.51 C
3216 21-05-2016 03:55:00 11.5 C 93 % 10.41 C
3217 21-05-2016 04:00:00 11.4 C 93 % 10.31 C
3218 21-05-2016 04:05:00 11.3 C 93 % 10.21 C
3219 21-05-2016 04:10:00 11.3 C 93 % 10.21 C
3220 21-05-2016 04:15:00 11.3 C 93 % 10.21 C
3221 21-05-2016 04:20:00 11.3 C 94 % 10.37 C
3222 21-05-2016 04:25:00 11.4 C 94 % 10.47 C
3223 21-05-2016 04:30:00 11.5 C 94 % 10.57 C
3224 21-05-2016 04:35:00 11.6 C 94 % 10.67 C
3225 21-05-2016 04:40:00 11.7 C 95 % 10.93 C
Sensor: Nr:Datum:Temp:Feuchte:Taupunkt:
Aussen-T/F 3226 21-05-2016 04:45:00 11.8 C 95 % 11.03 C
3227 21-05-2016 04:50:00 11.9 C 95 % 11.13 C
3228 21-05-2016 04:55:00 12 C 95 % 11.22 C
3229 21-05-2016 05:00:00 12.1 C 95 % 11.32 C
3230 21-05-2016 05:05:00 12.1 C 95 % 11.32 C
3231 21-05-2016 05:10:00 12.2 C 95 % 11.42 C
3232 21-05-2016 05:15:00 12.2 C 95 % 11.42 C
3233 21-05-2016 05:20:00 12.3 C 95 % 11.52 C
3234 21-05-2016 05:25:00 12.3 C 94 % 11.36 C
3235 21-05-2016 05:30:00 12.3 C 94 % 11.36 C
3236 21-05-2016 05:35:00 12.3 C 94 % 11.36 C
3237 21-05-2016 05:40:00 12.2 C 94 % 11.26 C
3238 21-05-2016 05:45:00 12.2 C 94 % 11.26 C
3239 21-05-2016 05:50:00 12.1 C 93 % 11 C
3240 21-05-2016 05:55:00 12 C 93 % 10.9 C
3241 21-05-2016 06:00:00 11.9 C 93 % 10.81 C
3242 21-05-2016 06:05:00 11.9 C 94 % 10.97 C
3243 21-05-2016 06:10:00 11.9 C 94 % 10.97 C
3244 21-05-2016 06:15:00 11.9 C 94 % 10.97 C
3245 21-05-2016 06:20:00 11.9 C 94 % 10.97 C
3246 21-05-2016 06:25:00 11.8 C 94 % 10.87 C
3247 21-05-2016 06:30:00 11.8 C 93 % 10.71 C
3248 21-05-2016 06:35:00 11.7 C 93 % 10.61 C
3249 21-05-2016 06:40:00 11.7 C 93 % 10.61 C
3250 21-05-2016 06:45:00 11.7 C 94 % 10.77 C
Sensor: Nr:Datum:Temp:Feuchte:Taupunkt:
Aussen-T/F 3251 21-05-2016 06:50:00 11.7 C 94 % 10.77 C
3252 21-05-2016 06:55:00 11.7 C 94 % 10.77 C
3253 21-05-2016 07:00:00 11.6 C 94 % 10.67 C
3254 21-05-2016 07:05:00 11.6 C 94 % 10.67 C
3255 21-05-2016 07:10:00 11.6 C 94 % 10.67 C
3256 21-05-2016 07:15:00 11.6 C 94 % 10.67 C
3257 21-05-2016 07:20:00 11.7 C 94 % 10.77 C
3258 21-05-2016 07:25:00 11.8 C 94 % 10.87 C
3259 21-05-2016 07:30:00 11.8 C 94 % 10.87 C
3260 21-05-2016 07:35:00 11.8 C 94 % 10.87 C
3261 21-05-2016 07:40:00 11.9 C 94 % 10.97 C
3262 21-05-2016 07:45:00 12.1 C 95 % 11.32 C
3263 21-05-2016 07:50:00 12.2 C 95 % 11.42 C
3264 21-05-2016 07:55:00 12.3 C 95 % 11.52 C
3265 21-05-2016 08:00:00 12.3 C 95 % 11.52 C
3266 21-05-2016 08:05:00 12.4 C 95 % 11.62 C
3267 21-05-2016 08:10:00 12.5 C 95 % 11.72 C
3268 21-05-2016 08:15:00 12.6 C 95 % 11.82 C
3269 21-05-2016 08:20:00 12.8 C 95 % 12.02 C
3270 21-05-2016 08:25:00 12.9 C 95 % 12.12 C
3271 21-05-2016 08:30:00 13.1 C 95 % 12.32 C
3272 21-05-2016 08:35:00 13.4 C 94 % 12.45 C
3273 21-05-2016 08:40:00 13.6 C 94 % 12.65 C
3274 21-05-2016 08:45:00 13.8 C 94 % 12.85 C
3275 21-05-2016 08:50:00 14.1 C 94 % 13.15 C
Sensor: Nr:Datum:Temp:Feuchte:Taupunkt:
Aussen-T/F 3276 21-05-2016 08:55:00 14.3 C 93 % 13.18 C
3277 21-05-2016 09:00:00 14.6 C 93 % 13.48 C
3278 21-05-2016 09:05:00 14.8 C 93 % 13.68 C
3279 21-05-2016 09:10:00 15.1 C 90 % 13.47 C
3280 21-05-2016 09:15:00 15.4 C 87 % 13.25 C
3281 21-05-2016 09:20:00 15.7 C 88 % 13.72 C
3282 21-05-2016 09:25:00 15.9 C 86 % 13.56 C
3283 21-05-2016 09:30:00 16.1 C 86 % 13.76 C
3284 21-05-2016 09:35:00 16.3 C 85 % 13.77 C
3285 21-05-2016 09:40:00 16.4 C 84 % 13.69 C
3286 21-05-2016 09:45:00 16.6 C 83 % 13.7 C
3287 21-05-2016 09:50:00 16.9 C 83 % 14 C
3288 21-05-2016 09:55:00 17.1 C 82 % 14 C
3289 21-05-2016 10:00:00 17.4 C 79 % 13.72 C
3290 21-05-2016 10:05:00 17.6 C 79 % 13.92 C
3291 21-05-2016 10:10:00 17.7 C 77 % 13.62 C
3292 21-05-2016 10:15:00 17.8 C 78 % 13.91 C
3293 21-05-2016 10:20:00 18.1 C 76 % 13.81 C
3294 21-05-2016 10:25:00 18.2 C 74 % 13.49 C
3295 21-05-2016 10:30:00 18.3 C 77 % 14.2 C
3296 21-05-2016 10:35:00 18.5 C 74 % 13.78 C
3297 21-05-2016 10:40:00 18.6 C 73 % 13.67 C
3298 21-05-2016 10:45:00 18.8 C 74 % 14.07 C
3299 21-05-2016 10:50:00 18.8 C 72 % 13.65 C
3300 21-05-2016 10:55:00 18.9 C 73 % 13.96 C
Sensor: Nr:Datum:Temp:Feuchte:Taupunkt:
Aussen-T/F 3301 21-05-2016 11:00:00 19 C 72 % 13.84 C
3302 21-05-2016 11:05:00 19 C 72 % 13.84 C
3303 21-05-2016 11:10:00 19.1 C 71 % 13.72 C
3304 21-05-2016 11:15:00 19.1 C 70 % 13.5 C
3305 21-05-2016 11:20:00 19.1 C 72 % 13.94 C
3306 21-05-2016 11:25:00 19.2 C 71 % 13.82 C
3307 21-05-2016 11:30:00 19.2 C 70 % 13.6 C
3308 21-05-2016 11:35:00 19.2 C 69 % 13.38 C
3309 21-05-2016 11:40:00 19.2 C 70 % 13.6 C
3310 21-05-2016 11:45:00 19.2 C 71 % 13.82 C
3311 21-05-2016 11:50:00 19.2 C 70 % 13.6 C
3312 21-05-2016 11:55:00 19.3 C 72 % 14.13 C
3313 21-05-2016 12:00:00 19.4 C 69 % 13.57 C
3314 21-05-2016 12:05:00 19.5 C 68 % 13.44 C
3315 21-05-2016 12:10:00 19.5 C 69 % 13.66 C
3316 21-05-2016 12:15:00 19.6 C 67 % 13.31 C
3317 21-05-2016 12:20:00 19.6 C 65 % 12.84 C
3318 21-05-2016 12:25:00 19.7 C 67 % 13.4 C
3319 21-05-2016 12:30:00 19.7 C 65 % 12.94 C
3320 21-05-2016 12:35:00 19.8 C 67 % 13.5 C
3321 21-05-2016 12:40:00 19.9 C 68 % 13.82 C
3322 21-05-2016 12:45:00 20.1 C 66 % 13.55 C
3323 21-05-2016 12:50:00 20.2 C 66 % 13.65 C
3324 21-05-2016 12:55:00 20.4 C 66 % 13.84 C
3325 21-05-2016 13:00:00 20.4 C 63 % 13.12 C
Sensor: Nr:Datum:Temp:Feuchte:Taupunkt:
Aussen-T/F 3326 21-05-2016 13:05:00 20.6 C 63 % 13.31 C
3327 21-05-2016 13:10:00 20.8 C 65 % 13.98 C
3328 21-05-2016 13:15:00 21 C 63 % 13.69 C
3329 21-05-2016 13:20:00 21.1 C 62 % 13.54 C
3330 21-05-2016 13:25:00 21.1 C 61 % 13.29 C
3331 21-05-2016 13:30:00 21.2 C 58 % 12.61 C
3332 21-05-2016 13:35:00 21.2 C 60 % 13.13 C
3333 21-05-2016 13:40:00 21.3 C 60 % 13.22 C
3334 21-05-2016 13:45:00 21.4 C 62 % 13.82 C
3335 21-05-2016 13:50:00 21.6 C 60 % 13.51 C
3336 21-05-2016 13:55:00 21.7 C 60 % 13.6 C
3337 21-05-2016 14:00:00 21.7 C 60 % 13.6 C
3338 21-05-2016 14:05:00 21.8 C 58 % 13.17 C
3339 21-05-2016 14:10:00 21.8 C 55 % 12.36 C
3340 21-05-2016 14:15:00 21.8 C 60 % 13.69 C
3341 21-05-2016 14:20:00 21.8 C 56 % 12.64 C
3342 21-05-2016 14:25:00 21.9 C 54 % 12.18 C
3343 21-05-2016 14:30:00 21.9 C 55 % 12.46 C
3344 21-05-2016 14:35:00 21.9 C 58 % 13.27 C
3345 21-05-2016 14:40:00 22 C 53 % 11.99 C
3346 21-05-2016 14:45:00 22.1 C 53 % 12.08 C
3347 21-05-2016 14:50:00 22.1 C 57 % 13.19 C
3348 21-05-2016 14:55:00 22.2 C 56 % 13.01 C
3349 21-05-2016 15:00:00 22.4 C 54 % 12.64 C
3350 21-05-2016 15:05:00 22.5 C 56 % 13.29 C
Sensor: Nr:Datum:Temp:Feuchte:Taupunkt:
Aussen-T/F 3351 21-05-2016 15:10:00 22.8 C 53 % 12.73 C
3352 21-05-2016 15:15:00 22.9 C 52 % 12.53 C
3353 21-05-2016 15:20:00 22.8 C 57 % 13.84 C
3354 21-05-2016 15:25:00 22.9 C 52 % 12.53 C
3355 21-05-2016 15:30:00 23 C 58 % 14.29 C
3356 21-05-2016 15:35:00 23.4 C 52 % 12.99 C
3357 21-05-2016 15:40:00 23.7 C 50 % 12.67 C
3358 21-05-2016 15:45:00 23.9 C 50 % 12.85 C
3359 21-05-2016 15:50:00 23.8 C 52 % 13.36 C
3360 21-05-2016 15:55:00 23.8 C 53 % 13.65 C
3361 21-05-2016 16:00:00 23.9 C 49 % 12.54 C
3362 21-05-2016 16:05:00 24.1 C 49 % 12.72 C
3363 21-05-2016 16:10:00 24.2 C 52 % 13.73 C
3364 21-05-2016 16:15:00 24.6 C 49 % 13.18 C
3365 21-05-2016 16:20:00 24.7 C 48 % 12.96 C
3366 21-05-2016 16:25:00 24.7 C 50 % 13.58 C
3367 21-05-2016 16:30:00 24.9 C 46 % 12.49 C
3368 21-05-2016 16:35:00 25.1 C 47 % 13 C
3369 21-05-2016 16:40:00 25.2 C 47 % 13.09 C
3370 21-05-2016 16:45:00 25.5 C 49 % 14 C
3371 21-05-2016 16:50:00 25.7 C 48 % 13.87 C
3372 21-05-2016 16:55:00 25.6 C 47 % 13.45 C
3373 21-05-2016 17:00:00 25.4 C 44 % 12.27 C
3374 21-05-2016 17:05:00 25.4 C 49 % 13.91 C
3375 21-05-2016 17:10:00 25.7 C 47 % 13.55 C
Sensor: Nr:Datum:Temp:Feuchte:Taupunkt:
Aussen-T/F 3376 21-05-2016 17:15:00 25.7 C 47 % 13.55 C
3377 21-05-2016 17:20:00 25.8 C 46 % 13.31 C
3378 21-05-2016 17:25:00 25.9 C 48 % 14.05 C
3379 21-05-2016 17:30:00 25.7 C 47 % 13.55 C
3380 21-05-2016 17:35:00 25.8 C 47 % 13.64 C
3381 21-05-2016 17:40:00 26.1 C 46 % 13.58 C
3382 21-05-2016 17:45:00 26.3 C 45 % 13.42 C
3383 21-05-2016 17:50:00 26.4 C 46 % 13.85 C
3384 21-05-2016 17:55:00 26.3 C 42 % 12.37 C
3385 21-05-2016 18:00:00 26.1 C 42 % 12.19 C
3386 21-05-2016 18:05:00 25.8 C 44 % 12.63 C
3387 21-05-2016 18:10:00 25.9 C 45 % 13.06 C
3388 21-05-2016 18:15:00 26.1 C 44 % 12.9 C
3389 21-05-2016 18:20:00 26.4 C 45 % 13.51 C
3390 21-05-2016 18:25:00 26.5 C 43 % 12.91 C
3391 21-05-2016 18:30:00 26.7 C 48 % 14.78 C
3392 21-05-2016 18:35:00 26.7 C 44 % 13.44 C
3393 21-05-2016 18:40:00 26.7 C 43 % 13.09 C
3394 21-05-2016 18:45:00 26.4 C 44 % 13.17 C
3395 21-05-2016 18:50:00 26.3 C 45 % 13.42 C
3396 21-05-2016 18:55:00 26.5 C 44 % 13.26 C
3397 21-05-2016 19:00:00 26.4 C 44 % 13.17 C
3398 21-05-2016 19:05:00 26.3 C 43 % 12.73 C
3399 21-05-2016 19:10:00 26.2 C 46 % 13.67 C
3400 21-05-2016 19:15:00 26.2 C 44 % 12.99 C
Sensor: Nr:Datum:Temp:Feuchte:Taupunkt:
Aussen-T/F 3401 21-05-2016 19:20:00 25.9 C 45 % 13.06 C
3402 21-05-2016 19:25:00 25.3 C 46 % 12.85 C
3403 21-05-2016 19:30:00 24.9 C 47 % 12.82 C
3404 21-05-2016 19:35:00 24.6 C 48 % 12.87 C
3405 21-05-2016 19:40:00 24.6 C 50 % 13.49 C
3406 21-05-2016 19:45:00 24.4 C 54 % 14.49 C
3407 21-05-2016 19:50:00 24.2 C 50 % 13.12 C
3408 21-05-2016 19:55:00 23.9 C 54 % 14.03 C
3409 21-05-2016 20:00:00 23.5 C 60 % 15.29 C
3410 21-05-2016 20:05:00 22.9 C 61 % 14.98 C
3411 21-05-2016 20:10:00 22.3 C 62 % 14.67 C
3412 21-05-2016 20:15:00 21.7 C 61 % 13.85 C
3413 21-05-2016 20:20:00 21.2 C 65 % 14.36 C
3414 21-05-2016 20:25:00 20.8 C 66 % 14.22 C
3415 21-05-2016 20:30:00 20.5 C 67 % 14.16 C
3416 21-05-2016 20:35:00 20.2 C 68 % 14.11 C
3417 21-05-2016 20:40:00 19.9 C 69 % 14.05 C
3418 21-05-2016 20:45:00 19.7 C 69 % 13.86 C
3419 21-05-2016 20:50:00 19.5 C 70 % 13.89 C
3420 21-05-2016 20:55:00 19.3 C 70 % 13.69 C
3421 21-05-2016 21:00:00 19.2 C 71 % 13.82 C
3422 21-05-2016 21:05:00 18.9 C 71 % 13.53 C
3423 21-05-2016 21:10:00 18.8 C 72 % 13.65 C
3424 21-05-2016 21:15:00 18.6 C 72 % 13.46 C
3425 21-05-2016 21:20:00 18.4 C 72 % 13.26 C
Sensor: Nr:Datum:Temp:Feuchte:Taupunkt:
Aussen-T/F 3426 21-05-2016 21:25:00 18.2 C 72 % 13.07 C
3427 21-05-2016 21:30:00 18.1 C 73 % 13.19 C
3428 21-05-2016 21:35:00 17.9 C 74 % 13.2 C
3429 21-05-2016 21:40:00 17.7 C 73 % 12.8 C
3430 21-05-2016 21:45:00 17.6 C 74 % 12.91 C
3431 21-05-2016 21:50:00 17.4 C 74 % 12.72 C
3432 21-05-2016 21:55:00 17.3 C 75 % 12.83 C
3433 21-05-2016 22:00:00 17.2 C 75 % 12.73 C
3434 21-05-2016 22:05:00 17.1 C 75 % 12.64 C
3435 21-05-2016 22:10:00 17.1 C 76 % 12.84 C
3436 21-05-2016 22:15:00 17 C 76 % 12.74 C
3437 21-05-2016 22:20:00 16.9 C 77 % 12.84 C
3438 21-05-2016 22:25:00 16.9 C 77 % 12.84 C
3439 21-05-2016 22:30:00 16.8 C 77 % 12.75 C
3440 21-05-2016 22:35:00 16.8 C 77 % 12.75 C
3441 21-05-2016 22:40:00 16.8 C 77 % 12.75 C
3442 21-05-2016 22:45:00 16.8 C 78 % 12.94 C
3443 21-05-2016 22:50:00 16.7 C 78 % 12.85 C
3444 21-05-2016 22:55:00 16.7 C 78 % 12.85 C
3445 21-05-2016 23:00:00 16.7 C 79 % 13.04 C
3446 21-05-2016 23:05:00 16.6 C 79 % 12.95 C
3447 21-05-2016 23:10:00 16.6 C 79 % 12.95 C
3448 21-05-2016 23:15:00 16.6 C 79 % 12.95 C
3449 21-05-2016 23:20:00 16.5 C 80 % 13.04 C
3450 21-05-2016 23:25:00 16.4 C 80 % 12.94 C
Sensor: Nr:Datum:Temp:Feuchte:Taupunkt:
Aussen-T/F 3451 21-05-2016 23:30:00 16.3 C 80 % 12.85 C
3452 21-05-2016 23:35:00 16.3 C 80 % 12.85 C
3453 21-05-2016 23:40:00 16.3 C 81 % 13.04 C
3454 21-05-2016 23:45:00 16.3 C 81 % 13.04 C
3455 21-05-2016 23:50:00 16.3 C 81 % 13.04 C
3456 21-05-2016 23:55:00 16.3 C 81 % 13.04 C
3457 22-05-2016 00:00:00 16.3 C 81 % 13.04 C
3458 22-05-2016 00:05:00 16.3 C 81 % 13.04 C
3459 22-05-2016 00:10:00 16.3 C 81 % 13.04 C
3460 22-05-2016 00:15:00 16.3 C 81 % 13.04 C
3461 22-05-2016 00:20:00 16.4 C 81 % 13.13 C
3462 22-05-2016 00:25:00 16.4 C 81 % 13.13 C
3463 22-05-2016 00:30:00 16.4 C 80 % 12.94 C
3464 22-05-2016 00:35:00 16.4 C 81 % 13.13 C
3465 22-05-2016 00:40:00 16.5 C 80 % 13.04 C
3466 22-05-2016 00:45:00 16.5 C 81 % 13.23 C
3467 22-05-2016 00:50:00 16.5 C 80 % 13.04 C
3468 22-05-2016 00:55:00 16.5 C 80 % 13.04 C
3469 22-05-2016 01:00:00 16.4 C 79 % 12.75 C
3470 22-05-2016 01:05:00 16.4 C 79 % 12.75 C
3471 22-05-2016 01:10:00 16.5 C 79 % 12.85 C
3472 22-05-2016 01:15:00 16.4 C 78 % 12.56 C
3473 22-05-2016 01:20:00 16.4 C 79 % 12.75 C
3474 22-05-2016 01:25:00 16.2 C 80 % 12.75 C
3475 22-05-2016 01:30:00 16.1 C 80 % 12.65 C
Sensor: Nr:Datum:Temp:Feuchte:Taupunkt:
Aussen-T/F 3476 22-05-2016 01:35:00 15.9 C 80 % 12.46 C
3477 22-05-2016 01:40:00 15.7 C 81 % 12.45 C
3478 22-05-2016 01:45:00 15.6 C 81 % 12.35 C
3479 22-05-2016 01:50:00 15.4 C 82 % 12.35 C
3480 22-05-2016 01:55:00 15.4 C 82 % 12.35 C
3481 22-05-2016 02:00:00 15.3 C 83 % 12.43 C
3482 22-05-2016 02:05:00 15.2 C 83 % 12.33 C
3483 22-05-2016 02:10:00 15.2 C 83 % 12.33 C
3484 22-05-2016 02:15:00 15.1 C 83 % 12.24 C
3485 22-05-2016 02:20:00 15.1 C 83 % 12.24 C
3486 22-05-2016 02:25:00 15 C 83 % 12.14 C
3487 22-05-2016 02:30:00 14.9 C 83 % 12.04 C
3488 22-05-2016 02:35:00 14.8 C 83 % 11.94 C
3489 22-05-2016 02:40:00 14.7 C 84 % 12.03 C
3490 22-05-2016 02:45:00 14.6 C 84 % 11.93 C
3491 22-05-2016 02:50:00 14.4 C 85 % 11.91 C
3492 22-05-2016 02:55:00 14.4 C 85 % 11.91 C
3493 22-05-2016 03:00:00 14.3 C 85 % 11.81 C
3494 22-05-2016 03:05:00 14.2 C 85 % 11.72 C
3495 22-05-2016 03:10:00 14.1 C 86 % 11.8 C
3496 22-05-2016 03:15:00 14 C 86 % 11.7 C
3497 22-05-2016 03:20:00 13.9 C 86 % 11.6 C
3498 22-05-2016 03:25:00 13.8 C 86 % 11.5 C
3499 22-05-2016 03:30:00 13.7 C 87 % 11.58 C
3500 22-05-2016 03:35:00 13.6 C 87 % 11.48 C
Sensor: Nr:Datum:Temp:Feuchte:Taupunkt:
Aussen-T/F 3501 22-05-2016 03:40:00 13.5 C 88 % 11.55 C
3502 22-05-2016 03:45:00 13.4 C 88 % 11.45 C
3503 22-05-2016 03:50:00 13.3 C 88 % 11.36 C
3504 22-05-2016 03:55:00 13.2 C 88 % 11.26 C
3505 22-05-2016 04:00:00 13.2 C 89 % 11.43 C
3506 22-05-2016 04:05:00 13.1 C 89 % 11.33 C
3507 22-05-2016 04:10:00 13.1 C 90 % 11.5 C
3508 22-05-2016 04:15:00 12.9 C 89 % 11.13 C
3509 22-05-2016 04:20:00 12.9 C 89 % 11.13 C
3510 22-05-2016 04:25:00 12.8 C 90 % 11.2 C
3511 22-05-2016 04:30:00 12.7 C 90 % 11.1 C
3512 22-05-2016 04:35:00 12.7 C 90 % 11.1 C
3513 22-05-2016 04:40:00 12.6 C 91 % 11.17 C
3514 22-05-2016 04:45:00 12.5 C 91 % 11.07 C
3515 22-05-2016 04:50:00 12.5 C 91 % 11.07 C
3516 22-05-2016 04:55:00 12.5 C 91 % 11.07 C
3517 22-05-2016 05:00:00 12.4 C 91 % 10.97 C
3518 22-05-2016 05:05:00 12.4 C 92 % 11.14 C
3519 22-05-2016 05:10:00 12.3 C 91 % 10.87 C
3520 22-05-2016 05:15:00 12.3 C 92 % 11.04 C
3521 22-05-2016 05:20:00 12.3 C 92 % 11.04 C
3522 22-05-2016 05:25:00 12.3 C 92 % 11.04 C
3523 22-05-2016 05:30:00 12.3 C 92 % 11.04 C
3524 22-05-2016 05:35:00 12.3 C 93 % 11.2 C
3525 22-05-2016 05:40:00 12.3 C 92 % 11.04 C
Sensor: Nr:Datum:Temp:Feuchte:Taupunkt:
Aussen-T/F 3526 22-05-2016 05:45:00 12.2 C 92 % 10.94 C
3527 22-05-2016 05:50:00 12.1 C 92 % 10.84 C
3528 22-05-2016 05:55:00 12.1 C 93 % 11 C
3529 22-05-2016 06:00:00 12.1 C 93 % 11 C
3530 22-05-2016 06:05:00 12.1 C 93 % 11 C
3531 22-05-2016 06:10:00 12.1 C 93 % 11 C
3532 22-05-2016 06:15:00 12.1 C 93 % 11 C
3533 22-05-2016 06:20:00 12.1 C 93 % 11 C
3534 22-05-2016 06:25:00 12.1 C 93 % 11 C
3535 22-05-2016 06:30:00 12.1 C 93 % 11 C
3536 22-05-2016 06:35:00 12.1 C 93 % 11 C
3537 22-05-2016 06:40:00 12.1 C 93 % 11 C
3538 22-05-2016 06:45:00 12.2 C 93 % 11.1 C
3539 22-05-2016 06:50:00 12.3 C 94 % 11.36 C
3540 22-05-2016 06:55:00 12.4 C 94 % 11.46 C
3541 22-05-2016 07:00:00 12.4 C 94 % 11.46 C
3542 22-05-2016 07:05:00 12.6 C 94 % 11.66 C
3543 22-05-2016 07:10:00 12.6 C 94 % 11.66 C
3544 22-05-2016 07:15:00 12.7 C 94 % 11.76 C
3545 22-05-2016 07:20:00 12.7 C 94 % 11.76 C
3546 22-05-2016 07:25:00 12.8 C 94 % 11.86 C
3547 22-05-2016 07:30:00 13 C 94 % 12.06 C
3548 22-05-2016 07:35:00 13.2 C 94 % 12.26 C
3549 22-05-2016 07:40:00 13.3 C 94 % 12.36 C
3550 22-05-2016 07:45:00 13.6 C 94 % 12.65 C
Sensor: Nr:Datum:Temp:Feuchte:Taupunkt:
Aussen-T/F 3551 22-05-2016 07:50:00 14 C 93 % 12.89 C
3552 22-05-2016 07:55:00 14.3 C 93 % 13.18 C
3553 22-05-2016 08:00:00 14.6 C 92 % 13.32 C
3554 22-05-2016 08:05:00 14.8 C 91 % 13.35 C
3555 22-05-2016 08:10:00 14.9 C 90 % 13.28 C
3556 22-05-2016 08:15:00 15.1 C 90 % 13.47 C
3557 22-05-2016 08:20:00 15.2 C 90 % 13.57 C
3558 22-05-2016 08:25:00 15.4 C 90 % 13.77 C
3559 22-05-2016 08:30:00 15.6 C 90 % 13.97 C
3560 22-05-2016 08:35:00 15.9 C 90 % 14.26 C
3561 22-05-2016 08:40:00 16.3 C 90 % 14.66 C
3562 22-05-2016 08:45:00 16.6 C 89 % 14.78 C
3563 22-05-2016 08:50:00 16.8 C 85 % 14.26 C
3564 22-05-2016 08:55:00 17.3 C 87 % 15.12 C
3565 22-05-2016 09:00:00 17.5 C 84 % 14.77 C
3566 22-05-2016 09:05:00 17.8 C 81 % 14.5 C
3567 22-05-2016 09:10:00 18.2 C 78 % 14.3 C
3568 22-05-2016 09:15:00 18.6 C 76 % 14.29 C
3569 22-05-2016 09:20:00 19.1 C 75 % 14.57 C
3570 22-05-2016 09:25:00 19.5 C 73 % 14.53 C
3571 22-05-2016 09:30:00 19.8 C 72 % 14.61 C
3572 22-05-2016 09:35:00 20.2 C 71 % 14.78 C
3573 22-05-2016 09:40:00 20.4 C 71 % 14.97 C
3574 22-05-2016 09:45:00 20.6 C 69 % 14.71 C
3575 22-05-2016 09:50:00 20.7 C 72 % 15.47 C
Sensor: Nr:Datum:Temp:Feuchte:Taupunkt:
Aussen-T/F 3576 22-05-2016 09:55:00 20.7 C 68 % 14.58 C
3577 22-05-2016 10:00:00 20.8 C 67 % 14.45 C
3578 22-05-2016 10:05:00 20.9 C 70 % 15.23 C
3579 22-05-2016 10:10:00 21 C 68 % 14.87 C
3580 22-05-2016 10:15:00 21.2 C 70 % 15.51 C
3581 22-05-2016 10:20:00 21.3 C 67 % 14.93 C
3582 22-05-2016 10:25:00 21.4 C 67 % 15.02 C
3583 22-05-2016 10:30:00 21.6 C 66 % 14.98 C
3584 22-05-2016 10:35:00 21.6 C 67 % 15.21 C
3585 22-05-2016 10:40:00 21.7 C 66 % 15.07 C
3586 22-05-2016 10:45:00 21.8 C 67 % 15.4 C
3587 22-05-2016 10:50:00 21.8 C 67 % 15.4 C
3588 22-05-2016 10:55:00 21.8 C 66 % 15.17 C
3589 22-05-2016 11:00:00 21.8 C 67 % 15.4 C
3590 22-05-2016 11:05:00 21.8 C 66 % 15.17 C
3591 22-05-2016 11:10:00 21.8 C 67 % 15.4 C
3592 22-05-2016 11:15:00 21.8 C 66 % 15.17 C
3593 22-05-2016 11:20:00 21.9 C 65 % 15.02 C
3594 22-05-2016 11:25:00 22.1 C 64 % 14.97 C
3595 22-05-2016 11:30:00 22.1 C 63 % 14.73 C
3596 22-05-2016 11:35:00 22.2 C 63 % 14.82 C
3597 22-05-2016 11:40:00 22.2 C 62 % 14.58 C
3598 22-05-2016 11:45:00 22.2 C 63 % 14.82 C
3599 22-05-2016 11:50:00 22.3 C 63 % 14.92 C
3600 22-05-2016 11:55:00 22.5 C 62 % 14.86 C
Sensor: Nr:Datum:Temp:Feuchte:Taupunkt:
Aussen-T/F 3601 22-05-2016 12:00:00 22.6 C 64 % 15.45 C
3602 22-05-2016 12:05:00 22.7 C 64 % 15.54 C
3603 22-05-2016 12:10:00 22.8 C 64 % 15.64 C
3604 22-05-2016 12:15:00 22.8 C 60 % 14.63 C
3605 22-05-2016 12:20:00 22.8 C 60 % 14.63 C
3606 22-05-2016 12:25:00 22.8 C 60 % 14.63 C
3607 22-05-2016 12:30:00 22.9 C 62 % 15.23 C
3608 22-05-2016 12:35:00 23 C 61 % 15.08 C
3609 22-05-2016 12:40:00 23.2 C 61 % 15.26 C
3610 22-05-2016 12:45:00 23.3 C 58 % 14.58 C
3611 22-05-2016 12:50:00 23.4 C 59 % 14.93 C
3612 22-05-2016 12:55:00 23.4 C 56 % 14.13 C
3613 22-05-2016 13:00:00 23.3 C 57 % 14.31 C
3614 22-05-2016 13:05:00 23.3 C 57 % 14.31 C
3615 22-05-2016 13:10:00 23.3 C 60 % 15.1 C
3616 22-05-2016 13:15:00 23.2 C 59 % 14.75 C
3617 22-05-2016 13:20:00 23.3 C 58 % 14.58 C
3618 22-05-2016 13:25:00 23.4 C 58 % 14.67 C
3619 22-05-2016 13:30:00 23.6 C 57 % 14.59 C
3620 22-05-2016 13:35:00 23.6 C 57 % 14.59 C
3621 22-05-2016 13:40:00 23.7 C 58 % 14.95 C
3622 22-05-2016 13:45:00 23.9 C 57 % 14.87 C
3623 22-05-2016 13:50:00 24 C 57 % 14.96 C
3624 22-05-2016 13:55:00 24.1 C 57 % 15.05 C
3625 22-05-2016 14:00:00 24.1 C 55 % 14.5 C
Sensor: Nr:Datum:Temp:Feuchte:Taupunkt:
Aussen-T/F 3626 22-05-2016 14:05:00 24.1 C 57 % 15.05 C
3627 22-05-2016 14:10:00 24.2 C 55 % 14.59 C
3628 22-05-2016 14:15:00 24.3 C 58 % 15.51 C
3629 22-05-2016 14:20:00 24.6 C 57 % 15.52 C
3630 22-05-2016 14:25:00 24.8 C 56 % 15.43 C
3631 22-05-2016 14:30:00 24.7 C 56 % 15.33 C
3632 22-05-2016 14:35:00 24.8 C 57 % 15.7 C
3633 22-05-2016 14:40:00 24.9 C 57 % 15.8 C
3634 22-05-2016 14:45:00 24.8 C 55 % 15.15 C
3635 22-05-2016 14:50:00 24.9 C 57 % 15.8 C
3636 22-05-2016 14:55:00 24.9 C 54 % 14.95 C
3637 22-05-2016 15:00:00 24.9 C 57 % 15.8 C
3638 22-05-2016 15:05:00 24.8 C 54 % 14.86 C
3639 22-05-2016 15:10:00 24.6 C 54 % 14.68 C
3640 22-05-2016 15:15:00 24.5 C 56 % 15.15 C
3641 22-05-2016 15:20:00 24.5 C 55 % 14.87 C
3642 22-05-2016 15:25:00 24.5 C 57 % 15.42 C
3643 22-05-2016 15:30:00 24.8 C 58 % 15.98 C
3644 22-05-2016 15:35:00 25 C 56 % 15.61 C
3645 22-05-2016 15:40:00 25.2 C 53 % 14.94 C
3646 22-05-2016 15:45:00 25.3 C 53 % 15.03 C
3647 22-05-2016 15:50:00 25.3 C 55 % 15.61 C
3648 22-05-2016 15:55:00 25.2 C 57 % 16.08 C
3649 22-05-2016 16:00:00 25 C 56 % 15.61 C
3650 22-05-2016 16:05:00 24.9 C 56 % 15.52 C
Sensor: Nr:Datum:Temp:Feuchte:Taupunkt:
Aussen-T/F 3651 22-05-2016 16:10:00 24.7 C 51 % 13.89 C
3652 22-05-2016 16:15:00 24.6 C 55 % 14.96 C
3653 22-05-2016 16:20:00 24.4 C 55 % 14.78 C
3654 22-05-2016 16:25:00 24.7 C 53 % 14.48 C
3655 22-05-2016 16:30:00 24.9 C 49 % 13.46 C
3656 22-05-2016 16:35:00 24.9 C 51 % 14.07 C
3657 22-05-2016 16:40:00 24.8 C 46 % 12.4 C
3658 22-05-2016 16:45:00 24.6 C 46 % 12.22 C
3659 22-05-2016 16:50:00 24.4 C 45 % 11.7 C
3660 22-05-2016 16:55:00 24.3 C 45 % 11.61 C
3661 22-05-2016 17:00:00 24.2 C 45 % 11.52 C
3662 22-05-2016 17:05:00 24.1 C 52 % 13.63 C
3663 22-05-2016 17:10:00 23.8 C 56 % 14.5 C
3664 22-05-2016 17:15:00 23.7 C 58 % 14.95 C
3665 22-05-2016 17:20:00 23.5 C 59 % 15.03 C
3666 22-05-2016 17:25:00 23.3 C 60 % 15.1 C
3667 22-05-2016 17:30:00 23 C 61 % 15.08 C
3668 22-05-2016 17:35:00 22.8 C 62 % 15.14 C
3669 22-05-2016 17:40:00 22.6 C 63 % 15.2 C
3670 22-05-2016 17:45:00 22.4 C 63 % 15.01 C
3671 22-05-2016 17:50:00 22.2 C 65 % 15.31 C
3672 22-05-2016 17:55:00 22.1 C 66 % 15.45 C
3673 22-05-2016 18:00:00 21.9 C 65 % 15.02 C
3674 22-05-2016 18:05:00 21.8 C 68 % 15.63 C
3675 22-05-2016 18:10:00 21.7 C 68 % 15.54 C
Sensor: Nr:Datum:Temp:Feuchte:Taupunkt:
Aussen-T/F 3676 22-05-2016 18:15:00 21.6 C 68 % 15.44 C
3677 22-05-2016 18:20:00 21.6 C 69 % 15.67 C
3678 22-05-2016 18:25:00 21.8 C 68 % 15.63 C
3679 22-05-2016 18:30:00 21.9 C 67 % 15.5 C
3680 22-05-2016 18:35:00 21.8 C 67 % 15.4 C
3681 22-05-2016 18:40:00 21.7 C 69 % 15.77 C
3682 22-05-2016 18:45:00 21.7 C 68 % 15.54 C
3683 22-05-2016 18:50:00 21.7 C 69 % 15.77 C
3684 22-05-2016 18:55:00 21.8 C 70 % 16.09 C
3685 22-05-2016 19:00:00 22.1 C 68 % 15.92 C
3686 22-05-2016 19:05:00 22.3 C 66 % 15.64 C
3687 22-05-2016 19:10:00 22.2 C 66 % 15.55 C
3688 22-05-2016 19:15:00 22.1 C 66 % 15.45 C
3689 22-05-2016 19:20:00 21.8 C 60 % 13.69 C
3690 22-05-2016 19:25:00 21.6 C 59 % 13.25 C
3691 22-05-2016 19:30:00 21.4 C 57 % 12.53 C
3692 22-05-2016 19:35:00 21.2 C 58 % 12.61 C
3693 22-05-2016 19:40:00 21.1 C 55 % 11.71 C
3694 22-05-2016 19:45:00 20.9 C 58 % 12.33 C
3695 22-05-2016 19:50:00 20.8 C 59 % 12.5 C
3696 22-05-2016 19:55:00 20.6 C 60 % 12.57 C
3697 22-05-2016 20:00:00 20.4 C 58 % 11.86 C
3698 22-05-2016 20:05:00 20.3 C 58 % 11.77 C
3699 22-05-2016 20:10:00 20.2 C 61 % 12.44 C
3700 22-05-2016 20:15:00 20 C 61 % 12.26 C
Sensor: Nr:Datum:Temp:Feuchte:Taupunkt:
Aussen-T/F 3701 22-05-2016 20:20:00 19.9 C 59 % 11.66 C
3702 22-05-2016 20:25:00 19.8 C 62 % 12.31 C
3703 22-05-2016 20:30:00 19.7 C 63 % 12.46 C
3704 22-05-2016 20:35:00 19.4 C 63 % 12.18 C
3705 22-05-2016 20:40:00 19.3 C 61 % 11.6 C
3706 22-05-2016 20:45:00 19.2 C 64 % 12.23 C
3707 22-05-2016 20:50:00 19.1 C 65 % 12.37 C
3708 22-05-2016 20:55:00 18.9 C 66 % 12.41 C
3709 22-05-2016 21:00:00 18.8 C 68 % 12.77 C
3710 22-05-2016 21:05:00 18.8 C 69 % 13 C
3711 22-05-2016 21:10:00 18.7 C 70 % 13.12 C
3712 22-05-2016 21:15:00 18.5 C 70 % 12.93 C
3713 22-05-2016 21:20:00 18.4 C 69 % 12.61 C
3714 22-05-2016 21:25:00 18.3 C 72 % 13.17 C
3715 22-05-2016 21:30:00 18.2 C 68 % 12.2 C
3716 22-05-2016 21:35:00 18.2 C 68 % 12.2 C
3717 22-05-2016 21:40:00 18.2 C 68 % 12.2 C
3718 22-05-2016 21:45:00 18.2 C 69 % 12.42 C
3719 22-05-2016 21:50:00 18.2 C 69 % 12.42 C
3720 22-05-2016 21:55:00 18.1 C 67 % 11.88 C
3721 22-05-2016 22:00:00 18.1 C 68 % 12.11 C
3722 22-05-2016 22:05:00 18.1 C 68 % 12.11 C
3723 22-05-2016 22:10:00 18.1 C 70 % 12.55 C
3724 22-05-2016 22:15:00 17.9 C 70 % 12.35 C
3725 22-05-2016 22:20:00 17.8 C 72 % 12.69 C
Sensor: Nr:Datum:Temp:Feuchte:Taupunkt:
Aussen-T/F 3726 22-05-2016 22:25:00 17.6 C 72 % 12.5 C
3727 22-05-2016 22:30:00 17.4 C 74 % 12.72 C
3728 22-05-2016 22:35:00 17.3 C 74 % 12.62 C
3729 22-05-2016 22:40:00 17.2 C 73 % 12.32 C
3730 22-05-2016 22:45:00 17.1 C 74 % 12.43 C
3731 22-05-2016 22:50:00 17.1 C 75 % 12.64 C
3732 22-05-2016 22:55:00 17.1 C 78 % 13.24 C
3733 22-05-2016 23:00:00 16.9 C 78 % 13.04 C
3734 22-05-2016 23:05:00 16.8 C 80 % 13.33 C
3735 22-05-2016 23:10:00 16.7 C 81 % 13.43 C
3736 22-05-2016 23:15:00 16.5 C 82 % 13.42 C
3737 22-05-2016 23:20:00 16.3 C 82 % 13.22 C
3738 22-05-2016 23:25:00 16.1 C 83 % 13.21 C
3739 22-05-2016 23:30:00 15.9 C 84 % 13.2 C
3740 22-05-2016 23:35:00 15.9 C 85 % 13.38 C
3741 22-05-2016 23:40:00 15.8 C 85 % 13.28 C
3742 22-05-2016 23:45:00 15.7 C 86 % 13.37 C
3743 22-05-2016 23:50:00 15.7 C 86 % 13.37 C
3744 22-05-2016 23:55:00 15.6 C 86 % 13.27 C
3745 23-05-2016 00:00:00 15.4 C 87 % 13.25 C
3746 23-05-2016 00:05:00 15.3 C 87 % 13.15 C
3747 23-05-2016 00:10:00 15.2 C 88 % 13.23 C
3748 23-05-2016 00:15:00 15.1 C 88 % 13.13 C
3749 23-05-2016 00:20:00 15.1 C 88 % 13.13 C
3750 23-05-2016 00:25:00 15 C 89 % 13.2 C
Sensor: Nr:Datum:Temp:Feuchte:Taupunkt:
Aussen-T/F 3751 23-05-2016 00:30:00 14.9 C 89 % 13.1 C
3752 23-05-2016 00:35:00 14.8 C 89 % 13.01 C
3753 23-05-2016 00:40:00 14.8 C 90 % 13.18 C
3754 23-05-2016 00:45:00 14.8 C 90 % 13.18 C
3755 23-05-2016 00:50:00 14.7 C 91 % 13.25 C
3756 23-05-2016 00:55:00 14.7 C 91 % 13.25 C
3757 23-05-2016 01:00:00 14.7 C 91 % 13.25 C
3758 23-05-2016 01:05:00 14.6 C 91 % 13.15 C
3759 23-05-2016 01:10:00 14.6 C 91 % 13.15 C
3760 23-05-2016 01:15:00 14.6 C 91 % 13.15 C
3761 23-05-2016 01:20:00 14.5 C 91 % 13.05 C
3762 23-05-2016 01:25:00 14.5 C 92 % 13.22 C
3763 23-05-2016 01:30:00 14.4 C 91 % 12.95 C
3764 23-05-2016 01:35:00 14.4 C 91 % 12.95 C
3765 23-05-2016 01:40:00 14.4 C 91 % 12.95 C
3766 23-05-2016 01:45:00 14.4 C 91 % 12.95 C
3767 23-05-2016 01:50:00 14.4 C 91 % 12.95 C
3768 23-05-2016 01:55:00 14.5 C 91 % 13.05 C
3769 23-05-2016 02:00:00 14.5 C 90 % 12.88 C
3770 23-05-2016 02:05:00 14.5 C 90 % 12.88 C
3771 23-05-2016 02:10:00 14.5 C 90 % 12.88 C
3772 23-05-2016 02:15:00 14.5 C 90 % 12.88 C
3773 23-05-2016 02:20:00 14.5 C 89 % 12.71 C
3774 23-05-2016 02:25:00 14.5 C 89 % 12.71 C
3775 23-05-2016 02:30:00 14.6 C 89 % 12.81 C
Sensor: Nr:Datum:Temp:Feuchte:Taupunkt:
Aussen-T/F 3776 23-05-2016 02:35:00 14.6 C 88 % 12.64 C
3777 23-05-2016 02:40:00 14.6 C 88 % 12.64 C
3778 23-05-2016 02:45:00 14.6 C 87 % 12.46 C
3779 23-05-2016 02:50:00 14.6 C 87 % 12.46 C
3780 23-05-2016 02:55:00 14.7 C 88 % 12.73 C
3781 23-05-2016 03:00:00 14.7 C 88 % 12.73 C
3782 23-05-2016 03:05:00 14.7 C 87 % 12.56 C
3783 23-05-2016 03:10:00 14.6 C 87 % 12.46 C
3784 23-05-2016 03:15:00 14.6 C 87 % 12.46 C
3785 23-05-2016 03:20:00 14.6 C 87 % 12.46 C
3786 23-05-2016 03:25:00 14.6 C 87 % 12.46 C
3787 23-05-2016 03:30:00 14.6 C 86 % 12.29 C
3788 23-05-2016 03:35:00 14.7 C 87 % 12.56 C
3789 23-05-2016 03:40:00 14.7 C 86 % 12.38 C
3790 23-05-2016 03:45:00 14.7 C 85 % 12.21 C
3791 23-05-2016 03:50:00 14.7 C 85 % 12.21 C
3792 23-05-2016 03:55:00 14.6 C 84 % 11.93 C
3793 23-05-2016 04:00:00 14.5 C 84 % 11.83 C
3794 23-05-2016 04:05:00 14.4 C 84 % 11.73 C
3795 23-05-2016 04:10:00 14.3 C 84 % 11.64 C
3796 23-05-2016 04:15:00 14.2 C 85 % 11.72 C
3797 23-05-2016 04:20:00 14.1 C 85 % 11.62 C
3798 23-05-2016 04:25:00 14.1 C 85 % 11.62 C
3799 23-05-2016 04:30:00 13.9 C 85 % 11.42 C
3800 23-05-2016 04:35:00 13.8 C 85 % 11.32 C
Sensor: Nr:Datum:Temp:Feuchte:Taupunkt:
Aussen-T/F 3801 23-05-2016 04:40:00 13.8 C 85 % 11.32 C
3802 23-05-2016 04:45:00 13.7 C 86 % 11.4 C
3803 23-05-2016 04:50:00 13.7 C 87 % 11.58 C
3804 23-05-2016 04:55:00 13.6 C 88 % 11.65 C
3805 23-05-2016 05:00:00 13.4 C 88 % 11.45 C
3806 23-05-2016 05:05:00 13.3 C 89 % 11.53 C
3807 23-05-2016 05:10:00 13.2 C 89 % 11.43 C
3808 23-05-2016 05:15:00 13.2 C 90 % 11.6 C
3809 23-05-2016 05:20:00 13.1 C 90 % 11.5 C
3810 23-05-2016 05:25:00 13.1 C 90 % 11.5 C
3811 23-05-2016 05:30:00 13 C 91 % 11.57 C
3812 23-05-2016 05:35:00 12.9 C 91 % 11.47 C
3813 23-05-2016 05:40:00 12.9 C 91 % 11.47 C
3814 23-05-2016 05:45:00 12.9 C 91 % 11.47 C
3815 23-05-2016 05:50:00 12.8 C 91 % 11.37 C
3816 23-05-2016 05:55:00 12.8 C 91 % 11.37 C
3817 23-05-2016 06:00:00 12.8 C 91 % 11.37 C
3818 23-05-2016 06:05:00 12.8 C 91 % 11.37 C
3819 23-05-2016 06:10:00 12.8 C 91 % 11.37 C
3820 23-05-2016 06:15:00 12.8 C 91 % 11.37 C
3821 23-05-2016 06:20:00 12.8 C 91 % 11.37 C
3822 23-05-2016 06:25:00 12.8 C 91 % 11.37 C
3823 23-05-2016 06:30:00 12.8 C 91 % 11.37 C
3824 23-05-2016 06:35:00 12.8 C 91 % 11.37 C
3825 23-05-2016 06:40:00 12.8 C 91 % 11.37 C
Sensor: Nr:Datum:Temp:Feuchte:Taupunkt:
Aussen-T/F 3826 23-05-2016 06:45:00 12.8 C 91 % 11.37 C
3827 23-05-2016 06:50:00 12.8 C 91 % 11.37 C
3828 23-05-2016 06:55:00 12.8 C 90 % 11.2 C
3829 23-05-2016 07:00:00 12.8 C 90 % 11.2 C
3830 23-05-2016 07:05:00 12.8 C 90 % 11.2 C
3831 23-05-2016 07:10:00 12.8 C 90 % 11.2 C
3832 23-05-2016 07:15:00 12.9 C 90 % 11.3 C
3833 23-05-2016 07:20:00 12.9 C 90 % 11.3 C
3834 23-05-2016 07:25:00 12.9 C 90 % 11.3 C
3835 23-05-2016 07:30:00 13 C 89 % 11.23 C
3836 23-05-2016 07:35:00 13 C 90 % 11.4 C
3837 23-05-2016 07:40:00 13.1 C 90 % 11.5 C
3838 23-05-2016 07:45:00 13.1 C 90 % 11.5 C
3839 23-05-2016 07:50:00 13.1 C 90 % 11.5 C
3840 23-05-2016 07:55:00 13.1 C 90 % 11.5 C
3841 23-05-2016 08:00:00 13.1 C 90 % 11.5 C
3842 23-05-2016 08:05:00 13.1 C 90 % 11.5 C
3843 23-05-2016 08:10:00 13.1 C 90 % 11.5 C
3844 23-05-2016 08:15:00 13.1 C 90 % 11.5 C
3845 23-05-2016 08:20:00 13.1 C 90 % 11.5 C
3846 23-05-2016 08:25:00 13.1 C 90 % 11.5 C
3847 23-05-2016 08:30:00 13.2 C 90 % 11.6 C
3848 23-05-2016 08:35:00 13.2 C 90 % 11.6 C
3849 23-05-2016 08:40:00 13.3 C 89 % 11.53 C
3850 23-05-2016 08:45:00 13.4 C 90 % 11.79 C
Sensor: Nr:Datum:Temp:Feuchte:Taupunkt:
Aussen-T/F 3851 23-05-2016 08:50:00 13.6 C 89 % 11.82 C
3852 23-05-2016 08:55:00 13.7 C 89 % 11.92 C
3853 23-05-2016 09:00:00 13.8 C 87 % 11.68 C
3854 23-05-2016 09:05:00 13.9 C 87 % 11.77 C
3855 23-05-2016 09:10:00 14.1 C 87 % 11.97 C
3856 23-05-2016 09:15:00 14.2 C 86 % 11.89 C
3857 23-05-2016 09:20:00 14.3 C 85 % 11.81 C
3858 23-05-2016 09:25:00 14.3 C 85 % 11.81 C
3859 23-05-2016 09:30:00 14.4 C 85 % 11.91 C
3860 23-05-2016 09:35:00 14.4 C 85 % 11.91 C
3861 23-05-2016 09:40:00 14.4 C 84 % 11.73 C
3862 23-05-2016 09:45:00 14.4 C 85 % 11.91 C
3863 23-05-2016 09:50:00 14.4 C 85 % 11.91 C
3864 23-05-2016 09:55:00 14.4 C 83 % 11.55 C
3865 23-05-2016 10:00:00 14.4 C 83 % 11.55 C
3866 23-05-2016 10:05:00 14.4 C 83 % 11.55 C
3867 23-05-2016 10:10:00 14.5 C 83 % 11.65 C
3868 23-05-2016 10:15:00 14.4 C 83 % 11.55 C
3869 23-05-2016 10:20:00 14.4 C 82 % 11.37 C
3870 23-05-2016 10:25:00 14.4 C 83 % 11.55 C
3871 23-05-2016 10:30:00 14.6 C 83 % 11.75 C
3872 23-05-2016 10:35:00 14.8 C 83 % 11.94 C
3873 23-05-2016 10:40:00 15 C 79 % 11.39 C
3874 23-05-2016 10:45:00 15 C 79 % 11.39 C
3875 23-05-2016 10:50:00 15.1 C 76 % 10.9 C
Sensor: Nr:Datum:Temp:Feuchte:Taupunkt:
Aussen-T/F 3876 23-05-2016 10:55:00 15.2 C 76 % 11 C
3877 23-05-2016 11:00:00 15.2 C 75 % 10.8 C
3878 23-05-2016 11:05:00 15.2 C 75 % 10.8 C
3879 23-05-2016 11:10:00 15.1 C 77 % 11.1 C
3880 23-05-2016 11:15:00 15.2 C 76 % 11 C
3881 23-05-2016 11:20:00 15.2 C 75 % 10.8 C
3882 23-05-2016 11:25:00 15.2 C 75 % 10.8 C
3883 23-05-2016 11:30:00 15.3 C 74 % 10.7 C
3884 23-05-2016 11:35:00 15.4 C 74 % 10.79 C
3885 23-05-2016 11:40:00 15.5 C 75 %